[[{"header":{"parameterUnit":"m.s-1","parameterCategory":1,"la1":30.6,"la2":28.766,"lo1":-90.7593,"lo2":-88.6598,"dy":0.0162,"dx":0.0183,"nx":116,"ny":114,"refTime":"2023-06-20T06:00:00:Z","depth":0,"parameterNumber":2,"parameterNumberName":"U-component_of_WINDS"},"data":[0.0,0.0,0.0,0.0,0.0,0.0,0.0,0.0,0.0,0.0,0.0,0.0,0.0,0.0,0.0,0.0,0.0,0.0,0.0,0.0,0.0,0.0,0.0,0.0,0.0,0.0,0.0,0.0,0.0,0.0,0.0,0.0,0.0,0.0,0.0,0.0,0.0,0.0,0.0,0.0,0.0,0.0,0.0,0.0,0.0,0.0,0.0,0.0,0.0,0.0,0.0,0.0,0.0,0.0,0.0,0.0,0.0,0.0,0.0,0.0,0.0,0.0,0.0,0.0,0.0,0.0,0.0,0.0,0.0,0.0,0.0,0.0,0.0,0.0,0.0,0.0,0.0,0.0,0.0,0.0,0.0,0.0,0.0,0.0,0.0,0.0,0.0,0.0,0.0,0.0,0.0,0.0,0.0,0.0,0.0,0.0,0.0,0.0,0.0,0.0,0.0,0.0,0.0,0.0,0.0,0.0,0.0,0.0,0.0,0.0,0.0,0.0,0.0,0.0,0.0,0.0,0.0,0.0,0.0,0.0,0.0,0.0,0.0,0.0,0.0,0.0,0.0,0.0,0.0,0.0,0.0,0.0,0.0,0.0,0.0,0.0,0.0,0.0,0.0,0.0,0.0,0.0,0.0,0.0,0.0,0.0,0.0,0.0,0.0,0.0,0.0,0.0,0.0,0.0,0.0,0.0,0.0,0.0,0.0,0.0,0.0,0.0,0.0,0.0,0.0,0.0,0.0,0.0,0.0,0.0,0.0,0.0,0.0,0.0,0.0,0.0,0.0,0.0,0.0,0.0,0.0,0.0,0.0,0.0,0.0,0.0,0.0,0.0,0.0,0.0,0.0,0.0,0.0,0.0,0.0,0.0,0.0,0.0,0.0,0.0,0.0,0.0,0.0,0.0,0.0,0.0,0.0,0.0,0.0,0.0,0.0,0.0,0.0,0.0,0.0,0.0,0.0,0.0,0.0,0.0,0.0,0.0,0.0,0.0,0.0,0.0,0.0,0.0,0.0,0.0,0.0,0.0,0.0,0.0,0.0,0.0,0.0,0.0,0.0,0.0,0.0,0.0,0.0,0.0,0.0,0.0,0.0,0.0,0.0,0.0,0.0,0.0,0.0,0.0,0.0,0.0,0.0,0.0,0.0,0.0,0.0,0.0,0.0,0.0,0.0,0.0,0.0,0.0,0.0,0.0,0.0,0.0,0.0,0.0,0.0,0.0,0.0,0.0,0.0,0.0,0.0,0.0,0.0,0.0,0.0,0.0,0.0,0.0,0.0,0.0,0.0,0.0,0.0,0.0,0.0,0.0,0.0,0.0,0.0,0.0,0.0,0.0,0.0,0.0,0.0,0.0,0.0,0.0,0.0,0.0,0.0,0.0,0.0,0.0,0.0,0.0,0.0,0.0,0.0,0.0,0.0,0.0,0.0,0.0,0.0,0.0,0.0,0.0,0.0,0.0,0.0,0.0,0.0,0.0,0.0,0.0,0.0,0.0,0.0,0.0,0.0,0.0,0.0,0.0,0.0,0.0,0.0,0.0,0.0,0.0,0.0,0.0,0.0,0.0,0.0,0.0,0.0,0.0,0.0,0.0,0.0,0.0,0.0,0.0,0.0,0.0,0.0,0.0,0.0,0.0,0.0,0.0,0.0,0.0,0.0,0.0,0.0,0.0,0.0,0.0,0.0,0.0,0.0,0.0,0.0,0.0,0.0,0.0,0.0,0.0,0.0,0.0,0.0,0.0,0.0,0.0,0.0,0.0,0.0,0.0,0.0,0.0,0.0,0.0,0.0,0.0,0.0,0.0,0.0,0.0,0.0,0.0,0.0,0.0,0.0,0.0,0.0,0.0,0.0,0.0,0.0,0.0,0.0,0.0,0.0,0.0,0.0,0.0,0.0,0.0,0.0,0.0,0.0,0.0,0.0,0.0,0.0,0.0,0.0,0.0,0.0,0.0,0.0,0.0,0.0,0.0,0.0,0.0,0.0,0.0,0.0,0.0,0.0,0.0,0.0,0.0,0.0,0.0,0.0,0.0,0.0,0.0,0.0,0.0,0.0,0.0,0.0,0.0,0.0,0.0,0.0,0.0,0.0,0.0,0.0,0.0,0.0,0.0,0.0,0.0,0.0,0.0,0.0,0.0,0.0,0.0,0.0,0.0,0.0,0.0,0.0,0.0,0.0,0.0,0.0,0.0,0.0,0.0,0.0,0.0,0.0,0.0,0.0,0.0,0.0,0.0,0.0,0.0,0.0,0.0,0.0,0.0,0.0,0.0,0.0,0.0,0.0,0.0,0.0,0.0,0.0,0.0,0.0,0.0,0.0,0.0,0.0,0.0,0.0,0.0,0.0,0.0,0.0,0.0,0.0,0.0,0.0,0.0,0.0,0.0,0.0,0.0,0.0,0.0,0.0,0.0,0.0,0.0,0.0,0.0,0.0,0.0,0.0,0.0,0.0,0.0,0.0,0.0,0.0,0.0,0.0,0.0,0.0,0.0,0.0,0.0,0.0,0.0,0.0,0.0,0.0,0.0,0.0,0.0,0.0,0.0,0.0,0.0,0.0,0.0,0.0,0.0,0.0,0.0,0.0,0.0,0.0,0.0,0.0,0.0,0.0,0.0,0.0,0.0,0.0,0.0,0.0,0.0,0.0,0.0,0.0,0.0,0.0,0.0,0.0,0.0,0.0,0.0,0.0,0.0,0.0,0.0,0.0,0.0,0.0,0.0,0.0,0.0,0.0,0.0,0.0,0.0,0.0,0.0,0.0,0.0,0.0,0.0,0.0,0.0,0.0,0.0,0.0,0.0,0.0,0.0,0.0,0.0,0.0,0.0,0.0,0.0,0.0,0.0,0.0,0.0,0.0,0.0,0.0,0.0,0.0,0.0,0.0,0.0,0.0,0.0,0.0,0.0,0.0,0.0,0.0,0.0,0.0,0.0,0.0,0.0,0.0,0.0,0.0,0.0,0.0,0.0,0.0,0.0,0.0,0.0,0.0,0.0,0.0,0.0,0.0,0.0,0.0,0.0,0.0,0.0,0.0,0.0,0.0,0.0,0.0,0.0,0.0,0.0,0.0,0.0,0.0,0.0,0.0,0.0,0.0,0.0,0.0,0.0,0.0,0.0,0.0,0.0,0.0,0.0,0.0,0.0,0.0,0.0,0.0,0.0,0.0,0.0,0.0,0.0,0.0,0.0,0.0,0.0,0.0,0.0,0.0,0.0,0.0,0.0,0.0,0.0,0.0,0.0,0.0,0.0,0.0,0.0,0.0,0.0,0.0,0.0,0.0,0.0,0.0,0.0,0.0,0.0,0.0,0.0,0.0,0.0,0.0,0.0,0.0,0.0,0.0,0.0,0.0,0.0,0.0,0.0,0.0,0.0,0.0,0.0,0.0,0.0,0.0,0.0,0.0,0.0,0.0,0.0,0.0,0.0,0.0,0.0,0.0,0.0,0.0,0.0,0.0,0.0,0.0,0.0,0.0,0.0,0.0,0.0,0.0,0.0,0.0,0.0,0.0,0.0,0.0,0.0,0.0,0.0,0.0,0.0,0.0,0.0,0.0,0.0,0.0,0.0,0.0,0.0,0.0,0.0,0.0,0.0,0.0,0.0,0.0,0.0,0.0,0.0,0.0,0.0,0.0,0.0,0.0,0.0,0.0,0.0,0.0,0.0,0.0,0.0,0.0,0.0,0.0,0.0,0.0,0.0,0.0,0.0,0.0,0.0,0.0,0.0,0.0,0.0,0.0,0.0,0.0,0.0,0.0,0.0,0.0,0.0,0.0,0.0,0.0,0.0,0.0,0.0,0.0,0.0,0.0,0.0,0.0,0.0,0.0,0.0,0.0,0.0,0.0,0.0,0.0,0.0,0.0,0.0,0.0,0.0,0.0,0.0,0.0,0.0,0.0,0.0,0.0,0.0,0.0,0.0,0.0,0.0,0.0,0.0,0.0,0.0,0.0,0.0,0.0,0.0,0.0,0.0,0.0,0.0,0.0,0.0,0.0,0.0,0.0,0.0,0.0,0.0,0.0,0.0,0.0,0.0,0.0,0.0,0.0,0.0,0.0,0.0,0.0,0.0,0.0,0.0,0.0,0.0,0.0,0.0,0.0,0.0,0.0,0.0,0.0,0.0,0.0,0.0,0.0,0.0,0.0,0.0,0.0,0.0,0.0,0.0,0.0,0.0,0.0,0.0,0.0,0.0,0.0,0.0,0.0,0.0,0.0,0.0,0.0,0.0,0.0,0.0,0.0,0.0,0.0,0.0,0.0,0.0,0.0,0.0,0.0,0.0,0.0,0.0,0.0,0.0,0.0,0.0,0.0,0.0,0.0,0.0,0.0,0.0,0.0,0.0,0.0,0.0,0.0,0.0,0.0,0.0,0.0,0.0,0.0,0.0,0.0,0.0,0.0,0.0,0.0,0.0,0.0,0.0,0.0,0.0,0.0,0.0,0.0,0.0,0.0,0.0,0.0,0.0,0.0,0.0,0.0,0.0,0.0,0.0,0.0,0.0,0.0,0.0,0.0,0.0,0.0,0.0,0.0,0.0,0.0,0.0,0.0,0.0,0.0,0.0,0.0,0.0,0.0,0.0,0.0,0.0,0.0,0.0,0.0,0.0,0.0,0.0,0.0,0.0,0.0,0.0,0.0,0.0,0.0,0.0,0.0,0.0,0.0,0.0,0.0,0.0,0.0,0.0,0.0,0.0,0.0,0.0,0.0,0.0,0.0,0.0,0.0,0.0,0.0,0.0,0.0,0.0,0.0,0.0,0.0,0.0,0.0,0.0,0.0,0.0,0.0,0.0,0.0,0.0,0.0,0.0,0.0,0.0,0.0,0.0,0.0,0.0,0.0,0.0,0.0,0.0,0.0,0.0,0.0,0.0,0.0,0.0,0.0,0.0,0.0,0.0,0.0,0.0,0.0,0.0,0.0,0.0,0.0,0.0,0.0,0.0,0.0,0.0,0.0,0.0,0.0,0.0,0.0,0.0,0.0,0.0,0.0,0.0,0.0,0.0,0.0,0.0,0.0,0.0,0.0,0.0,0.0,0.0,0.0,0.0,0.0,0.0,0.0,0.0,0.0,0.0,0.0,0.0,0.0,0.0,0.0,0.0,0.0,0.0,0.0,0.0,0.0,0.0,0.0,0.0,0.0,0.0,0.0,0.0,0.0,0.0,0.0,0.0,0.0,0.0,0.0,0.0,0.0,0.0,0.0,0.0,0.0,0.0,0.0,0.0,0.0,0.0,0.0,0.0,0.0,0.0,0.0,0.0,0.0,0.0,0.0,0.0,0.0,0.0,0.0,0.0,0.0,0.0,0.0,0.0,0.0,0.0,0.0,0.0,0.0,0.0,0.0,0.0,0.0,0.0,0.0,0.0,0.0,0.0,0.0,0.0,0.0,0.0,0.0,0.0,0.0,0.0,0.0,0.0,0.0,0.0,0.0,0.0,0.0,0.0,0.0,0.0,0.0,0.0,0.0,0.0,0.0,0.0,0.0,0.0,0.0,0.0,0.0,0.0,0.0,0.0,0.0,0.0,0.0,0.0,0.0,0.0,0.0,0.0,0.0,0.0,0.0,0.0,0.0,0.0,0.0,0.0,0.0,0.0,0.0,0.0,0.0,0.0,0.0,0.0,0.0,0.0,0.0,0.0,0.0,0.0,0.0,0.0,0.0,0.0,0.0,0.0,0.0,0.0,0.0,0.0,0.0,0.0,0.0,0.0,0.0,0.0,0.0,0.0,0.0,0.0,0.0,0.0,0.0,0.0,0.0,0.0,0.0,0.0,0.0,0.0,0.0,0.0,0.0,0.0,0.0,0.0,0.0,0.0,0.0,0.0,0.0,0.0,0.0,0.0,0.0,0.0,0.0,0.0,0.0,0.0,0.0,0.0,0.0,0.0,0.0,0.0,0.0,0.0,0.0,0.0,0.0,0.0,0.0,0.0,0.0,0.0,0.0,0.0,0.0,0.0,0.0,0.0,0.0,0.0,0.0,0.0,0.0,0.0,0.0,0.0,0.0,0.0,0.0,0.0,0.0,0.0,0.0,0.0,0.0,0.0,0.0,0.0,0.0,0.0,0.0,0.0,0.0,0.0,0.0,0.0,1.9208,1.9334,0.0,0.0,0.0,0.0,0.0,0.0,0.0,0.0,0.0,0.0,0.0,0.0,0.0,0.0,0.0,0.0,0.0,0.0,0.0,0.0,0.0,0.0,0.0,0.0,0.0,0.0,0.0,0.0,0.0,0.0,0.0,0.0,0.0,0.0,0.0,0.0,0.0,0.0,0.0,0.0,0.0,0.0,0.0,0.0,0.0,0.0,0.0,0.0,0.0,0.0,0.0,0.0,0.0,0.0,0.0,0.0,0.0,0.0,0.0,0.0,0.0,0.0,0.0,0.0,0.0,0.0,0.0,0.0,0.0,0.0,0.0,0.0,0.0,0.0,0.0,0.0,0.0,0.0,0.0,0.0,0.0,0.0,0.0,0.0,0.0,0.0,0.0,0.0,0.0,0.0,0.0,0.0,0.0,0.0,0.0,0.0,0.0,0.0,0.0,0.0,0.0,0.0,0.0,0.0,0.0,0.0,0.0,0.0,0.0,0.0,0.0,0.0,0.0,0.0,1.9786,1.951,0.0,0.0,0.0,0.0,0.0,0.0,0.0,0.0,0.0,0.0,0.0,0.0,0.0,0.0,0.0,0.0,0.0,0.0,0.0,0.0,0.0,0.0,0.0,0.0,0.0,0.0,0.0,0.0,0.0,0.0,0.0,0.0,0.0,0.0,0.0,0.0,0.0,0.0,0.0,0.0,0.0,0.0,0.0,0.0,0.0,0.0,0.0,0.0,0.0,0.0,0.0,0.0,0.0,0.0,0.0,0.0,0.0,0.0,0.0,0.0,0.0,0.0,0.0,0.0,0.0,0.0,0.0,0.0,0.0,0.0,0.0,0.0,0.0,0.0,0.0,0.0,0.0,0.0,0.0,0.0,0.0,0.0,0.0,0.0,0.0,0.0,0.0,0.0,0.0,0.0,0.0,0.0,0.0,0.0,0.0,0.0,0.0,0.0,0.0,0.0,0.0,0.0,0.0,0.0,0.0,0.0,0.0,0.0,2.2197,2.2695,2.3341,2.2849,2.2347,2.187,2.084,1.9911,1.9108,1.8802,0.0,0.0,0.0,0.0,0.0,0.0,0.0,0.0,0.0,0.0,0.0,0.0,0.0,0.0,0.0,0.0,0.0,0.0,0.0,0.0,0.0,0.0,0.0,0.0,0.0,0.0,0.0,0.0,0.0,0.0,0.0,0.0,0.0,0.0,0.0,0.0,0.0,0.0,0.0,0.0,0.0,0.0,0.0,0.0,0.0,0.0,0.0,0.0,0.0,0.0,0.0,0.0,0.0,0.0,0.0,0.0,0.0,0.0,0.0,0.0,0.0,0.0,0.0,0.0,0.0,0.0,0.0,0.0,0.0,0.0,0.0,0.0,0.0,0.0,0.0,0.0,0.0,0.0,0.0,0.0,0.0,0.0,0.0,0.0,0.0,0.0,1.4785,1.4785,0.0,0.0,0.0,0.0,0.0,0.0,0.0,0.0,0.0,0.0,0.0,0.0,0.0,2.0638,2.2639,2.1005,2.1283,2.3678,2.2868,2.3183,2.4582,2.4029,2.3728,2.3627,2.2975,0.0,1.9633,1.8861,0.0,0.0,0.0,0.0,0.0,0.0,0.0,0.0,0.0,0.0,0.0,0.0,0.0,0.0,0.0,0.0,0.0,0.0,0.0,0.0,0.0,0.0,0.0,0.0,0.0,0.0,0.0,0.0,0.0,0.0,0.0,0.0,0.0,0.0,0.0,0.0,0.0,0.0,0.0,0.0,0.0,0.0,0.0,0.0,0.0,0.0,0.0,0.0,0.0,0.0,0.0,0.0,0.0,0.0,0.0,0.0,0.0,0.0,0.0,0.0,0.0,0.0,0.0,0.0,0.0,0.0,0.0,0.0,0.0,0.0,0.0,0.0,0.0,0.0,0.0,0.0,0.0,0.0,0.0,0.0,0.0,0.0,0.0,0.0,0.0,1.6343,1.6826,1.4992,1.5813,1.6252,0.0,0.0,0.0,0.0,0.0,0.0,0.0,0.0,0.0,2.0153,2.0226,2.0884,2.2213,2.1891,2.2343,2.3536,2.3979,2.4753,2.5705,2.4495,2.4329,2.4812,2.3623,2.2376,2.1088,1.9826,1.9261,1.8999,0.0,0.0,0.0,0.0,1.6602,1.6738,0.0,0.0,0.0,0.0,0.0,0.0,0.0,0.0,0.0,0.0,0.0,0.0,0.0,0.0,0.0,1.9558,0.0,0.0,0.0,0.0,0.0,0.0,0.0,0.0,0.0,0.0,0.0,0.0,0.0,0.0,0.0,0.0,0.0,0.0,0.0,0.0,0.0,0.0,0.0,0.0,0.0,0.0,0.0,0.0,0.0,0.0,0.0,0.0,0.0,0.0,0.0,0.0,0.0,0.0,0.0,0.0,0.0,0.0,0.0,0.0,0.0,0.0,0.0,0.0,0.0,0.0,0.0,0.0,0.0,0.0,0.0,0.0,0.0,0.0,0.0,0.0,0.0,1.78,1.8349,1.5698,1.6817,1.7277,0.0,0.0,0.0,0.0,0.0,0.0,1.8168,1.9509,2.0573,2.1203,2.0913,2.128,2.2308,2.2535,2.3001,2.3762,2.4748,2.5685,2.648,2.5025,2.4853,2.5512,2.4161,2.3312,2.2776,2.0951,2.0204,1.9966,1.8112,1.7461,1.7539,1.7422,1.7519,1.7656,0.0,0.0,0.0,0.0,0.0,0.0,0.0,0.0,0.0,0.0,0.0,0.0,0.0,0.0,2.1359,2.214,1.8882,1.4711,0.0,0.0,0.0,0.0,0.0,0.0,0.0,0.0,0.0,0.0,0.0,0.0,0.0,0.0,0.0,0.0,0.0,0.0,0.0,0.0,0.0,0.0,0.0,0.0,0.0,0.0,0.0,0.0,0.0,0.0,0.0,0.0,0.0,0.0,0.0,0.0,0.0,0.0,0.0,0.0,0.0,0.0,0.0,0.0,0.0,0.0,0.0,0.0,0.0,0.0,0.0,0.0,0.0,0.0,0.0,0.0,0.0,0.0,0.0,0.0,0.0,1.7028,1.8013,0.0,0.0,0.0,0.0,1.7852,1.8262,1.8691,1.9213,1.9951,2.0865,2.1891,2.1748,2.2645,2.4592,2.2857,2.3185,2.5449,2.4665,2.5027,2.6476,2.5797,2.5552,2.5529,2.496,2.4737,2.4526,2.2083,2.1074,2.0834,1.9608,1.9394,1.9707,1.9316,1.8906,1.8574,0.0,0.0,0.0,0.0,0.0,0.0,0.0,0.0,0.0,0.0,0.0,0.0,0.0,1.9383,2.105,2.1233,2.1629,2.0271,1.6484,0.0,0.0,0.0,0.0,0.0,0.0,0.0,0.0,0.0,0.0,0.0,0.0,0.0,0.0,0.0,0.0,0.0,0.0,0.0,0.0,0.0,0.0,0.0,0.0,0.0,0.0,0.0,0.0,0.0,0.0,0.0,0.0,0.0,0.0,0.0,0.0,0.0,0.0,0.0,0.0,0.0,0.0,0.0,0.0,0.0,0.0,0.0,0.0,0.0,0.0,0.0,0.0,0.0,0.0,0.0,0.0,0.0,0.0,0.0,0.0,2.0129,2.0861,0.0,1.9719,1.9021,1.8672,1.8828,1.9219,1.9648,2.0078,2.0956,2.167,2.2269,2.2486,2.2932,2.3739,2.3739,2.3821,2.3985,2.4388,2.4893,2.5378,2.4386,2.4388,2.5037,2.4137,2.3739,2.3614,2.2815,2.2271,2.1977,2.0635,2.0195,2.0312,2.0156,2.0195,2.0273,0.0,0.0,0.0,0.0,0.0,0.0,0.0,0.0,0.0,0.0,0.0,1.4787,1.5855,1.8401,2.0225,2.067,2.2746,2.2988,2.0588,0.0,0.0,0.0,0.0,0.0,0.0,0.0,0.0,0.0,0.0,0.0,0.0,0.0,0.0,0.0,0.0,0.0,0.0,0.0,0.0,0.0,0.0,0.0,1.6602,0.0,0.0,0.0,0.0,0.0,0.0,0.0,0.0,0.0,0.0,0.0,0.0,0.0,0.0,0.0,0.0,0.0,0.0,0.0,0.0,0.0,0.0,0.0,0.0,0.0,0.0,0.0,0.0,0.0,0.0,0.0,0.0,0.0,0.0,0.0,2.3168,2.3114,2.3397,2.3201,2.2136,2.1008,2.043,2.0566,2.0977,2.1406,2.1836,2.2285,2.2656,2.293,2.3066,2.3144,2.3144,2.3887,2.3887,2.3144,2.3887,2.4211,2.4211,2.3474,2.356,2.4211,2.3474,2.3144,2.3144,2.3144,2.2958,2.2757,2.1689,2.123,2.123,2.123,2.1328,2.1387,0.0,0.0,0.0,0.0,0.0,0.0,0.0,0.0,0.0,0.0,1.2467,1.3593,1.5107,1.7037,1.8932,2.0649,2.2123,2.2614,2.1728,2.3481,0.0,0.0,0.0,0.0,0.0,0.0,0.0,0.0,0.0,0.0,0.0,0.0,0.0,0.0,0.0,0.0,0.0,0.0,0.0,0.0,0.0,0.0,1.7852,0.0,0.0,0.0,0.0,0.0,0.0,0.0,0.0,0.0,0.0,0.0,0.0,0.0,0.0,0.0,0.0,0.0,0.0,0.0,0.0,0.0,0.0,0.0,0.0,0.0,0.0,0.0,0.0,0.0,0.0,0.0,0.0,0.0,2.0909,2.3707,2.5553,2.5602,2.5242,2.4837,2.4269,2.3186,2.2734,2.3144,2.3574,2.3984,2.4394,2.4023,2.3809,2.3789,2.3379,2.3144,2.3144,2.3144,2.3144,2.3144,2.3144,2.3144,2.3144,2.3144,2.3144,2.3144,2.3144,2.3144,2.3144,2.3144,2.3144,2.3105,2.2695,2.2539,2.2539,2.2539,2.2266,2.1855,0.0,0.0,0.0,0.0,0.0,0.0,0.0,0.0,0.0,0.0,1.1831,1.3061,1.4228,1.5945,1.7454,1.8624,1.9747,2.1126,2.2804,0.0,0.0,0.0,0.0,0.0,0.0,0.0,0.0,0.0,0.0,0.0,0.0,0.0,0.0,0.0,0.0,0.0,0.0,0.0,0.0,0.0,0.0,0.0,1.834,0.0,0.0,0.0,0.0,0.0,0.0,0.0,0.0,0.0,0.0,0.0,0.0,0.0,0.0,0.0,0.0,0.0,0.0,0.0,0.0,0.0,0.0,0.0,0.0,0.0,0.0,0.0,0.0,0.0,0.0,0.0,0.0,2.1165,2.2425,2.3423,2.4681,2.6314,2.6078,2.5743,2.5594,2.4533,2.3945,2.4062,2.418,2.4297,2.4414,2.4316,2.4102,2.3809,2.3672,2.3457,2.3144,2.3144,2.3144,2.3144,2.3144,2.3144,2.3144,2.3144,2.3144,2.3144,2.3144,2.3144,2.3144,2.3144,2.3144,2.3125,2.3008,2.2969,2.2969,2.2969,2.2891,2.2734,0.0,0.0,0.0,0.0,0.0,0.0,0.0,0.0,0.0,0.0,1.0746,1.1624,1.2414,1.3882,1.5061,1.5604,1.7585,1.9544,2.1227,0.0,0.0,0.0,0.0,0.0,0.0,0.0,0.0,0.0,0.0,0.0,0.0,0.0,0.0,0.0,0.0,0.0,0.0,0.0,0.0,0.0,0.0,0.0,1.9863,1.8652,1.7969,1.7637,1.7266,1.709,1.6934,1.6406,0.0,0.0,0.0,0.0,0.0,0.0,0.0,0.0,0.0,0.0,0.0,0.0,0.0,0.0,0.0,0.0,0.0,0.0,0.0,0.0,0.0,0.0,0.0,0.0,1.9238,2.159,2.2633,2.4032,2.5626,2.7389,2.6836,2.648,2.6668,2.5598,2.4961,2.4961,2.4961,2.4961,2.4961,2.4785,2.4492,2.4062,2.3887,2.3574,2.3144,2.3144,2.3144,2.3144,2.3144,2.3144,2.3144,2.3144,2.3144,2.3144,2.3144,2.3144,2.3144,2.3144,2.3144,2.3144,0.0,0.0,0.0,0.0,2.3144,2.3086,0.0,0.0,0.0,0.0,0.0,0.0,0.0,0.0,0.0,0.0,0.0,0.9823,1.0281,1.1516,1.2368,1.2456,1.5626,1.7949,0.0,0.0,0.0,0.0,0.0,0.0,0.0,0.0,0.0,0.0,0.0,0.0,0.0,0.0,0.0,0.0,0.0,0.0,0.0,0.0,0.0,0.0,0.0,0.0,2.1719,2.0117,1.9668,1.9824,1.9062,1.834,1.7734,1.7637,0.0,0.0,0.0,0.0,0.0,0.0,0.0,0.0,0.0,0.0,0.0,0.0,0.0,0.0,0.0,0.0,0.0,0.0,0.0,0.0,0.0,0.0,0.0,0.0,1.8939,2.0624,2.2272,2.4867,2.702,2.8118,2.7317,2.6765,2.7369,2.638,2.5742,2.5742,2.5742,2.5742,2.5742,2.5352,0.0,0.0,0.0,2.3652,2.3223,2.3164,2.3144,2.3144,2.3184,2.3184,2.3144,2.3184,2.3184,2.3144,2.3144,2.3144,2.3144,2.3144,2.3144,2.3144,2.3144,2.3144,2.3144,2.3144,2.3144,2.3086,0.0,0.0,0.0,0.0,0.0,0.0,0.0,0.0,0.0,0.8886,0.9173,0.9531,0.9943,1.0665,1.1408,1.211,1.4132,1.6768,0.0,0.0,0.0,0.0,0.0,0.0,0.0,0.0,0.0,0.0,0.0,0.0,0.0,0.0,0.0,0.0,0.0,0.0,0.0,0.0,0.0,0.0,0.0,2.3365,2.1816,2.1113,2.0469,1.9883,1.9727,1.9785,1.9844,1.916,1.9258,1.9512,1.8477,0.0,0.0,0.0,0.0,0.0,0.0,0.0,0.0,0.0,0.0,0.0,0.0,0.0,0.0,0.0,0.0,0.0,0.0,0.0,0.0,1.682,1.8894,2.0925,2.2601,2.4017,2.5118,2.6164,2.6068,2.5915,2.611,2.582,2.5742,2.5742,2.5742,2.5742,2.5742,2.5664,2.541,2.4961,2.4512,2.4082,2.3672,2.332,2.3144,2.3144,2.3496,0.0,2.3144,2.3496,2.3477,2.3144,2.3144,2.3144,2.3144,2.3144,2.3144,2.3144,2.3144,2.3144,2.3144,2.3144,2.3144,2.3125,0.0,0.0,0.0,0.0,0.0,0.0,0.0,0.0,0.0,0.0,0.8471,0.8655,0.8866,1.0023,1.1031,1.1556,1.4187,0.0,0.0,0.0,0.0,0.0,0.0,0.0,0.0,0.0,0.0,0.0,0.0,0.0,0.0,0.0,0.0,0.0,0.0,0.0,0.0,0.0,0.0,0.0,0.0,2.3388,2.248,2.2266,2.1777,2.1211,2.1211,2.1074,2.084,2.041,2.0254,2.0137,1.9473,1.8691,1.7891,0.0,0.0,0.0,0.0,0.0,0.0,0.0,0.0,0.0,0.0,0.0,0.0,0.0,0.0,1.4539,0.0,0.0,1.6204,1.7074,1.8799,2.0411,2.155,2.3219,2.473,2.5877,2.625,2.6289,2.6094,2.6055,2.5977,2.5762,2.5742,2.5742,2.5742,2.5742,2.5527,2.5078,2.4863,2.4531,2.4102,2.3887,2.3769,2.3789,2.4004,2.3984,2.3769,2.3789,2.3672,2.3457,2.3242,2.3144,2.3164,2.3379,2.3457,2.3496,2.3691,2.3516,2.3144,2.3144,2.3144,2.3144,0.0,0.0,0.0,0.0,0.0,0.0,0.0,0.0,0.0,0.0,0.0,0.7448,0.7641,0.9242,1.0691,0.0,0.0,0.0,0.0,0.0,0.0,0.0,0.0,0.0,0.0,0.0,0.0,0.0,0.0,0.0,0.0,0.0,0.0,0.0,0.0,0.0,0.0,0.0,0.0,0.0,2.3714,2.3299,2.3057,2.2862,2.265,2.2617,2.2539,2.1953,2.125,2.1426,2.0898,2.0195,2.0371,1.9824,1.8945,1.793,1.7754,0.0,0.0,0.0,0.0,0.0,0.0,0.0,0.0,0.0,1.4186,1.5198,1.5467,1.5619,1.5967,1.6139,1.6567,1.7515,1.8654,1.9699,2.0431,2.2323,2.4168,2.556,2.6492,2.6875,2.6543,2.6504,2.6328,2.5898,2.5859,2.582,2.5742,2.5742,2.5566,2.5215,2.5117,2.4902,2.4551,2.4453,2.4414,2.4414,2.4512,2.4492,2.4414,2.416,2.3984,2.3887,2.3535,2.3379,2.3418,2.3769,2.3906,2.3945,2.4277,2.3984,2.3379,2.3379,2.3379,2.3379,0.0,0.0,0.0,0.0,0.0,0.0,0.0,0.0,0.0,0.0,0.0,0.0,0.0,0.0,0.0,0.0,0.0,0.0,0.0,0.0,0.0,0.0,0.0,0.0,0.0,0.0,0.0,0.0,0.0,0.0,0.0,0.0,0.0,0.0,0.0,0.0,0.0,0.0,2.4211,2.3387,2.4211,2.3953,2.295,2.1943,2.2189,2.3027,2.2656,2.1953,2.1348,2.2109,2.1797,2.1211,2.1973,2.1641,2.0625,1.8984,0.0,1.7246,1.6189,1.6263,1.6857,1.7812,1.6945,1.6578,0.0,0.0,1.7007,1.7206,1.7596,1.7663,1.6765,1.7248,1.7809,1.7943,1.8306,1.9043,2.0273,2.1042,2.1838,2.2928,2.5374,2.6992,2.6953,2.6953,2.6777,2.6348,2.6309,2.6152,2.5762,2.5742,2.5723,2.5664,2.5273,2.5039,2.5,2.4609,2.4414,2.4414,2.4805,2.4785,2.4434,2.4766,2.4707,2.4336,2.4297,2.4277,2.4277,2.4316,2.4355,2.4355,2.4394,2.4355,2.4277,2.4277,2.4277,2.4277,0.0,0.0,0.0,0.0,0.0,0.0,0.0,0.0,0.0,0.0,0.0,0.0,0.0,0.0,0.0,0.0,0.0,0.0,0.0,0.0,0.0,0.0,0.0,0.0,0.0,0.0,0.0,0.0,0.0,0.0,0.0,0.0,0.0,0.0,0.0,0.0,0.0,2.3627,2.356,2.3144,2.3627,2.356,2.3018,2.2312,2.1741,2.1221,2.0866,2.078,0.0,0.0,2.0442,2.0819,2.0604,2.0541,2.0176,1.8711,1.8379,0.0,1.8047,1.7891,0.0,0.0,1.7617,1.7627,1.8129,1.7432,1.6893,1.7456,1.7886,1.8094,1.8037,1.829,1.8597,0.0,1.8771,1.9023,1.9737,2.0419,2.1076,2.1479,2.3385,2.456,2.456,2.5087,2.5293,2.5125,2.5618,2.6035,2.6113,2.6113,2.623,2.6484,2.6289,2.6211,2.6211,2.5781,2.5684,2.5918,2.5605,2.5488,2.5566,2.5488,2.5352,2.5176,2.4902,2.4941,2.5195,2.5449,2.5566,2.5586,2.584,2.5781,2.5469,2.4707,2.4414,2.4414,0.0,0.0,0.0,0.0,0.0,0.0,0.0,0.0,0.0,0.0,0.0,0.0,0.0,0.0,0.0,0.0,0.0,0.0,0.0,0.0,0.0,0.0,0.0,0.0,0.0,0.0,0.0,0.0,0.0,0.0,0.0,0.0,0.0,0.0,0.0,2.1943,2.3144,2.3144,2.3144,2.3144,2.3144,2.3066,2.2823,2.2005,2.0926,1.9949,1.9611,1.9307,0.0,0.0,1.8695,1.9278,1.8988,1.9297,1.9531,1.8496,1.8535,1.8906,1.8789,0.0,0.0,1.8724,1.878,1.8677,1.8224,1.74,1.6981,1.7782,1.8116,1.8397,1.8838,1.8985,1.9092,1.9225,1.9132,1.9092,1.9225,1.978,2.0012,1.9823,2.0681,2.1286,2.1274,2.2908,2.4012,2.4338,2.5114,2.5814,2.6543,2.6562,2.6699,2.7012,2.7012,2.7012,2.7012,2.6719,2.6719,2.7012,2.6387,2.625,2.6543,2.623,2.6094,2.6074,2.5742,2.5781,2.6113,2.6426,2.6562,2.6602,2.6894,2.6836,2.6445,2.5488,2.498,2.4785,0.0,0.0,0.0,0.0,0.0,0.0,0.0,0.0,0.0,0.0,0.0,0.0,0.0,0.0,0.0,0.0,0.0,0.0,0.0,0.0,0.0,0.0,0.0,0.0,0.0,0.0,0.0,0.0,0.0,0.0,0.0,0.0,0.0,2.1391,2.1302,2.1943,2.3144,2.3144,2.3144,2.3144,2.3144,2.2891,2.2272,2.0311,1.9641,1.9885,1.9866,0.0,0.0,0.0,1.6912,1.6474,1.7734,1.8711,0.0,1.875,1.834,0.0,0.0,0.0,2.0293,2.1909,2.098,2.0069,2.1587,1.9835,1.8143,1.8758,1.8891,1.8905,1.8918,1.9158,1.9265,1.8985,1.9172,1.9252,1.8971,1.8677,1.8373,1.7781,1.7459,1.7509,0.0,2.0847,2.3474,2.4855,2.5045,2.5581,2.689,2.6992,2.7012,2.7012,2.7012,2.7012,2.7012,2.7012,2.7012,2.7012,2.6992,2.6973,2.6992,2.6973,2.6973,2.6973,2.6973,2.6973,2.6973,2.6992,2.6992,2.6992,2.7012,2.7012,2.6992,2.6953,2.6406,2.5703,0.0,0.0,0.0,0.0,0.0,0.0,0.0,0.0,0.0,0.0,0.0,0.0,0.0,0.0,0.0,0.0,0.0,0.0,0.0,0.0,0.0,0.0,0.0,0.0,0.0,0.0,0.0,0.0,0.0,0.0,0.0,1.8065,1.8459,1.9847,1.9847,2.0466,2.1745,2.2659,2.3144,2.3018,2.2013,2.1845,2.189,1.9574,1.8336,1.7849,0.0,0.0,0.0,0.0,0.0,0.0,1.5308,0.0,0.0,1.7949,1.8125,1.8359,0.0,0.0,2.2129,2.2721,2.2195,2.1506,2.1479,2.0183,1.8918,1.8918,1.8611,1.8277,1.8076,1.7956,1.7996,1.829,1.8584,1.8824,1.8905,1.8838,1.841,1.7408,1.7569,0.0,0.0,0.0,0.0,2.1937,2.3566,2.4918,2.5885,2.6902,2.7578,2.7851,2.7871,2.7871,2.7871,2.7578,2.7598,2.7851,2.7578,2.7441,2.7441,2.7148,2.7324,2.7851,2.7559,2.7598,2.7871,2.7871,2.7871,2.7871,2.7871,2.7695,2.7441,2.7441,2.709,2.6543,0.0,0.0,0.0,0.0,0.0,0.0,0.0,0.0,0.0,0.0,0.0,0.0,0.0,0.0,0.0,0.0,0.0,0.0,0.0,0.0,0.0,0.0,0.0,0.0,0.0,0.0,0.0,0.0,1.6105,1.646,1.6381,1.5885,1.6435,1.7851,1.7895,1.8631,1.984,2.0789,2.1175,2.1142,1.9934,1.9677,1.9888,1.8082,1.6758,0.0,0.0,0.0,0.0,0.0,0.0,0.0,0.0,1.4303,1.5429,1.6369,1.7275,1.8282,2.0126,2.1405,2.2351,2.2898,2.2419,2.1869,2.1571,2.033,1.9118,1.8824,1.829,1.7862,1.7846,1.7327,1.7198,1.7998,1.7928,1.8036,1.8531,1.8517,1.8196,1.7542,1.7716,1.7702,0.0,0.0,0.0,2.0446,2.2095,2.3756,2.5505,2.6542,2.7458,2.8281,2.8301,2.8301,2.8301,2.8027,2.8027,2.8281,2.8027,2.7891,2.7871,2.7598,2.7773,2.8281,2.8008,2.8047,2.8301,2.8301,2.8301,2.8301,2.8301,2.8125,2.7891,2.7891,2.7715,2.7383,0.0,0.0,0.0,0.0,0.0,0.0,0.0,0.0,0.0,0.0,0.0,0.0,0.0,0.0,0.0,0.0,0.0,0.0,0.0,0.0,0.0,0.0,0.0,0.0,0.0,0.0,0.0,1.3338,1.3671,1.3418,1.2795,1.3267,1.4167,1.5367,1.567,1.6377,1.7523,1.762,1.77,1.7712,1.7024,1.6736,1.6624,1.5805,0.0,0.0,0.0,0.0,0.0,0.0,0.0,0.0,0.0,0.0,1.4709,1.4514,1.6021,1.7819,1.8386,1.9684,2.1071,2.2657,2.2009,2.116,2.1769,2.0301,1.8811,1.8464,1.7903,1.7599,0.0,0.0,1.6676,1.8007,1.7413,1.7061,1.7969,1.7862,1.7782,0.0,0.0,0.0,0.0,0.0,0.0,2.055,2.0659,2.2227,2.57,2.599,2.6663,2.8213,2.8213,2.8233,2.8359,2.834,2.832,2.832,2.8301,2.8301,2.8301,2.8301,2.8301,2.8301,2.8301,2.8301,2.8301,2.8301,2.8301,2.8301,2.8301,2.8301,2.8301,2.8301,2.8301,2.8184,0.0,0.0,0.0,0.0,0.0,0.0,0.0,0.0,0.0,0.0,0.0,0.0,0.0,0.0,0.0,0.0,0.0,0.0,0.0,0.0,0.0,0.0,0.0,0.0,0.0,0.0,0.0,0.0,0.0,1.2079,1.2163,1.2024,1.2249,0.0,1.3842,1.4455,1.4832,1.5965,1.6471,1.635,0.0,1.4924,1.5359,0.0,0.0,0.0,0.0,0.0,0.0,0.0,0.0,0.0,0.0,0.0,1.5578,1.6653,1.7905,1.9297,2.0621,2.1908,2.301,2.348,2.2464,2.1436,2.1361,1.9948,1.833,1.7355,1.6513,1.5859,0.0,0.0,0.0,1.6908,1.7279,0.0,1.8571,1.9011,0.0,1.845,0.0,1.9092,1.8731,1.8905,0.0,0.0,2.0815,2.185,2.2933,2.4351,2.5656,2.7087,2.6958,2.7678,2.9238,2.8926,2.8769,2.875,2.8437,2.8301,2.8301,2.8301,2.8301,2.8301,2.8301,2.8301,2.8301,2.8301,2.8301,2.8301,2.8301,2.8301,2.8301,2.8301,2.8301,2.8262,0.0,0.0,0.0,0.0,0.0,0.0,0.0,0.0,0.0,0.0,0.0,0.0,0.0,0.0,0.0,0.0,0.0,0.0,0.0,0.0,0.0,0.0,0.0,0.0,0.0,0.0,0.0,0.0,0.0,0.0,0.0,1.0808,1.0942,1.1169,1.1959,1.235,1.2432,0.0,0.0,0.0,0.0,0.0,0.0,0.0,0.0,0.0,0.0,0.0,0.0,0.0,0.0,1.3259,1.3634,1.4511,1.5595,1.6889,0.0,1.9182,2.045,2.1489,2.218,2.2432,2.1583,2.0473,2.0017,1.8822,1.7368,1.6179,1.5337,0.0,0.0,0.0,0.0,0.0,0.0,0.0,1.8557,1.9132,1.9372,0.0,1.9693,0.0,1.9533,1.9653,1.9867,0.0,2.0586,2.1264,2.2171,2.3176,2.4363,2.5777,2.6459,2.7715,2.957,2.9336,2.9199,2.9199,2.8965,2.8848,2.8848,2.8652,2.8574,2.8555,2.8379,2.8301,2.8301,2.8301,2.8301,2.8301,2.8301,2.8301,2.8301,2.8301,2.8301,2.8301,0.0,0.0,0.0,0.0,0.0,0.0,0.0,0.0,0.0,0.0,0.0,0.0,0.0,0.0,0.0,0.0,0.0,0.0,0.0,0.0,0.0,0.0,0.0,0.0,0.0,0.0,0.0,0.0,0.0,0.0,0.0,0.0,0.0,0.0,0.0,0.0,0.0,0.0,0.0,0.0,0.0,0.0,0.0,0.0,0.0,0.0,0.0,0.0,0.0,0.0,1.2912,1.3606,1.4129,1.4776,1.5538,1.666,1.7582,1.841,1.9252,1.988,2.0334,2.0521,1.9933,1.9132,1.8464,1.7422,1.6246,1.5044,0.0,1.42,1.4838,1.4223,1.4282,1.6199,0.0,1.6553,1.8303,1.8824,1.9332,2.0134,2.0307,2.0347,2.0347,2.0347,2.0454,2.0722,2.0267,2.0653,2.2184,2.2348,2.2931,2.4392,2.6308,2.7952,2.9312,2.9536,2.9648,2.9648,2.959,2.9551,2.9473,2.9101,2.8777,2.8481,2.8114,2.7853,2.7726,2.7726,2.7726,2.7726,2.7726,2.7726,2.7726,2.7726,2.7853,2.8067,0.0,0.0,0.0,0.0,0.0,0.0,0.0,0.0,0.0,0.0,0.5037,0.4131,0.0,0.0,0.0,0.0,0.0,0.0,0.0,0.0,0.0,0.0,0.0,0.0,0.0,0.0,0.0,0.0,0.0,0.0,0.0,0.0,0.0,0.0,0.0,0.0,0.0,0.0,0.0,0.0,0.0,0.0,0.0,0.0,0.0,0.0,0.0,0.0,0.0,0.0,1.3812,1.4791,1.5311,1.6259,1.7315,1.8263,1.8824,1.9279,1.9907,2.0334,2.0494,2.0054,1.9466,1.8718,1.7622,1.666,0.0,0.0,0.0,1.3346,1.3256,1.3466,0.0,1.5722,0.0,0.0,0.0,0.0,1.98,0.0,0.0,0.0,0.0,0.0,0.0,0.0,2.0935,2.0926,2.0971,2.1189,2.1934,2.3112,2.6491,2.8183,2.8089,2.9374,3.0098,3.0078,2.9726,2.9375,2.9023,2.8945,2.8038,2.6591,2.6518,2.5717,2.4599,2.4599,2.4599,2.4599,2.4599,2.4599,2.4599,2.4599,2.5388,2.6499,0.0,0.0,0.0,0.0,0.0,0.0,0.0,0.5706,0.551,0.578,0.4831,0.4323,0.4976,0.4999,0.0,0.0,0.0,0.0,0.0,0.0,0.0,0.0,0.0,0.0,0.0,0.0,0.0,0.0,0.0,0.0,0.0,0.0,0.0,0.0,0.0,0.0,0.0,0.0,0.0,0.0,0.0,0.0,0.0,0.0,0.0,0.0,0.0,0.0,0.0,0.0,1.3507,1.4955,1.6143,1.7158,1.7981,1.9092,1.9479,1.976,2.0494,2.0788,2.0802,2.0361,1.9586,1.8531,1.7034,0.0,0.0,0.0,0.0,1.2692,1.2545,0.0,0.0,0.0,0.0,0.0,0.0,0.0,0.0,0.0,0.0,0.0,0.0,0.0,0.0,2.1109,2.1109,2.1042,2.0909,2.1029,2.1783,2.3227,2.4944,2.6161,2.6815,2.8491,2.9212,2.9329,2.9736,2.9922,2.9922,2.8539,2.753,2.6659,2.5663,2.4777,2.4086,2.3904,2.3937,2.4086,2.3904,2.3822,2.3822,2.3822,2.4267,2.4931,0.0,0.0,0.0,0.0,0.0,0.0,0.0,0.5321,0.5302,0.5176,0.486,0.493,0.5629,0.5492,0.5218,0.0,0.0,0.0,0.0,0.0,0.0,0.0,0.0,0.0,0.0,0.0,0.0,0.6362,0.0,0.0,0.0,0.0,0.0,0.0,0.0,0.0,0.0,0.0,0.0,0.0,0.0,0.0,0.0,0.0,0.0,0.0,0.0,0.0,0.0,0.0,1.2839,1.4335,1.5914,1.7042,1.8018,1.9021,1.9508,1.9893,2.0775,2.1069,2.1029,2.0668,1.9693,1.837,1.658,1.5271,0.0,0.0,0.0,1.2305,1.2305,0.0,0.0,0.0,0.0,0.0,0.0,0.0,0.0,0.0,0.0,0.0,0.0,0.0,0.0,2.1601,2.1601,2.1475,2.1109,2.1109,2.1727,2.3076,2.345,2.4178,2.5497,2.7073,2.8051,2.8408,2.9408,3.0123,3.0723,2.8362,2.7043,2.6636,2.4696,2.3646,2.332,2.3051,2.3099,2.3304,2.2956,2.283,2.283,2.283,2.3039,2.3375,0.0,0.0,0.0,0.0,0.0,0.0,0.0,0.5006,0.5021,0.5799,0.6067,0.6285,0.645,0.5336,0.5062,0.0,0.0,0.0,0.0,0.0,0.0,0.0,0.0,0.0,0.0,0.0,0.0,0.5592,0.5538,0.0,0.0,0.0,0.0,0.0,0.0,0.0,0.0,0.0,0.0,0.0,0.0,0.0,0.0,0.0,0.0,0.0,0.0,0.0,0.0,0.0,0.0,1.2696,1.3585,1.5465,1.7316,1.7751,0.0,0.0,2.0481,2.0909,2.0975,2.0414,1.9399,1.8063,1.6273,0.0,0.0,0.0,1.2305,1.2305,1.2305,0.0,0.0,0.0,0.0,1.519,0.0,0.0,0.0,0.0,0.0,0.0,0.0,0.0,2.1727,2.3201,2.3325,2.2716,2.1235,2.1109,2.1109,2.1362,2.2841,2.3698,2.3822,2.5375,2.6953,2.8426,2.8509,2.9151,3.0254,2.8529,2.6689,2.4661,2.3231,2.1683,2.026,2.0233,2.0233,2.0233,1.9932,1.9822,1.9822,1.9822,2.0702,2.1813,0.0,0.0,0.0,0.0,0.0,0.0,0.4316,0.4608,0.4824,0.4792,0.5405,0.6051,0.6524,0.61,0.5991,0.6534,0.0,0.0,0.0,0.0,0.0,0.0,0.0,0.0,0.0,0.0,0.0,0.6145,0.6145,0.0,0.0,0.0,0.0,0.0,0.0,0.8804,0.0,0.0,0.0,0.0,0.0,0.0,0.0,0.0,0.0,0.0,0.0,0.0,0.0,0.0,0.0,0.0,1.1817,1.303,0.0,0.0,1.7623,1.8596,2.0079,2.0748,2.0962,2.0374,1.9212,1.7782,1.6192,0.0,0.0,1.2518,1.2305,1.2305,1.2305,1.2398,0.0,0.0,0.0,0.0,0.0,0.0,0.0,0.0,0.0,0.0,0.0,0.0,2.1362,2.209,2.209,2.1853,2.1109,2.1109,2.1109,2.1109,2.1727,2.209,2.209,2.3683,2.4901,2.5513,2.6251,2.6883,2.7564,2.5675,2.4356,2.3613,2.1915,2.0763,2.004,1.9679,1.9639,1.9773,1.9479,1.9372,1.9372,1.9372,1.9809,2.0256,0.0,0.0,0.0,0.0,0.0,0.422,0.3663,0.4345,0.4759,0.4363,0.5213,0.6091,0.6858,0.7128,0.7235,0.7235,0.7074,0.0,0.0,0.0,0.0,0.0,0.0,0.0,0.0,0.0,0.7128,0.6912,0.6912,0.7182,0.0,0.0,0.8103,0.8804,0.0,0.0,0.0,0.0,0.0,0.0,0.0,0.0,0.0,0.0,0.0,0.0,0.0,0.0,0.0,0.0,0.0,0.0,0.0,0.0,0.0,0.0,1.6338,1.7516,1.9047,2.0067,2.0601,2.0107,1.8865,1.7395,0.0,0.0,0.0,1.2465,1.2305,1.2305,1.2305,1.2305,1.2465,1.2986,0.0,1.344,0.0,0.0,0.0,0.0,0.0,0.0,0.0,2.145,2.1601,2.1109,2.1601,2.1601,2.1109,2.1109,2.1109,2.1109,2.1109,2.1109,2.1109,2.2215,2.3076,2.3574,2.4311,2.5092,2.5819,2.39,2.2961,2.2782,2.1188,2.0388,2.0201,1.9786,1.98,2.0027,1.9639,1.9492,1.9492,1.9492,1.9439,1.9372,0.0,0.0,0.0,0.0,0.0,0.0,0.3663,0.4345,0.4956,0.5095,0.5944,0.6858,0.761,0.8315,0.8752,0.8752,0.8103,0.0,0.0,0.0,0.0,0.0,0.0,0.0,0.0,0.0,0.8421,0.7664,0.7664,0.7664,0.7717,0.7717,0.8103,0.8804,0.0,0.0,0.0,0.0,0.0,0.0,0.0,0.0,0.0,0.0,0.0,0.0,0.0,0.0,0.0,0.0,0.0,0.0,0.0,0.0,0.0,0.0,1.4501,1.6523,1.7384,1.8691,1.9746,1.9452,1.8263,1.6847,0.0,0.0,0.0,1.2425,1.2305,1.2305,1.2305,1.2305,1.2398,1.2782,1.3013,0.0,0.0,0.0,0.0,0.0,0.0,0.0,0.0,2.2047,2.2827,2.1235,2.2591,2.2841,2.1235,2.1109,2.1109,2.1109,2.1109,2.1109,2.1109,2.1109,2.1978,2.3574,2.323,2.4034,2.5575,2.3913,2.2826,2.2124,2.1437,2.0775,2.0227,2.0227,2.0401,2.0615,2.0027,1.98,1.98,1.98,1.9613,1.9372,0.0,0.0,0.0,0.0,0.0,0.0,0.0,0.5061,0.5424,0.5663,0.6492,0.7216,0.7652,0.8368,0.8804,0.8804,0.8593,0.0,0.0,0.0,0.0,0.0,0.0,0.0,0.0,0.0,0.8699,0.8421,0.8421,0.8421,0.8421,0.8421,0.8593,0.8804,0.8804,0.0,0.0,0.0,0.0,0.0,0.0,0.0,0.0,0.0,0.0,0.0,0.0,0.0,0.0,0.0,0.0,0.0,0.0,0.0,0.0,0.0,0.0,0.0,1.5518,1.6433,1.7021,1.6727,1.5992,1.515,1.4376,0.0,0.0,0.0,0.0,1.2305,1.2305,1.2305,1.2532,1.324,1.344,0.0,0.0,0.0,0.0,0.0,0.0,0.0,0.0,0.0,2.1727,2.1109,2.1601,2.1601,2.1109,2.1109,2.1109,2.1109,2.1109,2.1015,2.0815,2.0815,2.0956,2.123,2.1133,2.1441,2.191,2.132,2.0967,2.0787,2.0415,2.0227,2.0214,2.0013,2.0107,2.0361,2.0174,1.9973,1.9826,2.0027,1.9786,1.9399,0.0,0.0,0.0,0.0,0.0,0.0,0.0,0.5589,0.6001,0.6379,0.6928,0.7499,0.8078,0.854,0.8804,0.8804,0.8804,0.0,0.0,0.0,0.0,0.0,0.0,0.0,0.0,0.8804,0.8804,0.8804,0.8804,0.8804,0.8804,0.8804,0.8804,0.8804,0.8804,0.0,0.0,0.0,0.0,0.0,0.0,0.0,0.9753,0.0,0.0,0.0,0.0,0.0,0.0,0.0,0.0,0.0,0.0,0.0,0.0,0.0,1.1284,0.0,0.0,1.4692,1.5297,1.511,1.4549,0.0,0.0,0.0,0.0,0.0,0.0,0.0,1.2305,1.2305,1.2518,1.32,1.34,0.0,0.0,0.0,0.0,0.0,0.0,0.0,0.0,2.0922,2.1109,2.1109,2.1109,2.1109,2.1109,2.1109,2.1109,2.1109,2.1109,2.0962,2.0681,2.0681,2.0535,2.0227,2.012,2.0067,2.0067,2.0067,2.0013,1.9907,1.9947,2.0067,0.0,2.004,2.0201,2.0548,2.0321,2.012,1.9987,2.0174,1.9867,1.9412,0.0,0.0,0.0,0.0,0.0,0.0,0.0,0.6013,0.6625,0.711,0.7264,0.7731,0.8672,0.8804,0.8804,0.8804,0.0,0.0,0.0,0.0,0.0,0.0,0.0,0.0,0.0,0.8804,0.8804,0.8804,0.8804,0.8804,0.8804,0.8804,0.8804,0.8804,0.8804,0.0,0.0,0.0,0.0,0.0,0.0,0.0,0.0,0.0,0.0,0.0,0.0,0.0,0.0,0.0,0.0,0.0,0.0,0.0,0.0,0.0,0.0,0.0,0.0,0.0,0.0,0.0,0.0,0.0,0.0,0.0,0.0,0.0,0.0,0.0,0.0,1.2331,1.2452,1.2862,1.3106,0.0,0.0,0.0,0.0,0.0,0.0,0.0,1.984,2.0601,2.1109,2.1109,2.1109,2.1109,2.1109,2.1109,2.1096,2.1082,2.1082,2.0935,2.0641,2.0628,2.0468,2.0174,1.9893,1.9773,1.9773,1.9773,1.9626,1.9399,1.9933,2.0187,2.0201,2.0227,2.0548,2.0989,2.0468,2.0241,2.0201,2.0227,1.9867,1.9412,0.0,0.0,0.0,0.0,0.0,0.0,0.0,0.0,0.0,0.0,0.7749,0.8032,0.8751,0.8804,0.8804,0.0,0.0,0.0,0.0,0.0,0.0,0.0,0.0,0.0,0.0,0.8804,0.8804,0.8804,0.8804,0.8804,0.8804,0.8804,0.8804,0.8804,0.8804,0.0,0.0,0.0,0.0,0.0,0.0,0.0,0.0,0.0,0.0,0.0,1.0618,1.0618,0.0,0.0,0.0,0.0,0.0,0.0,0.0,0.0,1.0555,1.0567,1.0978,0.0,1.1175,1.1476,1.1503,0.0,0.0,0.0,0.0,0.0,0.0,0.0,0.0,0.0,0.0,0.0,0.0,0.0,0.0,0.0,0.0,0.0,0.0,2.0628,2.0174,2.0722,2.1109,2.1109,2.1109,2.1109,2.1109,2.1109,2.1002,2.0788,2.0775,2.0641,2.0334,2.012,1.9853,1.9573,1.9506,1.9466,1.9466,1.9466,1.9439,1.9372,1.9506,1.9693,1.992,2.0147,2.0307,2.0454,2.0535,2.0294,1.9933,2.0147,1.9867,1.9412,0.0,0.0,0.0,0.0,0.0,0.0,0.0,0.0,0.0,0.0,0.0,0.0,0.0,0.0,0.0,0.0,0.0,0.0,0.0,0.0,0.0,0.0,0.0,0.0,0.8804,0.8804,0.8804,0.8804,0.8804,0.8804,0.8804,0.8804,0.8804,0.8804,0.8804,0.0,0.0,0.0,0.0,0.0,0.9566,0.0,0.0,0.0,0.0,0.0,1.0618,1.0618,0.0,1.0415,1.0478,1.0555,0.0,0.0,0.0,0.0,1.0478,1.0421,1.058,1.0554,1.0536,1.0744,1.0902,1.0995,0.0,0.0,0.0,0.0,0.0,0.0,0.0,0.0,0.0,0.0,0.0,0.0,0.0,0.0,0.0,0.0,0.0,2.0695,0.0,2.0922,2.1109,2.1109,2.1109,2.1109,2.1109,2.1109,2.0975,2.0681,2.0548,2.0334,2.004,1.988,1.9653,1.9372,1.9372,1.9372,1.9372,1.9372,1.9372,1.9372,1.9372,1.9533,1.9813,2.0013,2.0147,2.0241,2.0307,2.012,1.9813,1.9973,1.9746,1.9412,0.0,0.0,0.0,0.0,0.0,0.0,0.0,0.0,0.0,0.0,0.0,0.0,0.0,0.0,0.0,0.0,0.0,0.0,0.0,0.0,0.0,0.0,0.0,0.8804,0.8804,0.8804,0.8804,0.8804,0.8804,0.8804,0.8804,0.8804,0.8804,0.8804,0.8804,0.8804,0.0,0.0,0.8978,0.9216,0.9566,0.0,0.0,0.0,0.0,0.0,0.0,0.0,0.0,1.0618,1.0618,1.0618,1.0618,0.0,0.0,0.0,0.0,0.0,1.0555,1.0873,1.1142,1.0969,1.0983,1.0995,0.0,0.0,0.0,0.0,0.0,0.0,0.0,0.0,0.0,0.0,0.0,0.0,0.0,0.0,0.0,0.0,1.9987,0.0,2.0935,2.1056,2.1109,2.1109,2.1109,2.1109,2.1109,2.1069,2.0909,2.0615,2.0321,2.0027,1.9733,1.9733,1.9613,1.9372,1.9372,1.9372,1.9372,1.9372,1.9372,1.9372,1.9372,1.9506,1.9733,1.9813,1.9947,2.0094,1.988,1.9747,1.9733,1.9733,1.9586,1.9399,0.0,0.0,0.0,0.0,0.0,0.0,0.0,0.0,0.0,0.0,0.0,0.0,0.0,0.0,0.0,0.0,0.0,0.0,0.0,0.0,0.0,0.0,0.8804,0.8804,0.8804,0.8804,0.8804,0.8804,0.8804,0.8804,0.8804,0.8804,0.8804,0.8804,0.8804,0.8804,0.8804,0.8804,0.8978,0.9216,0.9566,0.0,0.0,0.0,0.0,0.0,0.0,0.0,0.0,1.0618,1.0618,1.0618,1.0618,0.0,0.0,0.0,0.0,0.0,1.0555,1.1326,1.1897,1.0903,1.0837,1.0995,0.0,0.0,0.0,0.0,0.0,0.0,0.0,0.0,0.0,0.0,0.0,0.0,0.0,0.0,0.0,1.9679,0.0,2.0815,2.0414,2.0815,2.1109,2.1109,2.1109,2.1109,2.1109,2.0869,2.0615,2.0307,2.0013,1.9733,1.9439,1.9439,1.9412,1.9372,1.9372,1.9372,1.9372,1.9372,1.9372,1.9372,1.9372,1.9399,1.9439,1.9712,1.9726,1.9546,1.9734,1.9615,1.9439,1.9439,1.9412,1.9372,0.0,0.0,0.0,0.0,0.0,0.0,0.0,0.0,0.0,0.0,0.0,0.0,0.0,0.0,0.0,0.0,0.0,0.0,0.0,0.0,0.0,0.8804,0.8804,0.8804,0.8804,0.8804,0.8804,0.8804,0.8804,0.8804,0.8804,0.8804,0.8804,0.8804,0.8804,0.8804,0.8804,0.8804,0.8978,0.9216,0.0,0.0,0.0,0.0,0.0,0.0,0.0,0.0,0.0,0.0,1.0618,1.0618,1.0618,0.0,0.0,0.0,0.0,0.0,1.0618,1.1066,1.1514,1.1134,1.1651,1.2095,0.0,0.0,0.0,0.0,0.0,0.0,0.0,0.0,0.0,0.0,0.0,0.0,0.0,0.0,1.9292,0.0,0.0,2.0655,2.0695,2.0949,2.1109,2.1109,2.1109,2.1042,2.0882,2.0748,2.0468,2.0013,1.9867,1.9653,1.9372,1.9372,1.9372,1.9372,1.9372,1.9372,1.9372,1.9372,1.9372,1.9372,1.9372,1.9372,1.9372,1.9502,1.9502,1.9386,1.9522,1.9469,1.9372,1.9372,1.9372,1.9372,0.0,0.0,0.0,0.0,0.0,0.0,0.0,0.0,0.0,0.0,0.0,0.0,0.0,0.0,0.0,0.0,0.0,0.0,0.0,0.0,0.8804,0.8804,0.8804,0.8804,0.8804,0.8804,0.8804,0.8804,0.8804,0.8857,0.9001,0.8857,0.891,0.9015,0.8857,0.8804,0.8804,0.8804,0.8938,0.911,0.0,0.0,0.0,0.0,0.0,0.0,0.0,0.0,0.0,0.0,0.0,0.0,0.0,0.0,0.0,1.0618,1.0618,1.0618,1.0618,1.0911,1.1209,1.1327,0.0,0.0,0.0,0.0,0.0,0.0,0.0,0.0,0.0,0.0,0.0,0.0,0.0,0.0,1.8504,1.8998,1.9533,2.004,2.0307,2.0615,2.1069,2.1109,2.1109,2.1109,2.1109,2.0989,2.0695,2.0615,2.0334,1.9813,1.9733,1.9586,1.9372,1.9372,1.9372,1.9372,1.9372,1.9372,1.9372,1.9372,1.9359,1.9243,1.9243,1.9229,1.9229,1.9229,1.9243,1.9243,1.9359,1.9372,1.9372,1.9372,1.9372,1.9372,0.0,0.0,0.0,0.0,0.0,0.0,0.0,0.0,0.0,0.0,0.0,0.0,0.0,0.0,0.0,0.0,0.0,0.0,0.0,0.0,0.8804,0.8804,0.8804,0.8804,0.8804,0.8804,0.8804,0.8804,0.8804,0.9106,0.9718,0.9106,0.9106,0.9718,0.9054,0.8804,0.8804,0.8804,0.8818,0.8884,0.9459,0.0,0.0,0.0,0.0,0.0,0.0,0.0,0.0,0.0,0.0,0.0,0.0,0.0,1.0618,1.0618,1.0618,1.0618,1.0618,1.1206,1.1716,1.1163,0.0,0.0,0.0,0.0,0.0,0.0,0.0,0.0,0.0,0.0,0.0,0.0,0.0,1.9145,1.996,0.0,2.0668,2.0975,2.1029,2.1056,2.1109,2.1109,2.1109,2.1109,2.1109,2.0989,2.0695,2.0414,2.012,1.9813,1.9546,1.9386,1.9372,1.9372,1.9372,1.9372,1.9372,1.9372,1.9372,1.9372,1.9229,1.8971,1.8971,1.8829,1.8584,1.8842,1.8971,1.8971,1.9243,1.9372,1.9372,1.9372,1.9372,1.9372,0.0,0.0,0.0,0.0,0.0,0.0,0.0,0.0,0.0,0.0,0.0,0.0,0.0,0.0,0.0,0.0,0.0,0.0,0.0,0.0,0.8804,0.8804,0.8804,0.8804,0.8804,0.8804,0.8593,0.8103,0.8593,0.891,0.9159,0.891,0.8962,0.9159,0.891,0.8804,0.8804,0.8804,0.8804,0.8858,0.9446,0.9686,0.0,0.0,0.0,0.0,0.0,0.0,0.0,0.0,1.0618,1.0618,0.0,1.0618,1.0618,1.0618,1.0618,1.0618,1.0618,1.1066,1.1565,1.1565,0.0,0.0,0.0,0.0,0.0,0.0,0.0,0.0,0.0,0.0,0.0,0.0,0.0,1.9653,2.016,2.0641,2.0989,2.1096,2.1109,2.1109,2.1109,2.1109,2.1109,2.1109,2.0949,2.0708,2.0414,2.012,1.9826,1.9546,1.9426,1.9372,1.9372,1.9229,1.91,1.91,1.91,1.9229,1.9372,1.8971,1.8842,1.8842,1.8713,1.8564,1.8496,1.8619,1.8704,1.8842,1.8184,1.7286,1.6391,1.6391,1.6391,1.6518,0.0,0.0,0.0,0.0,0.0,0.0,0.0,0.0,0.0,0.0,0.0,0.0,0.0,0.0,0.0,0.0,0.0,0.0,0.0,0.8804,0.8804,0.8804,0.8804,0.8699,0.8474,0.8699,0.854,0.8049,0.854,0.8964,0.9259,0.9045,0.9099,0.9397,0.9086,0.8938,0.8938,0.8844,0.8858,0.8991,0.9486,0.974,0.0,0.0,0.0,0.0,0.0,0.0,0.0,0.0,1.0618,0.0,0.0,0.0,0.0,1.0618,1.0631,1.0708,1.0708,1.1066,1.1468,0.0,0.0,0.0,0.0,0.0,0.0,0.0,0.0,0.0,0.0,0.0,0.0,0.0,1.9038,2.0,2.0201,2.0735,2.1109,2.1109,2.1109,2.1109,2.1109,2.1109,2.1069,2.0975,2.0788,2.0508,2.012,1.9907,1.9666,1.9243,1.9359,1.9359,1.91,1.8971,1.8879,1.8823,1.8635,1.8751,1.9092,1.8635,1.8571,1.8584,1.8442,1.8302,1.819,1.8296,1.8277,1.7952,1.6692,1.5483,1.4585,1.4595,1.4595,1.4841,0.0,0.0,0.0,0.0,0.0,0.0,0.0,0.0,0.0,0.0,0.0,0.0,0.0,0.0,0.0,0.0,0.0,0.0,0.8804,0.8804,0.8804,0.8804,0.8804,0.8474,0.7717,0.8421,0.8804,0.8804,0.8804,0.9326,1.026,0.9563,0.9715,1.0664,0.9646,0.0,0.0,0.0,0.8978,0.9216,0.9566,0.986,1.0154,0.0,0.0,0.0,0.0,0.0,0.0,0.0,1.0618,0.0,0.0,0.0,0.0,0.0,1.0771,1.0989,1.1002,1.122,0.0,0.0,0.0,0.0,0.0,0.0,0.0,0.0,0.0,0.0,0.0,0.0,0.0,1.7952,1.9206,2.0227,2.0227,2.0735,2.1109,2.1109,2.1109,2.1109,2.1109,2.1109,2.0989,2.0695,2.0668,2.0414,1.9826,1.98,1.9522,1.8971,1.9229,1.91,1.8455,1.8713,1.8797,1.849,1.816,1.8148,1.8517,1.8441,1.83,1.8043,1.8043,1.7802,1.7582,1.782,1.7296,1.6181,1.4871,1.4397,1.4407,1.4538,1.4538,1.4791,0.0,0.0,0.0,0.0,0.0,0.0,0.0,0.0,0.0,0.0,0.0,0.0,0.0,0.0,0.0,0.0,0.0,0.0,0.8752,0.8804,0.8804,0.8804,0.8804,0.8699,0.8487,0.8699,0.8804,0.8804,0.8804,0.895,0.9245,0.9193,0.9341,0.9646,0.9613,0.0,0.0,0.0,0.9472,0.9579,0.9873,1.0047,1.0154,0.0,0.0,0.0,0.0,0.0,0.0,0.0,0.0,0.0,0.0,0.0,0.0,1.0911,1.1066,1.1247,1.1253,0.0,0.0,0.0,0.0,0.0,0.0,0.0,0.0,0.0,0.0,0.0,0.0,0.0,0.0,1.8279,1.9045,1.9773,2.0174,2.0561,2.0882,2.1082,2.1109,2.1029,2.0828,2.0802,2.0681,2.0388,2.0174,1.9987,1.9813,1.9351,1.9063,1.8971,1.8831,1.8691,1.8455,1.8326,1.822,1.8104,1.7901,1.7955,1.8441,1.8039,1.7873,1.7981,1.7751,1.7661,1.7569,1.6858,1.5024,1.2721,1.2606,1.1887,1.0959,1.2092,1.2474,1.2856,0.0,0.0,0.0,0.0,0.0,0.0,0.0,0.0,0.0,0.0,0.0,0.0,0.0,0.0,0.0,0.0,0.0,0.0,0.0,0.0,0.8804,0.8804,0.8804,0.8804,0.8804,0.8804,0.8871,0.8978,0.8871,0.8965,0.9327,0.9354,0.9529,0.9766,0.0,0.9834,0.0,0.0,0.9753,0.9873,1.0047,1.018,1.0314,0.0,0.0,0.0,0.0,0.0,0.0,0.0,0.0,0.0,0.0,0.0,0.0,1.1036,1.1182,1.1478,1.1702,0.0,0.0,0.0,0.0,0.0,0.0,0.0,0.0,0.0,0.0,0.0,0.0,1.7495,0.0,1.7789,1.8797,1.9663,2.0,2.0321,2.0615,2.0909,2.0828,2.0735,2.0681,2.0575,2.0374,2.008,1.9893,1.9746,1.9639,1.9193,1.8866,1.877,1.8525,1.8394,1.8151,1.8026,1.7921,1.782,1.7701,1.7835,1.8125,1.7782,1.7701,1.782,1.7095,1.6398,1.5822,1.4511,1.2881,1.1236,1.0896,1.056,1.0318,1.1168,1.182,1.2781,0.0,0.0,0.0,0.0,0.0,0.0,0.0,0.0,0.0,0.0,0.0,0.0,0.0,0.0,0.0,0.0,0.0,0.0,0.0,0.0,0.8804,0.8804,0.8844,0.8844,0.8804,0.8858,0.9005,0.9259,0.8965,0.9247,1.0045,0.9836,1.0055,1.0551,0.0,1.0132,0.0,0.9873,0.9913,1.0154,1.0154,1.0314,1.0618,1.0618,0.0,0.0,0.0,0.0,0.0,0.0,0.0,0.0,0.0,0.0,1.1053,1.1037,1.123,1.1636,0.0,0.0,0.0,0.0,0.0,0.0,0.0,0.0,0.0,0.0,0.0,0.0,1.4371,1.6297,1.7732,1.6774,1.8197,1.9596,1.976,2.0027,2.0307,2.0601,2.0401,2.0334,2.0575,2.0347,1.9933,1.9496,1.9601,1.9586,1.9176,1.8945,1.8709,1.8504,1.8311,1.7927,1.7358,1.7463,1.7463,1.7226,1.7213,1.7213,1.7213,1.7345,1.7331,1.7108,1.5741,1.4378,1.3032,1.1682,1.1007,1.0777,0.9625,0.9972,1.1117,1.1321,1.2351,1.373,0.0,0.0,0.0,0.0,0.0,0.0,0.0,0.0,0.0,0.0,0.0,0.0,0.0,0.0,0.0,0.0,0.0,0.0,0.0,0.0,0.8804,0.8804,0.8976,0.9002,0.8818,0.9259,0.9516,0.9603,0.9288,0.9357,0.0,0.0,0.0,1.0223,0.0,1.0514,0.0,1.0394,1.047,1.0461,1.0461,1.0564,1.0618,1.0618,1.0618,0.0,0.0,0.0,0.0,0.0,0.0,0.0,1.0615,1.0911,1.1326,1.1307,1.1666,0.0,0.0,0.0,0.0,0.0,0.0,0.0,0.0,0.0,0.0,0.0,0.0,0.0,1.432,1.4795,1.5688,1.6716,1.7286,1.8156,1.9628,1.9853,2.0,2.0294,2.0267,2.0174,2.0,1.9933,1.9181,1.7481,1.8391,1.8503,1.7065,1.7753,1.8186,1.8131,1.6683,1.5922,1.5822,1.465,1.4079,1.4195,1.4079,1.3963,1.4079,1.5223,1.5106,1.3984,1.3769,1.2979,1.159,1.1211,1.0429,0.9396,0.9058,0.9168,0.9596,1.07,1.1442,1.1819,0.0,0.0,0.0,0.0,0.0,0.0,0.0,0.0,0.0,0.0,0.0,0.0,0.0,0.0,0.0,0.0,0.0,0.0,0.0,0.0,0.0,0.8804,0.8937,0.8961,0.8792,0.9121,0.9437,0.9714,0.9545,0.0,0.0,0.0,0.0,1.0322,0.0,1.0618,0.0,1.0618,1.0618,1.0618,1.0618,1.0618,1.0631,1.0715,1.0768,1.0768,1.0768,0.0,0.0,0.0,0.0,0.0,0.0,0.0,1.1617,1.1451,1.174,1.2218,0.0,0.0,0.0,0.0,0.0,0.0,0.0,0.0,0.0,0.0,0.0,1.3537,1.2203,1.3221,1.4459,1.4609,1.5258,1.6457,1.8269,1.7742,1.7756,1.8746,1.8058,1.7446,1.7422,1.7303,1.6704,1.5488,1.6055,1.6163,1.5233,1.5512,1.5735,1.5777,1.4674,1.4074,1.4151,1.3371,1.2911,1.3018,1.2911,1.2452,1.183,1.3367,1.3289,1.2107,1.2092,1.1355,1.0082,1.0082,0.9625,0.894,0.894,0.9286,1.0067,1.0808,1.1531,1.2215,0.0,0.0,0.0,0.0,0.0,0.0,0.0,0.0,0.0,0.0,0.0,0.0,0.0,0.0,0.0,0.0,0.0,0.0,0.0,0.0,0.0,0.8804,0.8871,0.8856,0.882,0.8906,0.9194,0.9674,0.0,0.0,0.0,0.0,0.0,1.0618,0.0,0.0,0.0,1.0618,1.0618,1.0618,1.0618,1.0658,1.0661,1.0902,1.1022,1.1062,1.1062,1.107,1.0989,1.0771,0.0,0.0,0.0,0.0,1.1826,1.1559,1.1723,1.2057,0.0,0.0,0.0,0.0,0.0,0.0,0.0,0.0,0.0,0.0,0.0,1.2404,0.9735,1.1504,1.3213,1.2197,1.3232,1.4687,1.6309,1.5408,1.5043,1.664,1.5419,1.4606,1.4713,1.4432,1.4093,1.3595,1.376,1.3727,1.3327,1.3281,1.325,1.3178,1.2684,1.2402,1.2432,1.2183,1.2073,1.2073,1.2073,1.1379,1.0112,1.1368,1.1429,1.0599,1.0492,0.9853,0.8823,0.8823,0.8823,0.8823,0.8823,0.9625,1.0659,1.0659,1.1475,1.2524,0.0,0.0,0.0,0.0,0.0,0.0,0.0,0.0,0.0,0.0,0.0,0.0,0.0,0.0,0.0,0.0,0.0,0.0,0.8752,0.0,0.0,0.8804,0.9042,0.903,0.8804,0.9283,0.9603,0.9674,0.0,0.0,0.0,0.0,0.0,1.0618,0.0,0.0,0.0,0.0,0.0,1.0618,1.0618,1.0715,1.0942,1.0982,1.1142,1.1369,1.1369,1.1168,1.1052,1.1206,1.1206,0.0,0.0,0.0,1.1891,1.1872,1.2044,0.0,0.0,0.0,0.0,0.0,0.0,0.0,0.0,0.0,0.0,0.0,1.0695,1.0667,0.9396,0.9579,1.0402,1.1744,1.2076,1.2817,1.4443,1.4405,1.4313,1.451,1.4365,1.4127,1.4241,1.421,1.3453,1.1854,1.2881,1.2812,1.1194,1.2216,1.2894,1.2833,1.1447,1.0797,1.0952,0.9578,0.8996,0.9097,0.8996,0.8743,0.8556,0.8656,0.86,0.8715,0.8824,0.8712,0.8595,0.8595,0.8595,0.8595,0.8595,0.8712,0.9051,0.9051,0.9168,0.9507,0.0,0.0,0.0,0.0,0.0,0.0,0.0,0.0,0.0,0.0,0.0,0.0,0.0,0.0,0.0,0.77,0.8094,0.8448,0.8804,0.8804,0.8804,0.8804,0.8923,0.899,0.9042,0.9126,0.9439,0.0,0.0,0.0,0.0,1.0618,1.0618,0.0,0.0,0.0,0.0,0.0,0.0,0.0,1.0618,1.0698,1.0782,1.1116,1.1316,1.145,1.161,1.1585,1.1478,1.1418,1.1469,1.1491,1.1395,0.0,0.0,0.0,1.2057,0.0,0.0,0.0,0.0,0.0,0.0,0.0,0.0,0.0,0.0,1.06,1.0332,1.0079,0.9106,0.9058,0.9482,1.0356,1.0435,1.1051,1.2729,1.2038,1.1811,1.2664,1.2056,1.1347,1.1148,1.1234,1.0753,0.9762,1.0274,1.0256,0.9389,0.9868,1.0096,1.0096,0.9414,0.9069,0.9176,0.845,0.8144,0.8244,0.8144,0.8144,0.8144,0.8038,0.8144,0.8364,0.8426,0.8438,0.8543,0.8543,0.8543,0.8543,0.8543,0.8543,0.8584,0.8702,0.8712,0.8823,0.0,0.0,0.0,0.0,0.0,0.0,0.0,0.0,0.0,0.0,0.0,0.0,0.0,0.0,0.0,0.0,0.8501,0.8804,0.8804,0.8804,0.8804,0.8804,0.8804,0.8871,0.9109,0.8908,0.0,0.0,0.0,0.0,1.0618,1.0491,1.0555,0.0,1.0618,0.0,0.0,0.0,0.0,0.0,0.0,0.0,0.0,1.1341,1.1546,1.1677,1.1904,1.1971,1.1846,1.1708,1.1751,1.1847,1.1702,1.197,0.0,0.0,0.0,0.0,0.0,0.0,0.0,0.0,0.0,0.0,0.0,0.0,0.0,0.0,0.959,0.9439,0.8735,0.8838,0.9058,0.9168,0.9243,0.966,1.0929,1.0115,0.9716,1.0915,0.9949,0.9103,0.8886,0.8838,0.8716,0.8452,0.833,0.8255,0.8214,0.8099,0.8038,0.8038,0.8038,0.8038,0.8038,0.8038,0.8038,0.8038,0.8038,0.8038,0.8038,0.8038,0.8144,0.835,0.8244,0.8244,0.835,0.835,0.835,0.835,0.835,0.845,0.8507,0.8547,0.8696,0.8712,0.0,0.0,0.0,0.0,0.0,0.0,0.0,0.0,0.0,0.0,0.0,0.0,0.8752,0.8752,0.8804,0.8752,0.8752,0.8804,0.8804,0.8804,0.8804,0.8804,0.8804,0.0,0.8804,0.8836,0.0,0.0,0.0,0.0,1.0555,1.0275,1.0275,1.0618,1.0618,1.0771,1.0989,0.0,0.0,0.0,0.0,0.0,0.0,0.0,1.2062,1.2265,1.2278,1.2117,1.1944,1.2164,1.2118,1.193,1.219,1.2305,1.2305,0.0,0.0,0.0,0.0,0.0,0.0,0.0,0.0,0.0,0.0,0.0,0.0,0.84,0.8038,0.8151,0.8285,0.8554,0.8823,0.9168,0.9064,0.9071,0.9286,0.9064,0.8954,0.9064,0.89,0.8783,0.8662,0.8567,0.8445,0.8296,0.8275,0.8208,0.8058,0.8045,0.8038,0.8038,0.8038,0.8038,0.8038,0.8038,0.8038,0.8038,0.8038,0.8038,0.8038,0.8038,0.8038,0.8038,0.8038,0.8038,0.8038,0.8038,0.8038,0.8038,0.8038,0.8144,0.835,0.8285,0.8452,0.8712,0.0,0.0,0.0,0.0,0.0,0.0,0.0,0.0,0.0,0.0,0.0,0.0,0.0,0.8804,0.8804,0.8804,0.8804,0.8804,0.8804,0.9183,0.9235,0.8804,0.9228,0.9348,0.9056,0.8903,0.0,0.0,0.0,0.9762,1.0293,1.0404,1.0478,1.0618,1.0618,1.0631,1.0749,1.0666,0.0,0.0,0.0,0.0,0.0,0.0,0.0,0.0,0.0,0.0,1.2144,1.2305,1.2244,1.2182,1.2238,1.2305,1.2305,1.2305,1.2315,1.222,0.0,0.0,0.0,0.0,0.0,0.0,0.0,0.0,1.1962,1.0334,0.9468,0.8763,0.8244,0.837,0.8562,0.8737,0.8635,0.8682,0.8699,0.8662,0.8608,0.8686,0.8646,0.8507,0.8472,0.8411,0.8316,0.8133,0.8126,0.8099,0.8045,0.8038,0.8038,0.8038,0.8038,0.8038,0.8038,0.8038,0.8038,0.8038,0.8038,0.8038,0.8038,0.8038,0.8038,0.8038,0.8038,0.8038,0.8038,0.8038,0.8038,0.8038,0.8038,0.8038,0.8144,0.8244,0.839,0.8633,0.0,0.0,0.0,0.0,0.0,0.0,0.0,0.0,0.0,0.8804,0.0,0.0,0.0,0.0,0.9312,0.9658,0.9578,0.9568,0.9684,1.0106,1.0098,0.9481,0.9836,0.9877,0.9589,0.9085,0.0,0.0,0.0,0.0,0.0,1.039,1.0478,1.0618,1.0618,1.0631,0.0,0.0,0.0,1.1094,0.0,0.0,1.1563,0.0,0.0,0.0,0.0,0.0,0.0,1.2599,1.2553,1.2466,1.2466,1.2392,1.2218,1.1883,1.2078,1.222,1.1874,0.0,0.0,0.0,0.0,0.0,0.0,0.0,1.1815,1.0784,0.9701,0.8698,0.8004,0.8201,0.8391,0.8448,0.8454,0.8474,0.8494,0.8506,0.8515,0.8501,0.8421,0.8421,0.8269,0.8241,0.8187,0.8052,0.8038,0.8038,0.8038,0.8038,0.8038,0.8038,0.8038,0.8038,0.8038,0.8038,0.8038,0.8038,0.8038,0.8038,0.8038,0.8038,0.8038,0.8038,0.8038,0.8038,0.8038,0.8038,0.8038,0.8038,0.8038,0.8038,0.8038,0.8144,0.835,0.8442,0.0,0.0,0.0,0.0,0.0,0.0,0.0,0.0,0.8804,0.8804,0.0,0.0,0.0,0.0,0.0,1.1411,1.1086,1.1028,1.1497,1.1556,1.1321,1.0864,1.0649,1.0523,1.0321,0.9384,0.0,0.0,0.0,0.0,0.0,0.0,1.0275,1.0618,1.0618,1.0771,1.0989,0.0,1.0911,1.1383,0.0,1.1636,1.197,0.0,0.0,0.0,1.2648,1.2778,0.0,1.3121,1.3056,1.2802,1.2802,1.2553,1.2131,1.1144,1.155,1.2057,0.0,0.0,0.0,0.0,0.0,0.0,0.0,0.0,1.01,0.9301,0.8344,0.7702,0.7825,0.7939,0.8133,0.8425,0.8501,0.844,0.844,0.8477,0.845,0.845,0.835,0.8244,0.8244,0.8144,0.8038,0.8038,0.8038,0.8038,0.8024,0.8024,0.8031,0.8038,0.8038,0.8038,0.8038,0.8038,0.8038,0.8038,0.8038,0.8038,0.8038,0.8038,0.8038,0.8038,0.8038,0.8038,0.8038,0.8038,0.8038,0.8038,0.8038,0.8038,0.8038,0.8038,0.8144,0.8327,0.0,0.0,0.0,0.0,0.0,0.0,0.9468,0.9109,0.899,0.0,0.0,0.0,1.003,1.0896,1.1575,1.192,1.1833,1.1824,1.1958,1.2405,1.2408,1.1759,1.2131,1.1876,1.0741,1.0471,1.0137,0.0,0.0,0.0,0.0,0.0,0.0,0.0,1.0618,1.0989,1.1565,1.0911,0.0,0.0,1.143,1.1723,0.0,0.0,0.0,0.0,0.0,1.293,1.3105,0.0,1.3037,1.2728,1.2479,1.2378,1.2218,1.197,1.2057,1.2218,1.197,0.0,0.0,0.0,0.0,0.0,0.0,0.0,1.1912,1.0212,0.9851,0.9306,0.7929,0.7839,0.8065,0.8147,0.814,0.8126,0.8126,0.8179,0.8144,0.8144,0.8144,0.8045,0.8045,0.8038,0.8038,0.8038,0.8038,0.795,0.7835,0.7726,0.7724,0.7832,0.7839,0.7939,0.8038,0.8038,0.8038,0.8038,0.8038,0.8038,0.8038,0.8038,0.8038,0.8038,0.8038,0.8038,0.8038,0.8038,0.8038,0.8038,0.8038,0.8038,0.8038,0.8038,0.8144,0.8272,0.0,0.0,0.0,0.0,0.0,0.8923,0.9348,0.9061,0.894,0.0,0.0,0.0,1.0559,1.1456,1.2229,1.2894,1.2802,1.2814,1.3197,1.3608,1.3571,1.2966,1.3204,1.2782,1.153,1.1088,1.0458,0.9516,0.0,0.0,0.0,0.0,0.0,0.0,0.0,0.0,0.0,0.0,0.0,0.0,1.1585,0.0,0.0,1.2305,1.2479,0.0,0.0,0.0,1.3361,1.3561,1.3426,0.0,0.0,1.2714,1.264,1.2553,1.2479,1.2466,1.2305,1.2305,0.0,0.0,0.0,0.0,1.2889,1.2749,1.216,0.0,1.0409,0.9633,0.8461,0.8062,0.7918,0.7957,0.7997,0.8038,0.8038,0.8038,0.8038,0.8038,0.8038,0.8038,0.8038,0.7939,0.7939,0.7939,0.7839,0.7811,0.7712,0.7667,0.7681,0.7753,0.7811,0.7832,0.7939,0.7939,0.7939,0.8038,0.8038,0.8038,0.8038,0.7939,0.7939,0.8038,0.7939,0.7939,0.8038,0.8038,0.8038,0.8038,0.8038,0.8038,0.8038,0.8038,0.8045,0.8144,0.0,0.0,0.9482,0.8923,0.8804,0.8804,0.8923,0.8866,0.8855,0.0,0.9109,0.9667,1.0922,1.1711,1.2706,1.4068,1.3881,1.4053,1.4916,1.49,1.4743,1.4405,1.4017,1.3402,1.2471,1.1525,1.052,0.942,0.0,0.0,0.0,0.0,0.0,0.0,0.0,0.0,0.0,0.0,0.0,1.2662,1.1753,1.1723,0.0,0.0,1.2553,1.2879,1.3097,1.3412,1.3704,1.3984,1.3886,0.0,0.0,0.0,0.0,0.0,1.2838,0.0,1.2305,1.2144,1.2218,1.2553,1.2311,0.0,1.3005,1.2305,1.1514,0.0,1.0582,0.9322,0.9301,0.8549,0.8007,0.7994,0.8014,0.8018,0.8038,0.8024,0.8011,0.8004,0.8004,0.8004,0.7991,0.7885,0.7773,0.774,0.7635,0.7627,0.7563,0.766,0.7723,0.761,0.7699,0.774,0.774,0.7799,0.7832,0.7939,0.7939,0.7939,0.7939,0.7832,0.7799,0.7943,0.7806,0.7839,0.7939,0.8038,0.8038,0.8038,0.8038,0.8038,0.8038,0.8038,0.8038,0.8038,1.0781,0.0,0.8937,0.8804,0.8804,0.899,0.9535,0.9145,0.9183,1.0257,1.1223,1.1991,1.26,1.3584,1.4354,1.4651,1.4885,1.5345,1.6131,1.5638,1.5541,1.6007,1.4811,1.3731,1.291,1.2043,1.1224,1.0378,1.0706,0.0,0.0,0.0,0.0,0.0,0.0,0.0,0.0,0.0,0.0,1.2949,1.1824,0.0,1.2305,1.2305,1.264,1.3145,1.3192,1.3522,1.3984,1.3802,1.3802,1.3944,0.0,0.0,0.0,1.327,0.0,0.0,0.0,1.1316,1.1304,1.1476,1.0852,0.0,1.277,1.2131,1.1226,0.0,1.1478,1.108,1.0562,0.9643,0.8984,0.8995,0.8321,0.7896,0.8024,0.7936,0.7841,0.7807,0.7704,0.7671,0.7692,0.7685,0.7677,0.7619,0.7507,0.7479,0.7417,0.7265,0.7269,0.7446,0.7509,0.7507,0.7598,0.7601,0.7633,0.7633,0.7633,0.7633,0.7633,0.7633,0.7677,0.7717,0.7731,0.7832,0.7839,0.7939,0.8038,0.8038,0.8038,0.8038,0.8038,0.8038,0.8038,0.8038,1.0914,1.0257,0.9562,0.891,0.8804,0.8923,0.9228,0.899,0.9228,1.0461,1.1868,1.291,1.3074,1.3883,1.4542,1.4752,1.4982,1.5347,1.5911,1.5584,1.5584,1.5931,1.5216,1.4213,1.3009,1.2565,1.1667,1.012,1.0863,0.0,0.0,0.0,0.0,0.0,0.0,0.0,0.0,0.0,1.182,1.2427,1.1893,0.0,1.2305,1.2466,1.2802,1.3219,1.3382,1.3802,1.4277,1.4095,1.4179,0.0,1.4166,1.4161,1.4202,0.0,1.3256,1.2531,0.0,0.0,1.0384,1.0621,1.0171,0.0,0.0,1.1124,1.083,1.169,1.1489,1.1218,1.1486,1.0737,1.0086,1.0067,0.9173,0.8547,0.8547,0.8144,0.7773,0.7678,0.7672,0.7557,0.7604,0.755,0.7414,0.7347,0.7319,0.7231,0.7231,0.7231,0.7278,0.7289,0.7389,0.7415,0.7503,0.7533,0.7496,0.759,0.759,0.759,0.759,0.7496,0.7519,0.7613,0.7653,0.776,0.7832,0.7939,0.8038,0.8038,0.8038,0.8038,0.8038,0.8038,0.8038,0.8038,1.1262,0.0,1.0249,0.9187,0.8871,0.8804,0.8871,0.8923,0.939,1.0524,1.2092,1.3003,1.2915,1.3532,1.4145,1.4542,1.4715,1.5017,1.5545,1.539,1.5351,1.5504,1.5293,1.4473,1.291,1.2793,1.1836,0.985,1.086,1.1145,0.0,0.0,0.0,0.0,0.0,0.0,0.0,0.0,0.0,1.197,0.0,1.2218,1.2466,1.2728,1.3042,1.33,1.3556,1.4082,1.4501,1.4448,1.4515,1.465,1.476,1.4797,0.0,0.0,0.0,0.0,0.0,0.0,0.9514,0.9836,0.9548,0.9343,0.0,0.0,0.0,1.1409,1.1226,1.1185,0.0,0.0,0.0,1.0747,0.9858,0.9109,0.8674,0.8037,0.7638,0.7522,0.7461,0.7434,0.7468,0.7366,0.7251,0.7149,0.7054,0.7048,0.7143,0.7231,0.7231,0.7143,0.7231,0.7326,0.7326,0.7326,0.7415,0.7503,0.7503,0.7503,0.7503,0.7415,0.7415,0.7598,0.7598,0.7674,0.7832,0.7939,0.8038,0.8038,0.8038,0.8038,0.8038,0.8038,0.8038,0.8038,1.1835,1.0744,0.0,0.9708,0.9176,0.8871,0.9109,0.9468,1.0117,1.1256,1.2258,1.2689,1.2101,0.0,0.0,0.0,1.4392,1.5243,1.6291,1.5455,1.5179,1.58,1.4888,1.3756,1.2488,1.2118,1.1483,1.0481,1.0902,1.1129,0.0,0.0,0.0,0.0,1.2278,0.0,0.0,0.0,1.2218,0.0,1.2553,1.2728,0.0,1.3065,1.3311,1.3618,1.3944,1.4277,1.444,1.4251,1.4472,1.4849,0.0,1.4705,1.5136,1.4313,0.0,0.0,0.0,0.9566,0.8599,0.8777,0.8128,0.7929,1.0093,0.0,0.8999,1.0482,0.0,1.1832,1.2204,0.0,0.0,1.0637,0.968,0.8658,0.7168,0.7114,0.721,0.7197,0.6959,0.6858,0.6993,0.6871,0.6885,0.7122,0.6959,0.6959,0.7054,0.7143,0.7143,0.7143,0.7143,0.7143,0.7143,0.7143,0.7143,0.7143,0.7143,0.7143,0.7143,0.7326,0.7415,0.7415,0.7687,0.7773,0.7832,0.7939,0.8038,0.8038,0.8038,0.8038,0.8038,0.8038,0.8038,0.8038,1.1403,1.078,0.0,0.9544,0.9228,0.9228,0.9775,1.0927,1.2009,1.2728,1.3316,1.3543,0.0,0.0,0.0,0.0,0.0,1.5058,0.0,0.0,1.5308,1.5572,1.5119,1.4182,1.2794,1.2562,1.1932,1.0808,1.0929,1.1236,1.169,1.181,0.0,0.0,1.2225,0.0,1.2078,0.0,1.2576,0.0,0.0,0.0,0.0,1.3427,1.3691,1.4103,1.4137,1.4494,1.5014,1.4714,1.4759,1.5028,1.5106,1.5016,1.4816,1.4714,0.0,0.0,1.0896,0.9705,0.8595,0.7923,0.751,0.7553,0.8504,0.8261,0.82,0.9589,0.0,0.0,0.0,0.0,0.0,0.0,1.058,0.9307,0.7883,0.7138,0.6783,0.6871,0.6776,0.6722,0.679,0.6736,0.6749,0.6878,0.6867,0.6959,0.6959,0.7048,0.7143,0.7143,0.7143,0.7143,0.7143,0.7143,0.7143,0.7143,0.7143,0.7143,0.7143,0.7326,0.7423,0.7374,0.7665,0.7807,0.7832,0.7939,0.8038,0.8038,0.8038,0.8038,0.8038,0.8038,0.8038,0.8038,1.147,0.0,0.0,0.0,0.9575,1.0017,1.0938,1.2404,1.3465,1.3744,0.0,0.0,1.3654,1.3282,0.0,0.0,1.4347,1.4818,0.0,0.0,1.5235,1.4946,1.5212,1.449,1.2642,1.2835,1.2296,1.1116,1.1116,1.1369,1.1864,1.1864,1.1917,0.0,0.0,1.2184,1.2024,0.0,1.2777,1.287,1.3362,1.3663,1.3704,1.3704,1.4025,1.446,1.4255,1.473,1.5342,1.5058,1.5061,1.52,1.5461,1.519,1.4764,1.4966,0.0,0.0,1.1056,0.9731,0.8351,0.7368,0.7217,0.7368,0.7443,0.7422,0.7691,0.8658,0.9866,0.0,0.0,0.0,1.3574,1.2015,0.0,0.9824,0.8122,0.7134,0.6559,0.6627,0.6634,0.6634,0.6634,0.66,0.6614,0.6695,0.6773,0.68,0.684,0.7007,0.7048,0.7048,0.7054,0.7143,0.7143,0.7143,0.7143,0.7143,0.7143,0.7143,0.7143,0.7326,0.7468,0.7428,0.7733,0.7839,0.7839,0.7939,0.8038,0.8038,0.8038,0.8038,0.8038,0.8038,0.8038,0.8038,1.2735,1.2299,0.0,0.0,0.0,0.0,1.2764,0.0,0.0,0.0,0.0,0.0,0.0,0.0,0.0,0.0,0.0,1.4634,1.6016,0.0,1.4869,0.0,0.0,1.4149,1.1732,1.2357,1.228,1.141,1.141,1.157,1.1864,1.1864,1.2024,1.2291,1.2305,1.2305,1.2305,1.2625,1.2765,1.2849,1.3373,1.3803,1.4082,1.4082,1.4291,1.448,1.4457,1.4863,1.5362,1.5127,1.5171,1.5365,1.513,1.5164,1.5347,1.5038,1.3461,1.1629,1.1232,0.9332,0.7387,0.7139,0.7211,0.7407,0.7369,0.7475,0.7588,0.7668,0.9351,1.0779,1.0864,1.2662,1.3294,1.0854,1.0509,0.0,0.0,0.66,0.6641,0.6498,0.6478,0.6478,0.6478,0.6356,0.639,0.6681,0.6573,0.6559,0.6709,0.6807,0.6871,0.6871,0.7048,0.7143,0.7143,0.7143,0.7143,0.7143,0.7143,0.7143,0.7143,0.7415,0.7567,0.7633,0.7839,0.8038,0.8038,0.8038,0.8038,0.8038,0.8038,0.8038,0.8038,0.8038,0.8038,0.8038,0.0,0.0,0.0,0.0,0.0,0.0,0.0,1.3714,0.0,0.0,0.0,0.0,0.0,1.339,1.3863,0.0,0.0,1.5667,1.5605,1.5438,0.0,0.0,0.0,1.3704,0.0,1.2595,1.2241,1.1423,1.1423,1.1222,1.091,1.1579,1.1722,1.1316,0.0,1.2305,0.0,0.0,0.0,0.0,0.0,1.329,1.4082,1.4082,1.4236,1.4471,1.4502,1.4846,1.5386,1.5301,1.5295,1.5442,1.547,1.5312,1.5184,1.5197,1.3969,1.2363,1.1518,1.0019,0.8581,0.7657,0.751,0.7678,0.763,0.7664,0.7738,0.7799,0.964,1.123,1.1047,1.2267,1.2639,1.086,0.9828,0.8674,0.0,0.658,0.6532,0.6478,0.639,0.6335,0.6335,0.6288,0.6302,0.6403,0.6451,0.6498,0.6546,0.6753,0.6867,0.6864,0.7048,0.7143,0.7143,0.7143,0.7143,0.7143,0.7143,0.7143,0.7143,0.7326,0.7475,0.7633,0.7832,0.7939,0.8038,0.8038,0.8038,0.8038,0.8038,0.8038,0.8038,0.8038,0.8038,0.8038,1.069,0.0,0.0,0.0,0.0,0.0,0.0,0.0,0.0,0.0,1.3656,0.0,1.3383,0.0,1.4562,0.0,1.614,1.6504,1.5788,1.5734,0.0,1.3518,1.3739,0.0,0.0,1.2012,1.1576,1.0657,1.0657,1.0456,1.0036,1.1058,1.123,0.0,0.0,1.2305,1.2345,0.0,1.2803,0.0,0.0,1.2588,1.293,1.293,1.3623,1.4696,1.4773,1.5166,1.5497,1.5053,1.4904,1.4766,1.4551,1.4135,1.4028,1.4659,1.3825,1.2502,1.2242,1.1224,1.0052,0.9206,0.9107,0.9052,0.8571,0.8527,0.8503,0.8117,0.9821,1.149,1.123,1.2437,1.2815,1.1045,0.9924,0.8681,0.0,0.6532,0.6451,0.6403,0.6363,0.6335,0.6335,0.6288,0.6338,0.6338,0.6342,0.6396,0.6396,0.6634,0.6746,0.68,0.6947,0.7088,0.7143,0.7143,0.7143,0.7143,0.7143,0.7143,0.7143,0.7326,0.7542,0.763,0.7746,0.7939,0.8038,0.8038,0.8038,0.8038,0.8038,0.8038,0.8038,0.8038,0.8038,0.8038,0.0,0.0,0.0,0.0,1.1224,0.0,0.0,0.0,1.4468,0.0,1.3773,1.3867,1.3353,1.4021,1.503,1.6109,1.6854,1.7063,1.6578,1.6542,0.0,0.0,1.3241,1.2594,1.0527,1.0592,1.026,0.9301,0.9377,0.9377,0.9301,1.0409,0.0,0.0,1.1848,0.0,1.2197,1.1739,1.2234,1.3214,1.2469,1.1695,1.085,1.0791,1.2476,1.4838,1.512,1.5383,1.5399,1.423,1.3838,1.3541,1.23,1.1983,1.2289,1.353,1.2903,1.2152,1.3356,1.2675,1.1576,1.1538,1.1651,1.1437,1.0201,0.9964,0.9706,0.8336,0.992,1.1473,1.1443,1.2986,1.3521,1.1382,1.0549,0.9386,0.6855,0.6498,0.6444,0.6308,0.641,0.6485,0.6464,0.6342,0.6338,0.6338,0.6338,0.6338,0.6338,0.6396,0.6539,0.6681,0.6844,0.6993,0.7129,0.7136,0.7143,0.7143,0.7143,0.7143,0.7143,0.7415,0.7613,0.7588,0.789,0.7939,0.8038,0.8038,0.8038,0.8038,0.8038,0.8038,0.8038,0.8038,0.8038,0.8038,1.0618,1.0771,1.0911,0.0,1.1589,1.2409,0.0,0.0,0.0,0.0,1.4011,1.4345,1.4187,1.5797,1.6847,1.6596,1.7482,0.0,0.0,0.0,0.0,1.3141,1.2272,1.1587,1.0995,1.0111,0.9593,0.9301,1.0045,1.0045,0.9377,1.1093,0.0,0.0,0.0,0.0,1.1279,1.2311,1.3211,1.3701,1.1775,1.1424,1.1771,1.0338,1.0794,1.2253,1.2361,1.2481,1.2574,1.2373,1.2362,1.2387,1.1973,1.2604,1.3422,1.3808,1.292,1.2169,1.3504,1.2138,1.0687,1.1596,1.1819,1.1763,1.1472,1.1424,1.1072,0.9706,1.0681,1.1414,1.0272,1.0518,1.0705,0.9777,0.8607,0.7573,0.6908,0.681,0.6797,0.6763,0.679,0.6681,0.6349,0.6281,0.6338,0.6338,0.6338,0.6338,0.6338,0.6396,0.6491,0.6532,0.679,0.6946,0.6987,0.7088,0.7143,0.7143,0.7143,0.7143,0.7143,0.7231,0.7387,0.7621,0.7668,0.7832,0.8038,0.8038,0.8038,0.8038,0.8038,0.8038,0.8038,0.8038,0.8038,0.8038,1.0771,0.0,0.0,1.0708,0.0,0.0,1.2845,1.3341,0.0,1.3799,1.4254,0.0,1.4542,1.6181,1.7022,1.6487,1.7429,0.0,1.5888,0.0,0.0,1.2552,1.1648,1.0795,0.9849,0.9029,0.0,0.8618,0.9216,0.9494,0.952,1.0929,0.0,0.0,0.0,1.1996,1.1502,1.2713,1.2638,1.1832,1.1477,1.084,0.0,0.9592,0.9545,0.988,1.0426,1.112,1.1637,1.1115,1.0993,1.0952,1.0419,1.116,1.2272,1.2845,1.2866,1.3069,1.4328,1.363,1.2716,1.3403,1.3596,1.3499,1.2909,1.2813,1.2425,1.1072,1.1365,1.1619,1.0729,1.0532,1.0247,0.9216,0.8019,0.7075,0.6946,0.698,0.6973,0.6844,0.6892,0.6803,0.6485,0.6451,0.6396,0.6274,0.6322,0.6329,0.6268,0.6396,0.6505,0.6573,0.6865,0.7021,0.7021,0.717,0.721,0.7143,0.7143,0.7143,0.7143,0.7231,0.7326,0.7563,0.7622,0.7832,0.8038,0.8038,0.8038,0.8038,0.8038,0.8038,0.8038,0.8038,0.8038,0.8038,0.0,0.0,0.0,0.0,0.0,0.0,0.0,1.2893,0.0,1.4148,0.0,1.4688,1.4616,1.5803,1.6505,1.6134,0.0,1.6937,1.5484,1.5036,1.3925,1.1676,1.1078,0.998,0.8083,0.7733,0.7642,0.0,0.7897,0.8604,0.9744,1.0656,0.0,0.0,0.0,0.0,0.0,1.283,1.1629,0.9497,1.1381,1.0299,0.7745,0.8729,0.8524,0.8007,0.9364,1.0591,1.1467,1.0369,0.9979,0.9788,0.8641,0.9145,1.0538,1.1758,1.2998,1.4183,1.5473,1.5639,1.5629,1.5737,1.5832,1.5534,1.4364,1.4172,1.3776,1.2425,1.2134,1.2145,1.195,1.1566,1.082,0.9457,0.8223,0.7312,0.7054,0.7122,0.7095,0.6817,0.6905,0.0,0.6749,0.6715,0.6586,0.6308,0.6403,0.641,0.6345,0.6396,0.6532,0.6668,0.6959,0.7122,0.7143,0.7272,0.7285,0.717,0.7149,0.7143,0.7143,0.7319,0.7415,0.7634,0.7684,0.7839,0.8038,0.8038,0.8038,0.8038,0.8038,0.8038,0.8038,0.8038,0.8038,0.8038,0.0,0.0,0.0,0.0,0.0,1.0603,1.0617,1.2005,1.3507,1.4641,1.5271,1.5458,1.5271,1.6259,1.6743,1.6149,1.6259,0.0,0.0,0.0,0.0,1.2193,1.01,0.8756,0.835,0.7171,0.6627,0.6748,0.847,0.9518,0.9878,1.1617,0.0,0.0,0.0,0.0,1.2975,1.2276,1.1876,1.1638,1.1123,1.0045,0.8729,0.8088,0.7875,0.8021,0.9405,1.013,1.0281,0.9921,0.9934,0.9979,0.9755,1.0547,1.1843,1.3171,1.3695,1.4196,1.5478,1.5057,1.4459,1.5534,1.5832,1.5737,1.5534,1.5439,1.514,1.3776,1.3584,1.3199,1.2145,1.0894,0.9975,0.9725,0.8472,0.7543,0.7489,0.7502,0.7455,0.7272,0.7278,0.719,0.6912,0.6776,0.6627,0.6451,0.6458,0.641,0.6345,0.6396,0.6485,0.6512,0.681,0.7021,0.7136,0.717,0.7231,0.7326,0.7204,0.7143,0.7143,0.7143,0.7326,0.7634,0.7581,0.7733,0.8038,0.8038,0.8038,0.8038,0.8038,0.8038,0.8038,0.8038,0.8038,0.8038,0.0,0.0,0.0,0.0,0.0,0.0,0.0,1.0599,1.1596,1.4968,1.5311,1.5217,1.5177,1.5879,1.6176,1.5571,1.5514,1.5043,1.4041,1.2917,1.1809,1.0605,0.9183,0.8106,0.759,0.6827,0.6417,0.6519,0.872,1.022,1.0931,1.2384,1.3066,1.32,0.0,1.2687,0.0,1.2014,1.1316,1.0539,1.0649,0.9696,0.82,0.8464,0.8225,0.8021,0.9445,0.9993,1.0066,1.0669,1.0937,1.095,1.0974,1.19,1.3025,1.3743,1.4398,1.4975,1.5642,1.5343,1.5045,1.5629,1.5832,1.5832,1.5832,1.5832,1.5642,1.5045,1.4364,1.3488,1.2145,1.1376,1.0922,1.0922,1.0272,0.9793,0.969,0.9776,0.9664,0.9371,0.9337,0.9233,0.8862,0.8247,0.7506,0.6688,0.6661,0.6607,0.6383,0.6586,0.6675,0.6593,0.6959,0.7156,0.7143,0.7217,0.7258,0.7251,0.7177,0.7143,0.7143,0.7143,0.7286,0.7605,0.7621,0.7733,0.8038,0.8038,0.8038,0.8038,0.8038,0.8038,0.8038,0.8038,0.8038,0.8038,0.0,0.8708,0.0,0.0,0.6986,0.8268,1.19,1.0872,1.1161,1.5248,1.5297,1.4977,1.5124,1.5484,1.5498,1.5003,1.491,1.419,1.2443,1.2066,1.1016,0.8922,0.8338,0.7635,0.681,0.6586,0.6525,0.6641,0.8901,1.0542,1.1683,1.2768,1.3226,1.3114,1.2894,1.237,1.1532,1.1532,1.0498,0.899,1.0061,0.9272,0.754,0.8752,0.8594,0.807,0.9461,1.0002,1.019,1.1463,1.1873,1.1903,1.2196,1.3091,1.3957,1.4242,1.4981,1.5832,1.5832,1.5832,1.5832,1.5832,1.5832,1.5832,1.5832,1.5832,1.5832,1.5832,1.5045,1.398,1.292,1.2522,1.2328,1.2328,1.2037,1.1889,1.1803,1.1731,1.1558,1.115,1.1069,1.0947,1.0636,0.9575,0.8422,0.7231,0.6963,0.681,0.6532,0.6776,0.6871,0.6756,0.7122,0.7278,0.719,0.7278,0.7278,0.719,0.7156,0.7143,0.7143,0.7177,0.7285,0.7554,0.7621,0.7799,0.8038,0.8038,0.8038,0.8038,0.8038,0.8038,0.8038,0.8038,0.8038,0.8038,0.0,0.0,0.0,0.0,0.0,0.9006,1.4506,1.5222,1.5248,1.5737,1.5765,1.5725,1.5752,1.5484,1.5204,1.499,1.471,1.3883,1.2431,1.1295,1.0181,0.8811,0.753,0.6785,0.6715,0.6552,0.6614,0.6892,0.9237,1.0437,1.0747,1.2634,1.2888,1.1686,1.1662,1.1224,1.0366,1.0366,0.9819,0.8903,0.917,0.8627,0.7597,0.7842,0.7993,0.8117,0.9501,1.0002,1.019,1.1463,1.1853,1.2145,1.3307,1.3776,1.4148,1.5317,1.5724,1.5832,1.5832,1.5832,1.5832,1.5832,1.5832,1.5832,1.5832,1.5832,1.5832,1.5832,1.5724,1.5534,1.5439,1.4459,1.368,1.368,1.2716,1.194,1.192,1.1632,1.1412,1.1273,1.098,1.077,1.0626,0.9575,0.8877,0.8669,0.7591,0.6858,0.6688,0.6837,0.6919,0.6905,0.7075,0.7224,0.7346,0.7224,0.7224,0.7346,0.721,0.7143,0.7143,0.7285,0.7478,0.7639,0.7773,0.7875,0.8038,0.8038,0.8038,0.8038,0.8038,0.8038,0.8038,0.8038,0.8038,0.8038,0.0,0.0,0.0,0.0,0.9853,1.308,1.5439,1.5832,1.5832,1.5832,1.5832,1.5832,1.5832,1.5685,1.5431,1.5003,1.3926,1.2674,1.1402,1.0183,0.9026,0.7831,0.7168,0.6824,0.6783,0.6763,0.6851,0.7054,0.937,1.0525,1.0605,1.2843,1.3233,1.1945,1.1335,1.0439,0.9379,0.9497,0.8979,0.8005,0.8169,0.7966,0.774,0.7889,0.7984,0.8038,0.8627,0.8825,0.9023,1.0288,1.1843,1.3199,1.368,1.4459,1.514,1.5629,1.5832,1.5832,1.5832,1.5832,1.5832,1.5832,1.5832,1.5832,1.5832,1.5832,1.5832,1.5832,1.5832,1.5832,1.5832,1.5343,1.5045,1.5045,1.4567,1.4268,1.4268,1.4039,1.3773,1.3519,1.3254,1.2988,1.2723,1.1649,1.0692,1.0009,0.8123,0.6993,0.6844,0.6973,0.7014,0.6932,0.7068,0.717,0.7231,0.717,0.717,0.7231,0.717,0.719,0.7278,0.7244,0.7373,0.7631,0.7834,0.7963,0.8038,0.8038,0.8038,0.8038,0.8038,0.8038,0.8038,0.8038,0.8038,0.8038,0.8038,0.7674,0.7831,0.9355,1.308,1.5832,1.5832,1.5832,1.5832,1.5832,1.5832,1.5832,1.5832,1.5671,1.5193,1.427,1.3016,1.163,1.0193,0.9323,0.8345,0.7082,0.698,0.6912,0.6865,0.6905,0.7,0.7143,0.9192,1.0183,1.0183,1.2273,1.2569,1.1422,1.0632,0.9625,0.8456,0.8567,0.8178,0.7387,0.7584,0.7719,0.7828,0.7984,0.8038,0.8038,0.8038,0.8038,0.8137,0.9122,1.0867,1.2909,1.368,1.4555,1.5343,1.5737,1.5832,1.5832,1.5832,1.5832,1.5832,1.5832,1.5832,1.5832,1.5832,1.5832,1.5832,1.5832,1.5832,1.5832,1.5832,1.5832,1.5832,1.5832,1.5832,1.5832,1.5832,1.5511,1.519,1.499,1.4629,1.4309,1.4108,1.3027,1.198,1.1123,0.8965,0.7446,0.6993,0.7088,0.7095,0.6993,0.7439,0.7665,0.7665,0.7665,0.7665,0.7665,0.7224,0.7396,0.8004,0.8328,0.8582,0.871,0.8652,0.8556,0.845,0.8144,0.8038,0.8038,0.8038,0.8038,0.8038,0.8038,0.8038,0.8038,0.8038,0.8042,0.9647,1.4779,1.5737,1.5832,1.5832,1.5832,1.5832,1.5832,1.5832,1.5832,1.5832,1.5324,1.4334,1.2606,1.2023,1.0971,0.9061,0.8894,0.8289,0.6939,0.6932,0.6926,0.6926,0.6926,0.7,0.7143,0.8438,0.9148,0.9156,1.0524,1.0527,0.9326,0.9142,0.8532,0.7458,0.7464,0.7373,0.74,0.7692,0.7807,0.7828,0.7984,0.8038,0.8038,0.8038,0.8038,0.8038,0.8038,0.8924,1.0485,1.3102,1.3872,1.4172,1.5439,1.5832,1.5832,1.5832,1.5832,1.5832,1.5832,1.5832,1.5832,1.5832,1.5832,1.5832,1.5832,1.5832,1.5832,1.5832,1.5832,1.5832,1.5832,1.5832,1.5832,1.5832,1.5337,1.4963,1.4963,1.4442,1.4095,1.4082,1.3027,1.2322,1.2237,1.0183,0.8368,0.7136,0.7136,0.7143,0.7136,0.8281,0.8886,0.8886,0.8886,0.8886,0.8894,0.7665,0.7834,0.9354,1.0939,1.1596,1.1417,1.0378,0.9797,0.9383,0.845,0.8038,0.8038,0.8038,0.8038,0.8038,0.8038,0.8038,0.8038,0.8038,0.7977,0.9689,1.4924,1.5832,1.5832,1.5832,1.5832,1.5832,1.5832,1.5832,1.5832,1.5832,1.5311,1.4334,1.2506,1.1051,0.9836,0.8973,0.8105,0.7467,0.7075,0.7854,0.7854,0.7075,0.7854,0.7937,0.7299,0.8501,0.9578,1.0433,1.0048,0.9714,0.9258,0.8573,0.7987,0.7529,0.7529,0.7584,0.7672,0.7672,0.7787,0.797,0.8018,0.8038,0.8038,0.8038,0.8038,0.8038,0.8038,0.8237,0.9114,1.1745,1.3199,1.4172,1.5439,1.5832,1.5832,1.5832,1.5832,1.5832,1.5832,1.5832,1.5832,1.5832,1.5832,1.5832,1.5832,1.5832,1.5832,1.5832,1.5832,1.5832,1.5832,1.5832,1.5765,1.5565,1.5204,1.4897,1.4683,1.4496,1.4389,1.4389,1.403,1.3561,1.2951,1.1138,0.9575,0.8368,0.7685,0.7251,0.7143,0.8383,0.9013,0.8894,0.9662,0.9662,0.8894,0.9314,0.9689,1.0211,1.099,1.1281,1.1394,1.1085,1.0545,0.9797,0.9482,0.8862,0.8038,0.8038,0.8038,0.8038,0.8038,0.8038,0.8038,1.0574,1.0965,1.193,1.5248,1.4172,1.3488,1.5534,1.5832,1.5832,1.5832,1.5832,1.5832,1.5832,1.4646,1.3294,1.1816,0.9842,0.8536,0.8281,0.7489,0.734,0.793,0.8641,0.873,0.793,0.8641,0.8488,0.7285,0.8117,0.8991,0.9818,0.9139,0.8798,0.8798,0.8083,0.776,0.7678,0.7678,0.7733,0.7807,0.778,0.7875,0.8038,0.8038,0.8038,0.8038,0.8038,0.8336,0.8726,0.8726,0.9114,0.9797,1.194,1.3199,1.4172,1.5439,1.5832,1.5832,1.5832,1.5832,1.5832,1.5832,1.5832,1.5832,1.5832,1.5832,1.5832,1.5832,1.5832,1.5832,1.5832,1.5832,1.5832,1.5832,1.5738,1.5605,1.5418,1.5057,1.4723,1.4536,1.4522,1.4522,1.4522,1.4522,1.4239,1.3696,1.2312,1.0912,0.9693,0.8154,0.7265,0.7231,0.8414,0.9004,0.8894,0.9575,0.9575,0.8894,0.9745,1.0387,1.0835,1.1192,1.1538,1.1935,1.1234,1.0532,0.9769,0.9418,0.8763,0.8038,0.8038,0.8038,0.8038,0.8038,0.8038,0.8038,1.4854,1.5832,1.5832,1.5832,1.1444,0.9797,1.4949,1.5534,1.5248,1.5248,1.5248,1.5248,1.5248,1.3113,1.1323,1.0514,0.8496,0.7258,0.717,0.717,0.7767,0.9264,0.9345,0.9345,0.9272,0.9345,0.8649,0.7183,0.7482,0.7699,0.7828,0.797,0.8038,0.8031,0.7889,0.7828,0.7828,0.7814,0.7814,0.7841,0.797,0.8031,0.8038,0.8038,0.8038,0.8038,0.8038,0.8825,1.0002,1.0002,1.0877,1.2145,1.3488,1.3872,1.4172,1.5439,1.5832,1.5832,1.5832,1.5832,1.5832,1.5832,1.5832,1.5832,1.5832,1.5832,1.5832,1.5832,1.5832,1.5832,1.5832,1.5832,1.5818,1.5805,1.5578,1.5378,1.5337,1.4856,1.4509,1.4496,1.4509,1.4522,1.4522,1.4522,1.4536,1.4576,1.3461,1.2203,1.093,0.8585,0.7327,0.738,0.8399,0.892,0.8911,0.8982,0.8973,0.8982,0.9178,0.9894,1.1049,1.1477,1.2128,1.2791,1.0875,0.9887,0.9511,0.8503,0.8038,0.8038,0.8038,0.8038,0.8038,0.8038,0.8038,0.8038,1.5534,1.5832,1.5832,1.5832,1.1444,0.9797,1.4949,1.2415,0.9895,0.9895,0.9895,0.9895,0.9895,0.9312,0.8856,0.8601,0.873,0.8398,0.7581,0.7489,0.8051,0.9359,1.0139,1.0129,0.9451,1.0129,0.9548,0.7651,0.7841,0.795,0.7984,0.8024,0.8038,0.8038,0.7997,0.7984,0.7977,0.7862,0.7875,0.7977,0.7896,0.7936,0.8038,0.8038,0.8038,0.8038,0.8038,0.8825,1.0002,1.0002,1.0877,1.2145,1.3488,1.3872,1.4172,1.5439,1.5832,1.5832,1.5832,1.5832,1.5832,1.5832,1.5832,1.5832,1.5832,1.5832,1.5832,1.5832,1.5832,1.5832,1.5832,1.5832,1.5752,1.5538,1.5444,1.5244,1.479,1.4603,1.4442,1.4215,1.4389,1.4522,1.4522,1.4522,1.471,1.515,1.3671,1.2428,1.1687,0.9943,0.8506,0.7543,0.8606,0.915,0.9089,0.9823,1.0183,1.0183,0.9578,0.9839,1.087,1.1131,1.1507,1.1807,1.1342,1.0656,0.9841,0.9641,0.8901,0.8038,0.8038,0.8038,0.8038,0.8038,0.8038,0.8038,1.5343,1.5832,1.5832,1.5832,1.3488,1.1745,1.2134,0.9797,0.8038,0.8038,0.8038,0.8038,0.8038,0.8038,0.8038,0.8038,0.8379,0.8291,0.7604,0.7597,0.8182,0.9554,1.0667,1.075,0.9648,1.0667,1.0075,0.7611,0.7828,0.7902,0.7841,0.7977,0.8038,0.8038,0.8038,0.8038,0.8031,0.795,0.7963,0.8031,0.795,0.7963,0.8038,0.8038,0.8329,0.8924,0.8924,1.019,1.1745,1.1745,1.2619,1.3788,1.4555,1.4758,1.4854,1.5629,1.5832,1.5832,1.5832,1.5832,1.5832,1.5832,1.5832,1.5832,1.5832,1.5832,1.5832,1.5832,1.5832,1.5832,1.5832,1.5832,1.5738,1.5444,1.5284,1.5044,1.4589,1.4402,1.4309,1.4295,1.4549,1.4776,1.491,1.4923,1.5057,1.5378,1.454,1.3353,1.1768,1.0991,0.9742,0.7794,0.819,0.8474,0.8383,0.8919,0.9229,0.9229,0.8706,0.9116,1.0113,0.9757,0.9991,1.0564,1.0088,0.96,0.9099,0.9099,0.8612,0.8038,0.8038,0.8038,0.8038,0.8038,0.8038,0.8038,1.4758,1.5832,1.5832,1.5832,1.5153,1.3102,0.8726,0.8038,0.8038,0.8038,0.8038,0.8038,0.8038,0.8038,0.8038,0.8038,0.7882,0.7753,0.7672,0.7665,0.8284,0.9748,1.0772,1.0868,0.9853,1.0705,0.9982,0.7468,0.7726,0.7787,0.7672,0.7923,0.8038,0.8038,0.8038,0.8038,0.8038,0.8038,0.8038,0.8038,0.8038,0.8038,0.8038,0.8038,0.8825,1.0002,1.0002,1.1648,1.3872,1.3872,1.4758,1.5832,1.5832,1.5832,1.5832,1.5832,1.5832,1.5832,1.5832,1.5832,1.5832,1.5832,1.5832,1.5832,1.5832,1.5832,1.5832,1.5832,1.5832,1.5832,1.5832,1.5629,1.5442,1.5444,1.4969,1.4678,1.4563,1.4309,1.4242,1.4496,1.479,1.5057,1.5311,1.5337,1.5351,1.5391,1.5391,1.4359,1.2026,1.1935,1.0697,0.8229,0.7801,0.7617,0.7597,0.7617,0.7617,0.7597,0.7645,0.8117,0.9019,0.8254,0.8326,0.9196,0.8371,0.8038,0.8038,0.8038,0.8038,0.8038,0.8038,0.8038,0.8038,0.8038,0.8038,0.8038,1.4758,1.5832,1.5832,1.5832,1.2124,0.8916,0.8137,0.8038,0.8038,0.8038,0.8038,0.8038,0.8038,0.8038,0.8038,0.8038,0.8011,0.7984,0.797,0.797,0.8568,0.9951,0.9895,0.9887,0.9951,0.9076,0.8371,0.7936,0.7984,0.7991,0.797,0.8018,0.8038,0.8038,0.8038,0.8038,0.8038,0.8038,0.8038,0.8038,0.8038,0.8038,0.8038,0.8038,0.8825,1.0002,1.0002,1.1648,1.3872,1.3872,1.4758,1.5832,1.5832,1.5832,1.5832,1.5832,1.5832,1.5832,1.5832,1.5832,1.5832,1.5832,1.5832,1.5832,1.5832,1.5832,1.5832,1.5832,1.5832,1.5832,1.5832,1.4949,1.4469,1.5259,1.4214,1.3566,1.4375,1.4482,1.4469,1.4522,1.479,1.4977,1.503,1.503,1.5137,1.5378,1.5391,1.4833,1.3611,1.2501,1.1249,0.9665,0.843,0.7719,0.7604,0.7719,0.7719,0.7604,0.7855,0.8,0.8069,0.8034,0.8103,0.8202,0.8024,0.8038,0.8038,0.8038,0.8038,0.8038,0.8038,0.8038,0.8038,0.8144,0.8144,0.8038,1.1161,1.1638,1.1638,1.1638,0.96,0.8038,0.8038,0.8038,0.8038,0.8038,0.8038,0.8038,0.8038,0.8038,0.8038,0.8038,0.8038,0.8038,0.8038,0.8038,0.8237,0.8924,0.9429,0.9811,0.9993,0.8726,0.7997,0.7916,0.7997,0.7997,0.7916,0.7997,0.8038,0.8038,0.8726,0.8627,0.8038,0.8726,0.9114,0.9023,0.8336,0.8428,0.9114,0.9114,0.9895,1.117,1.1843,1.3295,1.4949,1.4949,1.5343,1.5832,1.5832,1.5832,1.5832,1.5832,1.5832,1.5832,1.5832,1.5832,1.5832,1.5832,1.5832,1.5832,1.5832,1.5832,1.5629,1.4949,1.4758,1.4567,1.3788,1.321,1.2929,1.3251,1.2629,1.2246,1.2586,1.2549,1.2827,1.3845,1.4085,1.4498,1.5325,1.5431,1.5484,1.5618,1.5631,1.5106,1.3968,1.3295,1.2037,1.0092,0.8652,0.7902,0.7834,0.7902,0.7902,0.7841,0.7977,0.8004,0.7936,0.8011,0.8038,0.8038,0.8038,0.8038,0.8038,0.8038,0.8038,0.8038,0.8038,0.8038,0.8052,0.8268,0.8233,0.8157,0.8038,0.8038,0.8038,0.8038,0.8038,0.8038,0.8038,0.8038,0.8038,0.8038,0.8038,0.8038,0.8038,0.8038,0.8038,0.8038,0.8038,0.8038,0.8038,0.8038,0.8038,0.8038,0.9023,0.9509,0.9509,0.8528,0.7984,0.7862,0.7984,0.7977,0.7868,0.7984,0.8137,0.8528,0.9509,0.9608,0.9015,0.9993,1.0485,1.0386,0.9312,0.9509,1.0485,1.0485,1.1268,1.2522,1.3488,1.4746,1.5832,1.5832,1.5832,1.5832,1.5832,1.5832,1.5832,1.5832,1.5832,1.5832,1.5832,1.5832,1.5832,1.5832,1.5832,1.5737,1.5439,1.5343,1.4949,1.368,1.3392,1.3102,1.2037,1.1658,1.1502,1.1612,1.1214,1.0983,1.1159,1.1019,1.1496,1.2785,1.298,1.3566,1.4734,1.4854,1.5045,1.5343,1.5343,1.5045,1.4364,1.4076,1.2716,1.01,0.8726,0.8038,0.8038,0.8038,0.8038,0.8038,0.8038,0.8038,0.8038,0.8038,0.8038,0.8038,0.8038,0.8038,0.8038,0.8038,0.8038,0.8038,0.8038,0.8038,0.8065,0.8269,0.8348,0.8362,0.8038,0.8038,0.8038,0.8038,0.8038,0.8038,0.8038,0.8038,0.8038,0.8038,0.8038,0.8038,0.8038,0.8038,0.8038,0.8038,0.8038,0.8038,0.8038,0.8038,0.8038,0.8038,0.8137,0.8137,0.8137,0.8038,0.8031,0.8024,0.8031,0.8031,0.8024,0.8031,0.8627,0.9903,1.0002,1.0583,1.1658,1.1755,1.1755,1.1755,1.1658,1.1658,1.1755,1.1755,1.2619,1.3776,1.3872,1.4746,1.5832,1.5832,1.5832,1.5832,1.5832,1.5832,1.5832,1.5832,1.5832,1.5832,1.5832,1.5832,1.5832,1.5832,1.5832,1.5534,1.4268,1.4064,1.368,1.2328,1.2047,1.2047,1.195,1.0974,1.0485,1.1638,1.0587,1.007,1.1293,1.1462,1.1462,1.1586,1.1884,1.2027,1.2145,1.2242,1.2716,1.3968,1.4064,1.4555,1.5629,1.4555,1.2716,1.01,0.8726,0.8038,0.8038,0.8038,0.8038,0.8038,0.8038,0.8038,0.8038,0.8038,0.8038,0.8038,0.8038,0.8038,0.8038,0.8038,0.8038,0.8038,0.8038,0.8038,0.8065,0.8371,0.8367,0.8353,0.7335,0.8038,0.8038,0.8038,0.8038,0.8038,0.8038,0.8038,0.8038,0.8038,0.8038,0.8038,0.8038,0.8038,0.8038,0.8038,0.8038,0.8038,0.8038,0.8038,0.8038,0.8038,0.8038,0.8038,0.8038,0.8038,0.8038,0.8038,0.8038,0.8428,0.9213,0.8428,0.9114,1.117,1.117,1.1463,1.195,1.2813,1.3102,1.3102,1.2231,1.2425,1.3102,1.3102,1.3488,1.3968,1.4758,1.5439,1.5832,1.5832,1.5832,1.5832,1.5832,1.5832,1.5832,1.5832,1.5832,1.5832,1.5832,1.5832,1.5832,1.5832,1.5248,1.4459,1.3968,1.3295,1.2328,1.0974,1.0681,1.0485,0.9608,0.9114,0.8924,0.941,0.8878,0.8609,0.9291,0.9308,0.9565,1.0448,1.0635,1.1072,1.1853,1.195,1.2145,1.2619,1.2619,1.2909,1.3403,1.2134,1.1063,1.0002,0.8726,0.8038,0.8038,0.8038,0.8038,0.8038,0.8038,0.8038,0.8038,0.8038,0.8038,0.8038,0.8038,0.8038,0.8038,0.8038,0.8045,0.7959,0.7959,0.7965,0.7999,0.8253,0.8387,0.8488,0.4722,0.5522,0.5522,0.5522,0.5522,0.5522,0.5522,0.5522,0.6126,0.7739,0.8038,0.8038,0.8038,0.8038,0.8038,0.8038,0.8038,0.8038,0.8038,0.8038,0.8038,0.8038,0.8038,0.8038,0.8038,0.8038,0.8038,0.8038,0.8038,0.8428,0.9312,0.8428,0.941,1.195,1.195,1.2145,1.2619,1.398,1.4268,1.3872,1.3307,1.3692,1.4459,1.4459,1.4459,1.4651,1.5534,1.5832,1.5845,1.5939,1.5912,1.5845,1.5939,1.5899,1.5872,1.6046,1.6032,1.5992,1.6072,1.6099,1.5963,1.5382,1.4328,1.3213,1.2824,1.2041,1.0987,0.9762,0.9578,0.9276,0.8275,0.814,0.8113,0.8113,0.7984,0.7923,0.8024,0.795,0.821,0.9296,0.941,0.9706,1.0583,1.0681,1.0877,1.1268,1.1268,1.1463,1.1853,1.0681,1.0002,1.0002,0.8726,0.8038,0.8038,0.8038,0.8038,0.8038,0.8038,0.8038,0.8038,0.8038,0.8038,0.8038,0.8038,0.8045,0.8052,0.8052,0.7959,0.7879,0.7054,0.6776,0.6737,0.6939,0.7687,0.8635,-0.0,-0.0,-0.0,-0.0,-0.0,-0.0,-0.0,-0.0,0.1913,0.7235,0.7939,0.8038,0.8038,0.8038,0.8038,0.8038,0.8038,0.8038,0.8038,0.8038,0.8038,0.8038,0.8038,0.8038,0.8038,0.8038,0.8038,0.8038,0.8038,0.8038,0.8038,0.8038,0.941,1.195,1.1853,1.2619,1.3968,1.5248,1.5045,1.3968,1.5248,1.5832,1.5832,1.5832,1.5832,1.5832,1.5832,1.5832,1.5872,1.6179,1.6072,1.5885,1.6179,1.6072,1.5952,1.6526,1.65,1.6339,1.662,1.6714,1.6255,1.4401,1.3084,1.1873,1.0466,1.0163,0.9916,0.8758,0.8479,0.8479,0.8479,0.837,0.8275,0.8275,0.814,0.8045,0.8038,0.8038,0.8038,0.8038,0.8038,0.8038,0.8038,0.8045,0.8535,0.9903,1.0002,1.0583,1.1755,1.0681,1.0002,1.0002,0.8726,0.8038,0.8038,0.8038,0.8038,0.8038,0.8038,0.8038,0.8038,0.8038,0.8038,0.8038,0.8038,0.7952,0.7972,0.7972,0.7979,0.7785,0.5027,0.396,0.393,0.4005,0.5915,0.8464,-0.0,-0.0,-0.0,-0.0,-0.0,-0.0,-0.0,-0.0,0.0605,0.2215,0.5622,0.8045,0.7959,0.8052,0.8038,0.8038,0.8038,0.8038,0.8038,0.8038,0.8038,0.8038,0.8038,0.8038,0.8038,0.8038,0.8038,0.8038,0.8038,0.8528,0.941,0.8428,0.941,1.1853,1.0974,1.1258,1.2522,1.2909,1.3403,1.3968,1.4268,1.5045,1.5832,1.5832,1.5832,1.5832,1.5832,1.5965,1.6152,1.6246,1.6353,1.642,1.6313,1.6219,1.6179,1.6353,1.6486,1.6593,1.6687,1.5401,1.4012,1.4294,1.3355,1.2089,1.0664,0.9641,0.8938,0.8577,0.8479,0.8479,0.8479,0.8445,0.8418,0.8418,0.8377,0.8316,0.8214,0.8201,0.816,0.8052,0.8133,0.8201,0.8201,0.8289,0.8515,0.8809,0.8692,0.8726,0.9114,0.8825,0.8627,0.8627,0.8237,0.8038,0.8038,0.8038,0.8038,0.8038,0.8038,0.8038,0.8038,0.8038,0.8038,0.8038,0.8038,0.7952,0.7972,0.7972,0.7992,0.7912,0.7089,0.4489,0.1142,0.116,0.3117,0.5704,-0.0,-0.0,-0.0,-0.0,-0.0,-0.0,-0.0,-0.0,-0.0,-0.0,0.2814,0.5622,0.7766,0.7959,0.8052,0.8038,0.8038,0.8038,0.8038,0.8038,0.8038,0.8038,0.8038,0.8038,0.8038,0.8038,0.8038,0.8038,0.8038,0.8435,0.9213,0.8336,0.9114,1.1072,1.0386,1.0386,1.117,1.1658,1.2328,1.3199,1.368,1.4651,1.5832,1.5832,1.5832,1.5832,1.5832,1.6019,1.6286,1.6406,1.6633,1.6834,1.654,1.6038,1.5681,1.5897,1.5593,1.5348,1.5971,1.4641,1.3138,1.3843,1.2486,1.0862,0.9926,0.9097,0.8587,0.8648,0.8662,0.8662,0.8662,0.8615,0.8574,0.8574,0.852,0.8452,0.8364,0.8303,0.8235,0.814,0.8214,0.8248,0.8187,0.8309,0.8364,0.8275,0.8235,0.8214,0.8214,0.8214,0.8187,0.8133,0.8187,0.816,0.8038,0.8099,0.8099,0.8038,0.8038,0.8038,0.8038,0.8038,0.8072,0.8126,0.8065,0.7985,0.7945,0.7272,0.6753,0.6268,0.5293,0.2888,0.0315,0.2675,0.4684,0.6093,-0.0,-0.0,-0.0,-0.0,-0.0,-0.0,-0.0,-0.0,-0.0,-0.0,-0.0,0.1908,0.7059,0.7666,0.7759,0.7939,0.8038,0.8038,0.8038,0.8038,0.8038,0.8038,0.8038,0.8038,0.8038,0.8038,0.8038,0.8038,0.8038,0.8038,0.8038,0.8038,0.8627,0.9805,0.9805,0.9805,0.9903,1.1072,1.1658,1.1853,1.3199,1.4459,1.5439,1.5534,1.5629,1.5629,1.5534,1.5717,1.6117,1.6295,1.657,1.6741,1.6478,1.5493,1.4572,1.5036,1.406,1.3213,1.482,1.4126,1.3048,1.3048,1.0866,0.873,0.873,0.873,0.8771,0.8913,0.894,0.894,0.894,0.8825,0.873,0.873,0.8615,0.852,0.8506,0.8391,0.8303,0.8289,0.8303,0.8255,0.8113,0.8228,0.8309,0.8309,0.8418,0.8479,0.8479,0.8479,0.8425,0.8296,0.8418,0.835,0.8079,0.8221,0.8208,0.8038,0.8038,0.8038,0.8038,0.8038,0.8126,0.8262,0.8119,0.8052,0.7878,0.6305,0.5148,0.4145,0.175,0.0629,0.1067,0.6448,0.8472,0.8109,-0.0,-0.0,-0.0,-0.0,-0.0,-0.0,-0.0,-0.0,-0.0,-0.0,-0.0,0.1204,0.4533,0.483,0.5727,0.7839,0.8038,0.8038,0.8038,0.8038,0.8038,0.8038,0.8038,0.8038,0.8038,0.8038,0.8038,0.8038,0.8038,0.8038,0.8038,0.8038,0.8137,0.8428,0.8428,0.8428,0.8428,0.8726,0.941,1.0485,1.1843,1.2533,1.2823,1.3884,1.4268,1.4172,1.3113,1.3562,1.4604,1.3847,1.3663,1.3583,1.3529,1.3339,1.3195,1.3288,1.3306,1.3311,1.3685,1.2724,1.1538,1.1538,1.021,0.8893,0.8893,0.8893,0.8899,0.8933,0.894,0.894,0.894,0.8913,0.8893,0.8893,0.8859,0.8798,0.8676,0.8635,0.8567,0.8452,0.854,0.8601,0.8567,0.8594,0.8615,0.8615,0.8533,0.8479,0.8479,0.8479,0.8465,0.8438,0.8465,0.8452,0.8384,0.8418,0.8303,0.8038,0.8038,0.8038,0.8038,0.8038,0.8126,0.8269,0.8235,0.8206,0.8249,0.7792,0.7577,0.7491,0.6879,0.5346,0.3685,0.5013,0.541,0.5712,-0.0,-0.0,-0.0,-0.0,-0.0,-0.0,-0.0,-0.0,-0.0,-0.0,-0.0,0.0503,0.1917,0.2115,0.3717,0.7633,0.8038,0.8038,0.8038,0.8038,0.8038,0.8038,0.8038,0.8038,0.8038,0.8038,0.8038,0.8038,0.8038,0.8038,0.8038,0.8038,0.8038,0.8038,0.8038,0.8038,0.8038,0.8038,0.8726,1.0092,1.0681,1.1365,1.195,1.2716,1.2909,1.2813,1.2134,1.2573,1.3303,1.2832,1.2771,1.2749,1.2759,1.2384,1.2024,1.2024,1.1567,1.1319,1.2082,1.1219,1.0241,1.0891,1.0021,0.894,0.894,0.894,0.894,0.894,0.894,0.894,0.894,0.894,0.894,0.894,0.894,0.8913,0.8832,0.8757,0.8682,0.8601,0.8662,0.871,0.871,0.871,0.871,0.871,0.8703,0.8703,0.8703,0.8703,0.8669,0.8594,0.8662,0.8628,0.8486,0.8554,0.8479,0.8248,0.8248,0.8214,0.8153,0.8221,0.8336,0.8479,0.8404,0.8459,0.8495,0.8421,0.8401,0.8526,0.8501,0.7696,0.6443,0.6613,0.6559,0.6826,-0.0,-0.0,-0.0,-0.0,-0.0,-0.0,-0.0,-0.0,-0.0,-0.0,-0.0,-0.0,-0.0,-0.0,0.2115,0.7534,0.8038,0.8038,0.8038,0.8038,0.8038,0.8038,0.8038,0.8038,0.8038,0.8038,0.8038,0.8038,0.8038,0.8038,0.8038,0.8038,0.8038,0.8038,0.8038,0.8038,0.8038,0.8038,0.8627,0.9706,0.9903,1.0485,1.1268,1.1463,1.156,1.156,1.1306,1.1458,1.175,1.1885,1.2086,1.2288,1.2087,1.1487,1.0672,1.0672,0.9809,0.9154,1.0351,0.9809,0.9154,1.046,0.9809,0.8947,0.8967,0.8974,0.8974,0.8974,0.8974,0.8967,0.8947,0.894,0.894,0.894,0.894,0.894,0.894,0.8832,0.875,0.875,0.875,0.875,0.875,0.875,0.875,0.875,0.8866,0.894,0.894,0.894,0.8879,0.8757,0.8872,0.8818,0.856,0.8682,0.8669,0.852,0.8547,0.8472,0.8309,0.8431,0.8567,0.8703,0.8574,0.8608,0.8743,0.8615,0.856,0.8574,0.8608,0.8669,0.8682,0.8836,0.8876,0.8863,-0.0,-0.0,-0.0,-0.0,-0.0,-0.0,-0.0,-0.0,-0.0,-0.0,-0.0,-0.0,-0.0,-0.0,0.2115,0.7534,0.8038,0.8038,0.8038,0.8038,0.8038,0.8038,0.8038,0.8038,0.8038,0.8038,0.8038,0.8038,0.8038,0.8038,0.8038,0.8038,0.8038,0.8038,0.8038,0.8038,0.8038,0.8038,0.8137,0.8336,0.9509,0.941,0.8627,0.9805,1.0288,1.0117,0.9191,0.894,0.9057,0.894,0.91,0.9241,0.9241,0.9247,0.9154,0.9154,0.9044,0.894,0.9154,0.9044,0.894,0.9154,0.9044,0.8974,0.9096,0.9123,0.9123,0.9123,0.9123,0.9089,0.896,0.894,0.894,0.894,0.894,0.894,0.894,0.892,0.8906,0.8906,0.8906,0.8906,0.8906,0.8906,0.8906,0.8906,0.8927,0.894,0.894,0.894,0.8927,0.8906,0.8927,0.892,0.8879,0.8899,0.8832,0.8682,0.8811,0.873,0.8452,0.8472,0.8567,0.871,0.8689,0.8764,0.8906,0.8886,0.8879,0.8879,0.8906,0.8913,0.892,0.885,0.8863,0.8863,-0.0,-0.0,-0.0,-0.0,-0.0,-0.0,-0.0,-0.0,-0.0,-0.0,-0.0,-0.0,-0.0,-0.0,0.0907,0.3318,0.6247,0.7979,0.7965,0.7959,0.7959,0.7959,0.8045,0.8038,0.8038,0.8038,0.8038,0.8038,0.8038,0.8038,0.8038,0.8038,0.8038,0.8038,0.8038,0.8038,0.8038,0.8038,0.8038,0.8038,0.8627,0.8528,0.8038,0.8627,0.8924,0.8847,0.8418,0.8364,0.8486,0.8506,0.8601,0.8723,0.8811,0.8886,0.894,0.894,0.894,0.894,0.894,0.894,0.896,0.9042,0.9055,0.9123,0.9354,0.9408,0.9381,0.93,0.9279,0.9259,0.9198,0.9184,0.9184,0.9184,0.9117,0.9089,0.9171,0.9042,0.894,0.894,0.894,0.894,0.894,0.894,0.894,0.894,0.894,0.894,0.894,0.894,0.894,0.894,0.894,0.894,0.894,0.894,0.8906,0.8838,0.8906,0.8825,0.8615,0.8696,0.8771,0.8838,0.8838,0.8886,0.885,0.8947,0.8947,0.885,0.885,0.8856,0.887,0.8876,0.785,0.6497]},{"header":{"parameterUnit":"m.s-1","parameterCategory":1,"la1":30.6,"la2":28.766,"lo1":-90.7593,"lo2":-88.6598,"dy":0.0162,"dx":0.0183,"nx":116,"ny":114,"refTime":"2023-06-20T06:00:00:Z","depth":0,"parameterNumber":3,"parameterNumberName":"V-component_of_WINDS"},"data":[0.0,0.0,0.0,0.0,0.0,0.0,0.0,0.0,0.0,0.0,0.0,0.0,0.0,0.0,0.0,0.0,0.0,0.0,0.0,0.0,0.0,0.0,0.0,0.0,0.0,0.0,0.0,0.0,0.0,0.0,0.0,0.0,0.0,0.0,0.0,0.0,0.0,0.0,0.0,0.0,0.0,0.0,0.0,0.0,0.0,0.0,0.0,0.0,0.0,0.0,0.0,0.0,0.0,0.0,0.0,0.0,0.0,0.0,0.0,0.0,0.0,0.0,0.0,0.0,0.0,0.0,0.0,0.0,0.0,0.0,0.0,0.0,0.0,0.0,0.0,0.0,0.0,0.0,0.0,0.0,0.0,0.0,0.0,0.0,0.0,0.0,0.0,0.0,0.0,0.0,0.0,0.0,0.0,0.0,0.0,0.0,0.0,0.0,0.0,0.0,0.0,0.0,0.0,0.0,0.0,0.0,0.0,0.0,0.0,0.0,0.0,0.0,0.0,0.0,0.0,0.0,0.0,0.0,0.0,0.0,0.0,0.0,0.0,0.0,0.0,0.0,0.0,0.0,0.0,0.0,0.0,0.0,0.0,0.0,0.0,0.0,0.0,0.0,0.0,0.0,0.0,0.0,0.0,0.0,0.0,0.0,0.0,0.0,0.0,0.0,0.0,0.0,0.0,0.0,0.0,0.0,0.0,0.0,0.0,0.0,0.0,0.0,0.0,0.0,0.0,0.0,0.0,0.0,0.0,0.0,0.0,0.0,0.0,0.0,0.0,0.0,0.0,0.0,0.0,0.0,0.0,0.0,0.0,0.0,0.0,0.0,0.0,0.0,0.0,0.0,0.0,0.0,0.0,0.0,0.0,0.0,0.0,0.0,0.0,0.0,0.0,0.0,0.0,0.0,0.0,0.0,0.0,0.0,0.0,0.0,0.0,0.0,0.0,0.0,0.0,0.0,0.0,0.0,0.0,0.0,0.0,0.0,0.0,0.0,0.0,0.0,0.0,0.0,0.0,0.0,0.0,0.0,0.0,0.0,0.0,0.0,0.0,0.0,0.0,0.0,0.0,0.0,0.0,0.0,0.0,0.0,0.0,0.0,0.0,0.0,0.0,0.0,0.0,0.0,0.0,0.0,0.0,0.0,0.0,0.0,0.0,0.0,0.0,0.0,0.0,0.0,0.0,0.0,0.0,0.0,0.0,0.0,0.0,0.0,0.0,0.0,0.0,0.0,0.0,0.0,0.0,0.0,0.0,0.0,0.0,0.0,0.0,0.0,0.0,0.0,0.0,0.0,0.0,0.0,0.0,0.0,0.0,0.0,0.0,0.0,0.0,0.0,0.0,0.0,0.0,0.0,0.0,0.0,0.0,0.0,0.0,0.0,0.0,0.0,0.0,0.0,0.0,0.0,0.0,0.0,0.0,0.0,0.0,0.0,0.0,0.0,0.0,0.0,0.0,0.0,0.0,0.0,0.0,0.0,0.0,0.0,0.0,0.0,0.0,0.0,0.0,0.0,0.0,0.0,0.0,0.0,0.0,0.0,0.0,0.0,0.0,0.0,0.0,0.0,0.0,0.0,0.0,0.0,0.0,0.0,0.0,0.0,0.0,0.0,0.0,0.0,0.0,0.0,0.0,0.0,0.0,0.0,0.0,0.0,0.0,0.0,0.0,0.0,0.0,0.0,0.0,0.0,0.0,0.0,0.0,0.0,0.0,0.0,0.0,0.0,0.0,0.0,0.0,0.0,0.0,0.0,0.0,0.0,0.0,0.0,0.0,0.0,0.0,0.0,0.0,0.0,0.0,0.0,0.0,0.0,0.0,0.0,0.0,0.0,0.0,0.0,0.0,0.0,0.0,0.0,0.0,0.0,0.0,0.0,0.0,0.0,0.0,0.0,0.0,0.0,0.0,0.0,0.0,0.0,0.0,0.0,0.0,0.0,0.0,0.0,0.0,0.0,0.0,0.0,0.0,0.0,0.0,0.0,0.0,0.0,0.0,0.0,0.0,0.0,0.0,0.0,0.0,0.0,0.0,0.0,0.0,0.0,0.0,0.0,0.0,0.0,0.0,0.0,0.0,0.0,0.0,0.0,0.0,0.0,0.0,0.0,0.0,0.0,0.0,0.0,0.0,0.0,0.0,0.0,0.0,0.0,0.0,0.0,0.0,0.0,0.0,0.0,0.0,0.0,0.0,0.0,0.0,0.0,0.0,0.0,0.0,0.0,0.0,0.0,0.0,0.0,0.0,0.0,0.0,0.0,0.0,0.0,0.0,0.0,0.0,0.0,0.0,0.0,0.0,0.0,0.0,0.0,0.0,0.0,0.0,0.0,0.0,0.0,0.0,0.0,0.0,0.0,0.0,0.0,0.0,0.0,0.0,0.0,0.0,0.0,0.0,0.0,0.0,0.0,0.0,0.0,0.0,0.0,0.0,0.0,0.0,0.0,0.0,0.0,0.0,0.0,0.0,0.0,0.0,0.0,0.0,0.0,0.0,0.0,0.0,0.0,0.0,0.0,0.0,0.0,0.0,0.0,0.0,0.0,0.0,0.0,0.0,0.0,0.0,0.0,0.0,0.0,0.0,0.0,0.0,0.0,0.0,0.0,0.0,0.0,0.0,0.0,0.0,0.0,0.0,0.0,0.0,0.0,0.0,0.0,0.0,0.0,0.0,0.0,0.0,0.0,0.0,0.0,0.0,0.0,0.0,0.0,0.0,0.0,0.0,0.0,0.0,0.0,0.0,0.0,0.0,0.0,0.0,0.0,0.0,0.0,0.0,0.0,0.0,0.0,0.0,0.0,0.0,0.0,0.0,0.0,0.0,0.0,0.0,0.0,0.0,0.0,0.0,0.0,0.0,0.0,0.0,0.0,0.0,0.0,0.0,0.0,0.0,0.0,0.0,0.0,0.0,0.0,0.0,0.0,0.0,0.0,0.0,0.0,0.0,0.0,0.0,0.0,0.0,0.0,0.0,0.0,0.0,0.0,0.0,0.0,0.0,0.0,0.0,0.0,0.0,0.0,0.0,0.0,0.0,0.0,0.0,0.0,0.0,0.0,0.0,0.0,0.0,0.0,0.0,0.0,0.0,0.0,0.0,0.0,0.0,0.0,0.0,0.0,0.0,0.0,0.0,0.0,0.0,0.0,0.0,0.0,0.0,0.0,0.0,0.0,0.0,0.0,0.0,0.0,0.0,0.0,0.0,0.0,0.0,0.0,0.0,0.0,0.0,0.0,0.0,0.0,0.0,0.0,0.0,0.0,0.0,0.0,0.0,0.0,0.0,0.0,0.0,0.0,0.0,0.0,0.0,0.0,0.0,0.0,0.0,0.0,0.0,0.0,0.0,0.0,0.0,0.0,0.0,0.0,0.0,0.0,0.0,0.0,0.0,0.0,0.0,0.0,0.0,0.0,0.0,0.0,0.0,0.0,0.0,0.0,0.0,0.0,0.0,0.0,0.0,0.0,0.0,0.0,0.0,0.0,0.0,0.0,0.0,0.0,0.0,0.0,0.0,0.0,0.0,0.0,0.0,0.0,0.0,0.0,0.0,0.0,0.0,0.0,0.0,0.0,0.0,0.0,0.0,0.0,0.0,0.0,0.0,0.0,0.0,0.0,0.0,0.0,0.0,0.0,0.0,0.0,0.0,0.0,0.0,0.0,0.0,0.0,0.0,0.0,0.0,0.0,0.0,0.0,0.0,0.0,0.0,0.0,0.0,0.0,0.0,0.0,0.0,0.0,0.0,0.0,0.0,0.0,0.0,0.0,0.0,0.0,0.0,0.0,0.0,0.0,0.0,0.0,0.0,0.0,0.0,0.0,0.0,0.0,0.0,0.0,0.0,0.0,0.0,0.0,0.0,0.0,0.0,0.0,0.0,0.0,0.0,0.0,0.0,0.0,0.0,0.0,0.0,0.0,0.0,0.0,0.0,0.0,0.0,0.0,0.0,0.0,0.0,0.0,0.0,0.0,0.0,0.0,0.0,0.0,0.0,0.0,0.0,0.0,0.0,0.0,0.0,0.0,0.0,0.0,0.0,0.0,0.0,0.0,0.0,0.0,0.0,0.0,0.0,0.0,0.0,0.0,0.0,0.0,0.0,0.0,0.0,0.0,0.0,0.0,0.0,0.0,0.0,0.0,0.0,0.0,0.0,0.0,0.0,0.0,0.0,0.0,0.0,0.0,0.0,0.0,0.0,0.0,0.0,0.0,0.0,0.0,0.0,0.0,0.0,0.0,0.0,0.0,0.0,0.0,0.0,0.0,0.0,0.0,0.0,0.0,0.0,0.0,0.0,0.0,0.0,0.0,0.0,0.0,0.0,0.0,0.0,0.0,0.0,0.0,0.0,0.0,0.0,0.0,0.0,0.0,0.0,0.0,0.0,0.0,0.0,0.0,0.0,0.0,0.0,0.0,0.0,0.0,0.0,0.0,0.0,0.0,0.0,0.0,0.0,0.0,0.0,0.0,0.0,0.0,0.0,0.0,0.0,0.0,0.0,0.0,0.0,0.0,0.0,0.0,0.0,0.0,0.0,0.0,0.0,0.0,0.0,0.0,0.0,0.0,0.0,0.0,0.0,0.0,0.0,0.0,0.0,0.0,0.0,0.0,0.0,0.0,0.0,0.0,0.0,0.0,0.0,0.0,0.0,0.0,0.0,0.0,0.0,0.0,0.0,0.0,0.0,0.0,0.0,0.0,0.0,0.0,0.0,0.0,0.0,0.0,0.0,0.0,0.0,0.0,0.0,0.0,0.0,0.0,0.0,0.0,0.0,0.0,0.0,0.0,0.0,0.0,0.0,0.0,0.0,0.0,0.0,0.0,0.0,0.0,0.0,0.0,0.0,0.0,0.0,0.0,0.0,0.0,0.0,0.0,0.0,0.0,0.0,0.0,0.0,0.0,0.0,0.0,0.0,0.0,0.0,0.0,0.0,0.0,0.0,0.0,0.0,0.0,0.0,0.0,0.0,0.0,0.0,0.0,0.0,0.0,0.0,0.0,0.0,0.0,0.0,0.0,0.0,0.0,0.0,0.0,0.0,0.0,0.0,0.0,0.0,0.0,0.0,0.0,0.0,0.0,0.0,0.0,0.0,0.0,0.0,0.0,0.0,0.0,0.0,0.0,0.0,0.0,0.0,0.0,0.0,0.0,0.0,0.0,0.0,0.0,0.0,0.0,0.0,0.0,0.0,0.0,0.0,0.0,0.0,0.0,0.0,0.0,0.0,0.0,0.0,0.0,0.0,0.0,0.0,0.0,0.0,0.0,0.0,0.0,0.0,0.0,0.0,0.0,0.0,0.0,0.0,0.0,0.0,0.0,0.0,0.0,0.0,0.0,0.0,0.0,0.0,0.0,0.0,0.0,0.0,0.0,0.0,0.0,0.0,0.0,0.0,0.0,0.0,0.0,0.0,0.0,0.0,0.0,0.0,0.0,0.0,0.0,0.0,0.0,0.0,0.0,0.0,0.0,0.0,0.0,0.0,0.0,0.0,0.0,0.0,0.0,0.0,0.0,0.0,0.0,0.0,0.0,0.0,0.0,0.0,0.0,0.0,0.0,0.0,0.0,0.0,0.0,0.0,0.0,0.0,0.0,0.0,0.0,0.0,0.0,0.0,0.0,0.0,0.0,0.0,0.0,0.0,0.0,0.0,0.0,0.0,0.0,0.0,0.0,0.0,0.0,0.0,0.0,0.0,0.0,0.0,0.0,0.0,0.0,0.0,0.0,0.0,0.0,0.0,0.0,0.0,0.0,0.0,0.0,0.0,0.0,0.0,0.0,0.0,0.0,0.0,0.0,0.0,0.0,0.0,0.0,0.0,0.0,0.0,0.0,0.0,0.0,0.0,0.0,0.0,0.0,0.0,0.0,0.0,0.0,0.0,0.0,0.0,0.0,0.0,0.0,0.0,0.0,0.0,0.0,0.0,0.0,0.0,0.0,0.0,0.0,0.0,0.0,0.0,0.0,0.0,0.0,0.0,0.0,0.0,0.0,0.0,0.0,0.0,0.0,0.0,0.0,0.0,0.0,0.0,0.0,0.0,0.0,0.0,0.0,0.0,0.0,0.0,0.0,0.0,0.0,0.0,0.0,0.0,0.0,0.0,0.0,0.0,0.0,-2.2892,-2.3041,0.0,0.0,0.0,0.0,0.0,0.0,0.0,0.0,0.0,0.0,0.0,0.0,0.0,0.0,0.0,0.0,0.0,0.0,0.0,0.0,0.0,0.0,0.0,0.0,0.0,0.0,0.0,0.0,0.0,0.0,0.0,0.0,0.0,0.0,0.0,0.0,0.0,0.0,0.0,0.0,0.0,0.0,0.0,0.0,0.0,0.0,0.0,0.0,0.0,0.0,0.0,0.0,0.0,0.0,0.0,0.0,0.0,0.0,0.0,0.0,0.0,0.0,0.0,0.0,0.0,0.0,0.0,0.0,0.0,0.0,0.0,0.0,0.0,0.0,0.0,0.0,0.0,0.0,0.0,0.0,0.0,0.0,0.0,0.0,0.0,0.0,0.0,0.0,0.0,0.0,0.0,0.0,0.0,0.0,0.0,0.0,0.0,0.0,0.0,0.0,0.0,0.0,0.0,0.0,0.0,0.0,0.0,0.0,0.0,0.0,0.0,0.0,0.0,0.0,-2.358,-2.3251,0.0,0.0,0.0,0.0,0.0,0.0,0.0,0.0,0.0,0.0,0.0,0.0,0.0,0.0,0.0,0.0,0.0,0.0,0.0,0.0,0.0,0.0,0.0,0.0,0.0,0.0,0.0,0.0,0.0,0.0,0.0,0.0,0.0,0.0,0.0,0.0,0.0,0.0,0.0,0.0,0.0,0.0,0.0,0.0,0.0,0.0,0.0,0.0,0.0,0.0,0.0,0.0,0.0,0.0,0.0,0.0,0.0,0.0,0.0,0.0,0.0,0.0,0.0,0.0,0.0,0.0,0.0,0.0,0.0,0.0,0.0,0.0,0.0,0.0,0.0,0.0,0.0,0.0,0.0,0.0,0.0,0.0,0.0,0.0,0.0,0.0,0.0,0.0,0.0,0.0,0.0,0.0,0.0,0.0,0.0,0.0,0.0,0.0,0.0,0.0,0.0,0.0,0.0,0.0,0.0,0.0,0.0,0.0,-2.6808,-2.7409,-2.794,-2.723,-2.6632,-2.6063,-2.4837,-2.3729,-2.2975,-2.4174,0.0,0.0,0.0,0.0,0.0,0.0,0.0,0.0,0.0,0.0,0.0,0.0,0.0,0.0,0.0,0.0,0.0,0.0,0.0,0.0,0.0,0.0,0.0,0.0,0.0,0.0,0.0,0.0,0.0,0.0,0.0,0.0,0.0,0.0,0.0,0.0,0.0,0.0,0.0,0.0,0.0,0.0,0.0,0.0,0.0,0.0,0.0,0.0,0.0,0.0,0.0,0.0,0.0,0.0,0.0,0.0,0.0,0.0,0.0,0.0,0.0,0.0,0.0,0.0,0.0,0.0,0.0,0.0,0.0,0.0,0.0,0.0,0.0,0.0,0.0,0.0,0.0,0.0,0.0,0.0,0.0,0.0,0.0,0.0,0.0,0.0,-2.5609,-2.5609,0.0,0.0,0.0,0.0,0.0,0.0,0.0,0.0,0.0,0.0,0.0,0.0,0.0,-2.6655,-2.71,-2.8386,-2.8763,-2.8218,-2.8878,-2.9276,-2.9295,-2.8637,-2.8278,-2.8158,-2.738,0.0,-2.3606,-2.5258,0.0,0.0,0.0,0.0,0.0,0.0,0.0,0.0,0.0,0.0,0.0,0.0,0.0,0.0,0.0,0.0,0.0,0.0,0.0,0.0,0.0,0.0,0.0,0.0,0.0,0.0,0.0,0.0,0.0,0.0,0.0,0.0,0.0,0.0,0.0,0.0,0.0,0.0,0.0,0.0,0.0,0.0,0.0,0.0,0.0,0.0,0.0,0.0,0.0,0.0,0.0,0.0,0.0,0.0,0.0,0.0,0.0,0.0,0.0,0.0,0.0,0.0,0.0,0.0,0.0,0.0,0.0,0.0,0.0,0.0,0.0,0.0,0.0,0.0,0.0,0.0,0.0,0.0,0.0,0.0,0.0,0.0,0.0,0.0,0.0,-2.553,-2.5542,-2.5579,-2.6318,-2.6783,0.0,0.0,0.0,0.0,0.0,0.0,0.0,0.0,0.0,-2.9187,-2.9705,-2.9964,-3.0019,-3.0832,-3.1324,-3.1518,-3.1821,-3.2114,-3.2461,-3.2213,-3.1849,-3.1474,-3.1208,-3.0239,-2.8761,-2.7794,-2.738,-2.7515,0.0,0.0,0.0,0.0,-2.8755,-2.8991,0.0,0.0,0.0,0.0,0.0,0.0,0.0,0.0,0.0,0.0,0.0,0.0,0.0,0.0,0.0,-0.1883,0.0,0.0,0.0,0.0,0.0,0.0,0.0,0.0,0.0,0.0,0.0,0.0,0.0,0.0,0.0,0.0,0.0,0.0,0.0,0.0,0.0,0.0,0.0,0.0,0.0,0.0,0.0,0.0,0.0,0.0,0.0,0.0,0.0,0.0,0.0,0.0,0.0,0.0,0.0,0.0,0.0,0.0,0.0,0.0,0.0,0.0,0.0,0.0,0.0,0.0,0.0,0.0,0.0,0.0,0.0,0.0,0.0,0.0,0.0,0.0,0.0,-2.5304,-2.5488,-2.5244,-2.6524,-2.725,0.0,0.0,0.0,0.0,0.0,0.0,-2.9503,-3.0041,-3.079,-3.1732,-3.2669,-3.3083,-3.2919,-3.3567,-3.4101,-3.4575,-3.4695,-3.503,-3.5462,-3.5409,-3.5004,-3.4478,-3.4345,-3.4078,-3.3451,-3.0771,-2.9673,-2.974,-2.9995,-3.0243,-3.0378,-3.0176,-3.0345,-3.0581,0.0,0.0,0.0,0.0,0.0,0.0,0.0,0.0,0.0,0.0,0.0,0.0,0.0,0.0,-0.454,0.1451,0.6826,1.0787,0.0,0.0,0.0,0.0,0.0,0.0,0.0,0.0,0.0,0.0,0.0,0.0,0.0,0.0,0.0,0.0,0.0,0.0,0.0,0.0,0.0,0.0,0.0,0.0,0.0,0.0,0.0,0.0,0.0,0.0,0.0,0.0,0.0,0.0,0.0,0.0,0.0,0.0,0.0,0.0,0.0,0.0,0.0,0.0,0.0,0.0,0.0,0.0,0.0,0.0,0.0,0.0,0.0,0.0,0.0,0.0,0.0,0.0,0.0,0.0,0.0,-2.4319,-2.6958,0.0,0.0,0.0,0.0,-3.092,-3.163,-3.2374,-3.3111,-3.2717,-3.3069,-3.4362,-3.4636,-3.5038,-3.5616,-3.6937,-3.7285,-3.6685,-3.7264,-3.7633,-3.7636,-3.7014,-3.6662,-3.663,-3.5979,-3.5658,-3.5519,-3.4005,-3.34,-3.3504,-3.3287,-3.3592,-3.4134,-3.3457,-3.2747,-3.2171,0.0,0.0,0.0,0.0,0.0,0.0,0.0,0.0,0.0,0.0,0.0,0.0,0.0,-1.2468,-0.976,-0.5097,0.3523,0.9399,1.1118,0.0,0.0,0.0,0.0,0.0,0.0,0.0,0.0,0.0,0.0,0.0,0.0,0.0,0.0,0.0,0.0,0.0,0.0,0.0,0.0,0.0,0.0,0.0,0.0,0.0,0.0,0.0,0.0,0.0,0.0,0.0,0.0,0.0,0.0,0.0,0.0,0.0,0.0,0.0,0.0,0.0,0.0,0.0,0.0,0.0,0.0,0.0,0.0,0.0,0.0,0.0,0.0,0.0,0.0,0.0,0.0,0.0,0.0,0.0,0.0,-2.7961,-2.9932,0.0,-3.051,-3.15,-3.2341,-3.2611,-3.3288,-3.4032,-3.4776,-3.5576,-3.6424,-3.7431,-3.7984,-3.8355,-3.855,-3.855,-3.8683,-3.8949,-3.8652,-3.8515,-3.8525,-3.8838,-3.8652,-3.8188,-3.8441,-3.855,-3.8535,-3.797,-3.6701,-3.5,-3.4858,-3.4979,-3.5182,-3.4912,-3.4979,-3.5115,0.0,0.0,0.0,0.0,0.0,0.0,0.0,0.0,0.0,0.0,0.0,-1.6067,-1.6347,-1.5926,-1.4293,-1.1048,-0.219,0.4364,0.7039,0.0,0.0,0.0,0.0,0.0,0.0,0.0,0.0,0.0,0.0,0.0,0.0,0.0,0.0,0.0,0.0,0.0,0.0,0.0,0.0,0.0,0.0,0.0,-2.8755,0.0,0.0,0.0,0.0,0.0,0.0,0.0,0.0,0.0,0.0,0.0,0.0,0.0,0.0,0.0,0.0,0.0,0.0,0.0,0.0,0.0,0.0,0.0,0.0,0.0,0.0,0.0,0.0,0.0,0.0,0.0,0.0,0.0,0.0,0.0,-2.9388,-3.0123,-3.2203,-3.3444,-3.3129,-3.4451,-3.5385,-3.5622,-3.6332,-3.7077,-3.7821,-3.8599,-3.9242,-3.9715,-3.9952,-4.0087,-4.0087,-3.9558,-3.9558,-4.0087,-3.9558,-3.9315,-3.9315,-3.985,-3.9799,-3.9315,-3.985,-4.0087,-4.0087,-4.0087,-3.8975,-3.7136,-3.6821,-3.6772,-3.6772,-3.6772,-3.6941,-3.7043,0.0,0.0,0.0,0.0,0.0,0.0,0.0,0.0,0.0,0.0,-1.716,-1.7635,-1.8326,-1.835,-1.75,-1.5631,-1.014,-0.4447,0.1139,0.3562,0.0,0.0,0.0,0.0,0.0,0.0,0.0,0.0,0.0,0.0,0.0,0.0,0.0,0.0,0.0,0.0,0.0,0.0,0.0,0.0,0.0,0.0,-3.092,0.0,0.0,0.0,0.0,0.0,0.0,0.0,0.0,0.0,0.0,0.0,0.0,0.0,0.0,0.0,0.0,0.0,0.0,0.0,0.0,0.0,0.0,0.0,0.0,0.0,0.0,0.0,0.0,0.0,0.0,0.0,0.0,0.0,-2.7873,-2.9407,-3.0724,-3.0784,-3.3803,-3.5636,-3.4984,-3.7469,-3.9377,-4.0087,-4.0832,-4.1542,-4.2252,-4.161,-4.1238,-4.1204,-4.0493,-4.0087,-4.0087,-4.0087,-4.0087,-4.0087,-4.0087,-4.0087,-4.0087,-4.0087,-4.0087,-4.0087,-4.0087,-4.0087,-4.0087,-4.0087,-4.0087,-4.002,-3.9309,-3.9039,-3.9039,-3.9039,-3.8565,-3.7855,0.0,0.0,0.0,0.0,0.0,0.0,0.0,0.0,0.0,0.0,-1.8306,-1.9273,-2.0509,-2.0408,-2.0436,-2.0866,-1.4881,-0.9406,-0.558,0.0,0.0,0.0,0.0,0.0,0.0,0.0,0.0,0.0,0.0,0.0,0.0,0.0,0.0,0.0,0.0,0.0,0.0,0.0,0.0,0.0,0.0,0.0,-3.1765,0.0,0.0,0.0,0.0,0.0,0.0,0.0,0.0,0.0,0.0,0.0,0.0,0.0,0.0,0.0,0.0,0.0,0.0,0.0,0.0,0.0,0.0,0.0,0.0,0.0,0.0,0.0,0.0,0.0,0.0,0.0,0.0,-3.3064,-3.2175,-3.3764,-3.5412,-3.6552,-3.848,-3.964,-3.9411,-4.0628,-4.1474,-4.1677,-4.188,-4.2083,-4.2286,-4.2117,-4.1745,-4.1238,-4.1001,-4.0629,-4.0087,-4.0087,-4.0087,-4.0087,-4.0087,-4.0087,-4.0087,-4.0087,-4.0087,-4.0087,-4.0087,-4.0087,-4.0087,-4.0087,-4.0087,-4.0054,-3.9851,-3.9783,-3.9783,-3.9783,-3.9648,-3.9377,0.0,0.0,0.0,0.0,0.0,0.0,0.0,0.0,0.0,0.0,-1.9188,-2.0442,-2.161,-2.2002,-2.2541,-2.3353,-1.8369,-1.3495,-0.9562,0.0,0.0,0.0,0.0,0.0,0.0,0.0,0.0,0.0,0.0,0.0,0.0,0.0,0.0,0.0,0.0,0.0,0.0,0.0,0.0,0.0,0.0,0.0,-3.4404,-3.2307,-3.1123,-3.0548,-2.9905,-2.96,-2.933,-2.8416,0.0,0.0,0.0,0.0,0.0,0.0,0.0,0.0,0.0,0.0,0.0,0.0,0.0,0.0,0.0,0.0,0.0,0.0,0.0,0.0,0.0,0.0,0.0,0.0,-3.5248,-3.6653,-3.7668,-3.7722,-3.8172,-3.9666,-4.0932,-4.1766,-4.2063,-4.2814,-4.3234,-4.3234,-4.3234,-4.3234,-4.3234,-4.2929,-4.2422,-4.1677,-4.1373,-4.0832,-4.0087,-4.0087,-4.0087,-4.0087,-4.0087,-4.0087,-4.0087,-4.0087,-4.0087,-4.0087,-4.0087,-4.0087,-4.0087,-4.0087,-4.0087,-4.0087,0.0,0.0,0.0,0.0,-4.0087,-3.9986,0.0,0.0,0.0,0.0,0.0,0.0,0.0,0.0,0.0,0.0,0.0,-2.1065,-2.1799,-2.2848,-2.3507,-2.3549,-2.0457,-1.6376,0.0,0.0,0.0,0.0,0.0,0.0,0.0,0.0,0.0,0.0,0.0,0.0,0.0,0.0,0.0,0.0,0.0,0.0,0.0,0.0,0.0,0.0,0.0,0.0,-3.7618,-3.4844,-3.4066,-3.4336,-3.3017,-3.1765,-3.0717,-3.0548,0.0,0.0,0.0,0.0,0.0,0.0,0.0,0.0,0.0,0.0,0.0,0.0,0.0,0.0,0.0,0.0,0.0,0.0,0.0,0.0,0.0,0.0,0.0,0.0,-3.9048,-4.0259,-4.3013,-4.1385,-4.0248,-4.1297,-4.2064,-4.2833,-4.3376,-4.4121,-4.4587,-4.4587,-4.4587,-4.4587,-4.4587,-4.391,0.0,0.0,0.0,-4.0967,-4.0223,-4.0121,-4.0087,-4.0087,-4.0155,-4.0155,-4.0087,-4.0155,-4.0155,-4.0087,-4.0087,-4.0087,-4.0087,-4.0087,-4.0087,-4.0087,-4.0087,-4.0087,-4.0087,-4.0087,-4.0087,-3.9986,0.0,0.0,0.0,0.0,0.0,0.0,0.0,0.0,0.0,-1.8526,-1.9341,-2.0209,-2.0964,-2.1045,-2.1231,-2.1513,-1.9185,-1.5982,0.0,0.0,0.0,0.0,0.0,0.0,0.0,0.0,0.0,0.0,0.0,0.0,0.0,0.0,0.0,0.0,0.0,0.0,0.0,0.0,0.0,0.0,0.0,-3.8504,-3.7787,-3.6569,-3.5453,-3.4438,-3.4167,-3.4269,-3.437,-3.3186,-3.3355,-3.3795,-3.2002,0.0,0.0,0.0,0.0,0.0,0.0,0.0,0.0,0.0,0.0,0.0,0.0,0.0,0.0,0.0,0.0,0.0,0.0,0.0,0.0,-3.9625,-4.17,-4.3381,-4.4118,-4.4698,-4.4852,-4.3977,-4.4034,-4.4215,-4.4327,-4.4497,-4.4587,-4.4587,-4.4587,-4.4587,-4.4587,-4.4451,-4.4012,-4.3234,-4.2455,-4.1711,-4.1001,-4.0392,-4.0087,-4.0087,-4.0696,0.0,-4.0087,-4.0696,-4.0663,-4.0087,-4.0087,-4.0087,-4.0087,-4.0087,-4.0087,-4.0087,-4.0087,-4.0087,-4.0087,-4.0087,-4.0087,-4.0054,0.0,0.0,0.0,0.0,0.0,0.0,0.0,0.0,0.0,0.0,-1.9956,-2.0896,-2.1273,-2.1617,-2.1649,-2.1284,-1.8656,0.0,0.0,0.0,0.0,0.0,0.0,0.0,0.0,0.0,0.0,0.0,0.0,0.0,0.0,0.0,0.0,0.0,0.0,0.0,0.0,0.0,0.0,0.0,0.0,-3.9311,-3.8937,-3.8565,-3.7719,-3.6738,-3.6738,-3.6502,-3.6096,-3.5351,-3.5081,-3.4878,-3.3728,-3.2374,-3.0987,0.0,0.0,0.0,0.0,0.0,0.0,0.0,0.0,0.0,0.0,0.0,0.0,0.0,0.0,-3.6214,0.0,0.0,-4.1939,-4.3906,-4.5106,-4.6114,-4.7015,-4.6825,-4.6266,-4.5275,-4.5466,-4.5534,-4.5196,-4.5128,-4.4993,-4.4621,-4.4587,-4.4587,-4.4587,-4.4587,-4.4215,-4.3436,-4.3064,-4.2489,-4.1745,-4.1373,-4.117,-4.1204,-4.1576,-4.1542,-4.117,-4.1204,-4.1001,-4.0629,-4.0257,-4.0087,-4.0121,-4.0493,-4.0629,-4.0696,-4.1035,-4.073,-4.0087,-4.0087,-4.0087,-4.0087,0.0,0.0,0.0,0.0,0.0,0.0,0.0,0.0,0.0,0.0,0.0,-2.148,-2.1578,-2.2175,-2.2166,0.0,0.0,0.0,0.0,0.0,0.0,0.0,0.0,0.0,0.0,0.0,0.0,0.0,0.0,0.0,0.0,0.0,0.0,0.0,0.0,0.0,0.0,0.0,0.0,0.0,-3.9662,-3.9952,-4.0138,-4.0204,-3.9831,-3.9174,-3.9039,-3.8024,-3.6806,-3.711,-3.6197,-3.4979,-3.5284,-3.4336,-3.2814,-3.1055,-3.0751,0.0,0.0,0.0,0.0,0.0,0.0,0.0,0.0,0.0,-3.4248,-3.738,-3.8282,-3.9652,-4.3281,-4.4342,-4.5516,-4.8122,-4.8279,-4.8453,-4.9631,-4.8422,-4.7178,-4.6349,-4.6588,-4.6549,-4.5974,-4.5906,-4.5602,-4.4857,-4.479,-4.4722,-4.4587,-4.4587,-4.4282,-4.3673,-4.3504,-4.3132,-4.2523,-4.2354,-4.2286,-4.2286,-4.2455,-4.2422,-4.2286,-4.1847,-4.1542,-4.1373,-4.0764,-4.0493,-4.0561,-4.117,-4.1407,-4.1474,-4.2049,-4.1542,-4.0493,-4.0493,-4.0493,-4.0493,0.0,0.0,0.0,0.0,0.0,0.0,0.0,0.0,0.0,0.0,0.0,0.0,0.0,0.0,0.0,0.0,0.0,0.0,0.0,0.0,0.0,0.0,0.0,0.0,0.0,0.0,0.0,0.0,0.0,0.0,0.0,0.0,0.0,0.0,0.0,0.0,0.0,0.0,-3.9315,-3.9901,-3.9315,-3.9473,-4.0154,-4.0625,-4.0446,-3.9884,-3.9242,-3.8024,-3.6975,-3.8294,-3.7753,-3.6738,-3.8058,-3.7483,-3.5723,-3.2882,0.0,-2.9871,-2.8181,-2.8454,-2.9644,-3.1482,-3.1869,-3.3069,0.0,0.0,-3.865,-4.1538,-4.3278,-4.4556,-4.5444,-4.7388,-4.893,-4.9297,-4.9955,-5.0263,-4.9864,-5.0181,-4.9925,-4.8614,-4.7472,-4.6752,-4.6684,-4.6684,-4.638,-4.5635,-4.5568,-4.5297,-4.4621,-4.4587,-4.4553,-4.4451,-4.3775,-4.3369,-4.3301,-4.2625,-4.2286,-4.2286,-4.2963,-4.2929,-4.232,-4.2895,-4.2794,-4.2151,-4.2083,-4.2049,-4.2049,-4.2117,-4.2185,-4.2185,-4.2252,-4.2185,-4.2049,-4.2049,-4.2049,-4.2049,0.0,0.0,0.0,0.0,0.0,0.0,0.0,0.0,0.0,0.0,0.0,0.0,0.0,0.0,0.0,0.0,0.0,0.0,0.0,0.0,0.0,0.0,0.0,0.0,0.0,0.0,0.0,0.0,0.0,0.0,0.0,0.0,0.0,0.0,0.0,0.0,0.0,-3.9714,-3.9799,-4.0087,-3.9714,-3.9799,-4.007,-3.9842,-3.9221,-3.8482,-3.8231,-3.7297,0.0,0.0,-3.6502,-3.6243,-3.7171,-3.6491,-3.4945,-3.2408,-3.1833,0.0,-3.1258,-3.0987,0.0,0.0,-3.4952,-3.7164,-4.0246,-4.1571,-4.2886,-4.5475,-4.69,-4.8075,-4.9221,-5.0251,-5.1096,0.0,-5.1573,-5.1564,-5.1755,-5.0859,-4.9955,-4.9399,-4.8483,-4.7942,-4.7942,-4.7182,-4.6584,-4.6275,-4.5512,-4.5094,-4.5229,-4.5229,-4.5432,-4.5872,-4.5534,-4.5399,-4.5399,-4.4654,-4.4485,-4.4891,-4.435,-4.4147,-4.4282,-4.4147,-4.391,-4.3606,-4.3132,-4.32,-4.3639,-4.4079,-4.4282,-4.4316,-4.4756,-4.4654,-4.4113,-4.2794,-4.2286,-4.2286,0.0,0.0,0.0,0.0,0.0,0.0,0.0,0.0,0.0,0.0,0.0,0.0,0.0,0.0,0.0,0.0,0.0,0.0,0.0,0.0,0.0,0.0,0.0,0.0,0.0,0.0,0.0,0.0,0.0,0.0,0.0,0.0,0.0,0.0,0.0,-4.0625,-4.0087,-4.0087,-4.0087,-4.0087,-4.0087,-3.9952,-3.9731,-3.8894,-3.7752,-3.6551,-3.6689,-3.5744,0.0,0.0,-3.4432,-3.4423,-3.5339,-3.4993,-3.3829,-3.2036,-3.2104,-3.2747,-3.2544,0.0,0.0,-3.5214,-3.8082,-4.0984,-4.2933,-4.4744,-4.6654,-4.8857,-4.9774,-5.0545,-5.1756,-5.216,-5.2454,-5.2821,-5.2564,-5.2454,-5.2821,-5.1194,-4.9844,-4.9372,-4.8722,-4.8376,-4.8637,-4.7759,-4.7126,-4.7002,-4.6014,-4.5626,-4.5974,-4.6007,-4.6244,-4.6786,-4.6786,-4.6786,-4.6786,-4.6278,-4.6278,-4.6786,-4.5703,-4.5466,-4.5974,-4.5432,-4.5196,-4.5162,-4.4587,-4.4654,-4.5229,-4.5771,-4.6007,-4.6075,-4.6583,-4.6481,-4.5805,-4.4147,-4.3267,-4.2929,0.0,0.0,0.0,0.0,0.0,0.0,0.0,0.0,0.0,0.0,0.0,0.0,0.0,0.0,0.0,0.0,0.0,0.0,0.0,0.0,0.0,0.0,0.0,0.0,0.0,0.0,0.0,0.0,0.0,0.0,0.0,0.0,0.0,-4.0874,-4.092,-4.0625,-4.0087,-4.0087,-4.0087,-4.0087,-4.0087,-3.9648,-3.8967,-3.7998,-3.6363,-3.4617,-3.4583,0.0,0.0,0.0,-3.1975,-3.1146,-3.3352,-3.3755,0.0,-3.2476,-3.1765,0.0,0.0,0.0,-3.5148,-3.8139,-4.0954,-4.3784,-4.6826,-4.8482,-4.9848,-5.1536,-5.1903,-5.194,-5.1977,-5.2637,-5.2931,-5.216,-5.2674,-5.2894,-5.2123,-5.1316,-5.0138,-4.8524,-4.7644,-4.7459,0.0,-4.8524,-4.8397,-4.7746,-4.7603,-4.7361,-4.6811,-4.6752,-4.6786,-4.6786,-4.6786,-4.6786,-4.6786,-4.6786,-4.6786,-4.6786,-4.6752,-4.6718,-4.6752,-4.6718,-4.6718,-4.6718,-4.6718,-4.6718,-4.6718,-4.6752,-4.6752,-4.6752,-4.6786,-4.6786,-4.6752,-4.6684,-4.5737,-4.4519,0.0,0.0,0.0,0.0,0.0,0.0,0.0,0.0,0.0,0.0,0.0,0.0,0.0,0.0,0.0,0.0,0.0,0.0,0.0,0.0,0.0,0.0,0.0,0.0,0.0,0.0,0.0,0.0,0.0,0.0,0.0,-4.0574,-4.074,-4.0691,-4.0691,-4.0384,-3.9843,-4.005,-4.0087,-4.007,-3.9918,-3.9208,-3.8106,-3.662,-3.4668,-3.2535,0.0,0.0,0.0,0.0,0.0,0.0,-3.1214,0.0,0.0,-3.1404,-3.1393,-3.1799,0.0,0.0,-3.8914,-4.1847,-4.476,-4.7464,-4.9399,-5.0911,-5.1977,-5.1977,-5.1132,-5.0215,-4.9664,-4.9334,-4.9444,-5.0251,-5.1059,-5.172,-5.194,-5.1756,-5.0582,-4.7829,-4.8269,0.0,0.0,0.0,0.0,-4.8984,-4.7786,-4.7361,-4.8174,-4.7792,-4.7767,-4.824,-4.8274,-4.8274,-4.8274,-4.7767,-4.78,-4.824,-4.7767,-4.753,-4.753,-4.7022,-4.7327,-4.824,-4.7733,-4.78,-4.8274,-4.8274,-4.8274,-4.8274,-4.8274,-4.797,-4.753,-4.753,-4.6921,-4.5974,0.0,0.0,0.0,0.0,0.0,0.0,0.0,0.0,0.0,0.0,0.0,0.0,0.0,0.0,0.0,0.0,0.0,0.0,0.0,0.0,0.0,0.0,0.0,0.0,0.0,0.0,0.0,0.0,-3.5545,-3.697,-3.79,-3.8829,-3.9193,-3.9171,-3.9494,-3.9282,-3.8729,-3.8894,-3.8596,-3.7945,-3.7888,-3.7008,-3.5513,-3.383,-3.2364,0.0,0.0,0.0,0.0,0.0,0.0,0.0,0.0,-2.9488,-3.028,-3.1113,-3.249,-3.4565,-3.8052,-4.0469,-4.2708,-4.5676,-4.8077,-4.9997,-5.1441,-5.228,-5.2527,-5.172,-5.0251,-4.8744,-4.7417,-4.6652,-4.6616,-4.7819,-4.8595,-4.9554,-5.0912,-5.0875,-4.9994,-4.8196,-4.8673,-4.8636,0.0,0.0,0.0,-4.9667,-4.8484,-4.8172,-4.9257,-4.8884,-4.8779,-4.8984,-4.9018,-4.9018,-4.9018,-4.8545,-4.8545,-4.8984,-4.8545,-4.8308,-4.8274,-4.78,-4.8105,-4.8984,-4.8511,-4.8578,-4.9018,-4.9018,-4.9018,-4.9018,-4.9018,-4.8714,-4.8308,-4.8308,-4.8003,-4.7428,0.0,0.0,0.0,0.0,0.0,0.0,0.0,0.0,0.0,0.0,0.0,0.0,0.0,0.0,0.0,0.0,0.0,0.0,0.0,0.0,0.0,0.0,0.0,0.0,0.0,0.0,0.0,-3.1809,-3.2601,-3.3633,-3.4917,-3.645,-3.6906,-3.6422,-3.7142,-3.722,-3.6738,-3.6735,-3.5696,-3.4025,-3.4331,-3.3384,-3.1597,-3.0041,0.0,0.0,0.0,0.0,0.0,0.0,0.0,0.0,0.0,0.0,-3.1544,-3.1849,-3.5154,-3.91,-4.0816,-4.3444,-4.6504,-4.943,-5.0617,-5.1401,-5.2882,-5.2543,-5.1683,-5.0729,-4.9187,-4.7384,0.0,0.0,-4.4602,-4.5134,-4.5659,-4.6874,-4.937,-4.9077,-4.8857,0.0,0.0,0.0,0.0,0.0,0.0,-4.992,-4.9875,-4.9924,-5.0167,-5.0194,-4.9884,-4.9114,-4.9114,-4.9148,-4.912,-4.9086,-4.9052,-4.9052,-4.9018,-4.9018,-4.9018,-4.9018,-4.9018,-4.9018,-4.9018,-4.9018,-4.9018,-4.9018,-4.9018,-4.9018,-4.9018,-4.9018,-4.9018,-4.9018,-4.9018,-4.8815,0.0,0.0,0.0,0.0,0.0,0.0,0.0,0.0,0.0,0.0,0.0,0.0,0.0,0.0,0.0,0.0,0.0,0.0,0.0,0.0,0.0,0.0,0.0,0.0,0.0,0.0,0.0,0.0,0.0,-3.2308,-3.3193,-3.3036,-3.3203,0.0,-3.3418,-3.3243,-3.3119,-3.3283,-3.3036,-3.2615,0.0,-3.2004,-3.1145,0.0,0.0,0.0,0.0,0.0,0.0,0.0,0.0,0.0,0.0,0.0,-3.4583,-3.6969,-3.9747,-4.259,-4.5249,-4.7796,-4.9912,-5.0642,-5.1357,-5.1752,-5.1571,-5.1297,-5.0362,-4.7682,-4.5369,-4.3279,0.0,0.0,0.0,-4.5224,-4.6836,0.0,-5.1022,-5.2234,0.0,-5.0692,0.0,-5.2454,-5.1463,-5.194,0.0,0.0,-5.2173,-5.179,-5.243,-5.252,-5.2026,-5.0676,-5.07,-5.0712,-5.0642,-5.0101,-4.983,-4.9796,-4.9255,-4.9018,-4.9018,-4.9018,-4.9018,-4.9018,-4.9018,-4.9018,-4.9018,-4.9018,-4.9018,-4.9018,-4.9018,-4.9018,-4.9018,-4.9018,-4.9018,-4.8951,0.0,0.0,0.0,0.0,0.0,0.0,0.0,0.0,0.0,0.0,0.0,0.0,0.0,0.0,0.0,0.0,0.0,0.0,0.0,0.0,0.0,0.0,0.0,0.0,0.0,0.0,0.0,0.0,0.0,0.0,0.0,-2.9696,-3.0063,-3.0479,-3.0555,-3.0568,-3.0577,0.0,0.0,0.0,0.0,0.0,0.0,0.0,0.0,0.0,0.0,0.0,0.0,0.0,0.0,-3.3024,-3.5059,-3.6604,-3.8357,-4.1542,0.0,-4.6597,-4.937,-5.156,-5.3219,-5.3495,-5.3085,-5.2308,-5.1144,-4.9679,-4.7719,-4.4452,-4.2139,0.0,0.0,0.0,0.0,0.0,0.0,0.0,-5.0986,-5.2564,-5.3225,0.0,-5.4106,0.0,-5.3665,-5.3995,-5.4583,0.0,-5.3981,-5.3298,-5.3857,-5.3943,-5.346,-5.2271,-5.1929,-5.158,-5.1217,-5.0811,-5.0574,-5.0574,-5.0168,-4.9965,-4.9965,-4.9627,-4.9492,-4.9458,-4.9154,-4.9018,-4.9018,-4.9018,-4.9018,-4.9018,-4.9018,-4.9018,-4.9018,-4.9018,-4.9018,-4.9018,0.0,0.0,0.0,0.0,0.0,0.0,0.0,0.0,0.0,0.0,0.0,0.0,0.0,0.0,0.0,0.0,0.0,0.0,0.0,0.0,0.0,0.0,0.0,0.0,0.0,0.0,0.0,0.0,0.0,0.0,0.0,0.0,0.0,0.0,0.0,0.0,0.0,0.0,0.0,0.0,0.0,0.0,0.0,0.0,0.0,0.0,0.0,0.0,0.0,0.0,-3.4081,-3.4987,-3.8297,-4.0598,-4.269,-4.5773,-4.8306,-5.0582,-5.2894,-5.462,-5.5868,-5.6381,-5.4766,-5.2564,-5.0729,-4.7865,-4.4635,-4.1332,0.0,-3.7979,-3.6725,-3.7051,-3.8199,-4.0346,0.0,-4.548,-5.0288,-5.172,-5.3115,-5.5317,-5.5794,-5.5904,-5.5904,-5.5904,-5.6198,-5.6932,-5.5684,-5.4875,-5.4907,-5.4967,-5.4684,-5.3833,-5.3054,-5.2295,-5.1545,-5.1417,-5.1352,-5.1352,-5.1251,-5.1183,-5.1048,-5.0405,-5.0096,-5.0085,-4.944,-4.9229,-4.9256,-4.9256,-4.9256,-4.9256,-4.9256,-4.9256,-4.9256,-4.9256,-4.9229,-4.9107,0.0,0.0,0.0,0.0,0.0,0.0,0.0,0.0,0.0,0.0,-2.249,-2.3428,0.0,0.0,0.0,0.0,0.0,0.0,0.0,0.0,0.0,0.0,0.0,0.0,0.0,0.0,0.0,0.0,0.0,0.0,0.0,0.0,0.0,0.0,0.0,0.0,0.0,0.0,0.0,0.0,0.0,0.0,0.0,0.0,0.0,0.0,0.0,0.0,0.0,0.0,-3.6456,-4.0093,-4.2066,-4.4672,-4.7572,-5.0178,-5.172,-5.2968,-5.4693,-5.5868,-5.6308,-5.5097,-5.3482,-5.1426,-4.8416,-4.5773,0.0,0.0,0.0,-3.6421,-3.5454,-3.6501,0.0,-4.2331,0.0,0.0,0.0,0.0,-5.4399,0.0,0.0,0.0,0.0,0.0,0.0,0.0,-5.7519,-5.7107,-5.6466,-5.7052,-5.6769,-5.5455,-5.4617,-5.3852,-5.3107,-5.2452,-5.2131,-5.2097,-5.1488,-5.0879,-5.027,-5.0135,-5.0066,-5.0011,-4.9873,-5.0202,-5.0716,-5.0716,-5.0716,-5.0716,-5.0716,-5.0716,-5.0716,-5.0716,-5.0369,-4.9838,0.0,0.0,0.0,0.0,0.0,0.0,0.0,-2.0064,-2.0927,-2.2149,-2.2974,-2.3909,-2.5018,-2.5133,0.0,0.0,0.0,0.0,0.0,0.0,0.0,0.0,0.0,0.0,0.0,0.0,0.0,0.0,0.0,0.0,0.0,0.0,0.0,0.0,0.0,0.0,0.0,0.0,0.0,0.0,0.0,0.0,0.0,0.0,0.0,0.0,0.0,0.0,0.0,0.0,-3.5652,-4.1654,-4.4963,-4.7463,-4.974,-5.2454,-5.3518,-5.4289,-5.6308,-5.7116,-5.7152,-5.5941,-5.3812,-5.0912,-4.6801,0.0,0.0,0.0,0.0,-3.4871,-3.4468,0.0,0.0,0.0,0.0,0.0,0.0,0.0,0.0,0.0,0.0,0.0,0.0,0.0,0.0,-5.7997,-5.7997,-5.7813,-5.7446,-5.7776,-5.7496,-5.6422,-5.6026,-5.5468,-5.4677,-5.3867,-5.3524,-5.346,-5.2292,-5.1826,-5.1826,-5.1486,-5.1236,-5.1211,-5.1193,-5.1368,-5.1652,-5.1263,-5.1334,-5.1652,-5.1263,-5.1086,-5.1086,-5.1086,-5.0876,-5.0554,0.0,0.0,0.0,0.0,0.0,0.0,0.0,-2.0573,-2.1464,-2.2418,-2.3367,-2.423,-2.4879,-2.503,-2.5088,0.0,0.0,0.0,0.0,0.0,0.0,0.0,0.0,0.0,0.0,0.0,0.0,-2.4823,0.0,0.0,0.0,0.0,0.0,0.0,0.0,0.0,0.0,0.0,0.0,0.0,0.0,0.0,0.0,0.0,0.0,0.0,0.0,0.0,0.0,0.0,-3.3231,-3.9386,-4.463,-4.7795,-5.0184,-5.2978,-5.3965,-5.4656,-5.7079,-5.7886,-5.7776,-5.6785,-5.4106,-5.0472,-4.5553,-4.1956,0.0,0.0,0.0,-3.3807,-3.3807,0.0,0.0,0.0,0.0,0.0,0.0,0.0,0.0,0.0,0.0,0.0,0.0,0.0,0.0,-5.7774,-5.7774,-5.7821,-5.7997,-5.7997,-5.7726,-5.7116,-5.6964,-5.6616,-5.5948,-5.5203,-5.4757,-5.4572,-5.3327,-5.2972,-5.3213,-5.2785,-5.2507,-5.2277,-5.2661,-5.2798,-5.2687,-5.208,-5.2187,-5.2651,-5.1865,-5.1579,-5.1579,-5.1579,-5.1444,-5.1292,0.0,0.0,0.0,0.0,0.0,0.0,0.0,-2.0652,-2.1532,-2.2224,-2.3043,-2.3874,-2.4719,-2.5103,-2.516,0.0,0.0,0.0,0.0,0.0,0.0,0.0,0.0,0.0,0.0,0.0,0.0,-2.4967,-2.4979,0.0,0.0,0.0,0.0,0.0,0.0,0.0,0.0,0.0,0.0,0.0,0.0,0.0,0.0,0.0,0.0,0.0,0.0,0.0,0.0,0.0,0.0,-3.1229,-3.7581,-4.3671,-4.8899,-5.1189,0.0,0.0,-5.6271,-5.7446,-5.7629,-5.6088,-5.3298,-4.9627,-4.4709,0.0,0.0,0.0,-3.3807,-3.3807,-3.3807,0.0,0.0,0.0,0.0,-4.1735,0.0,0.0,0.0,0.0,0.0,0.0,0.0,0.0,-5.7726,-5.7065,-5.7015,-5.7302,-5.795,-5.7997,-5.7997,-5.7904,-5.7252,-5.6861,-5.6809,-5.6004,-5.5262,-5.4606,-5.4475,-5.369,-5.2401,-5.3094,-5.2951,-5.2289,-5.3749,-5.435,-5.4188,-5.4115,-5.4115,-5.4115,-5.331,-5.3017,-5.3017,-5.3017,-5.2554,-5.2018,0.0,0.0,0.0,0.0,0.0,0.0,-2.0088,-2.1224,-2.2217,-2.2543,-2.3648,-2.4498,-2.478,-2.4929,-2.4955,-2.4818,0.0,0.0,0.0,0.0,0.0,0.0,0.0,0.0,0.0,0.0,0.0,-2.4877,-2.4877,0.0,0.0,0.0,0.0,0.0,0.0,-2.419,0.0,0.0,0.0,0.0,0.0,0.0,0.0,0.0,0.0,0.0,0.0,0.0,0.0,0.0,0.0,0.0,-3.203,-3.4621,0.0,0.0,-5.082,-5.3625,-5.5544,-5.7005,-5.7593,-5.5978,-5.2784,-4.8857,-4.4488,0.0,0.0,-3.4394,-3.3807,-3.3807,-3.3807,-3.4064,0.0,0.0,0.0,0.0,0.0,0.0,0.0,0.0,0.0,0.0,0.0,0.0,-5.7904,-5.7546,-5.7546,-5.7679,-5.7997,-5.7997,-5.7997,-5.7997,-5.7726,-5.7546,-5.7546,-5.6825,-5.6259,-5.5984,-5.5036,-5.4513,-5.4391,-5.4747,-5.4706,-5.4307,-5.493,-5.5167,-5.506,-5.4069,-5.3959,-5.4326,-5.3518,-5.3225,-5.3225,-5.3225,-5.298,-5.2769,0.0,0.0,0.0,0.0,0.0,-2.0069,-2.0257,-2.1598,-2.263,-2.271,-2.4011,-2.4891,-2.4731,-2.4654,-2.4623,-2.4623,-2.467,0.0,0.0,0.0,0.0,0.0,0.0,0.0,0.0,0.0,-2.4654,-2.4716,-2.4716,-2.4639,0.0,0.0,-2.4393,-2.419,0.0,0.0,0.0,0.0,0.0,0.0,0.0,0.0,0.0,0.0,0.0,0.0,0.0,0.0,0.0,0.0,0.0,0.0,0.0,0.0,0.0,0.0,-4.6138,-5.16,-5.3051,-5.5133,-5.6602,-5.5244,-5.183,-4.7792,0.0,0.0,0.0,-3.4247,-3.3807,-3.3807,-3.3807,-3.3807,-3.4247,-3.5679,0.0,-3.6927,0.0,0.0,0.0,0.0,0.0,0.0,0.0,-5.7371,-5.7774,-5.7997,-5.7774,-5.7774,-5.7997,-5.7997,-5.7997,-5.7997,-5.7997,-5.7997,-5.7997,-5.7498,-5.7116,-5.6912,-5.558,-5.506,-5.537,-5.563,-5.5433,-5.5,-5.5925,-5.6014,-5.55,-5.4363,-5.4399,-5.5023,-5.3959,-5.3555,-5.3555,-5.3555,-5.3408,-5.3225,0.0,0.0,0.0,0.0,0.0,0.0,-2.0257,-2.1598,-2.2588,-2.2517,-2.384,-2.4731,-2.451,-2.4321,-2.4209,-2.4209,-2.4393,0.0,0.0,0.0,0.0,0.0,0.0,0.0,0.0,0.0,-2.4284,-2.4493,-2.4493,-2.4493,-2.4476,-2.4476,-2.4393,-2.419,0.0,0.0,0.0,0.0,0.0,0.0,0.0,0.0,0.0,0.0,0.0,0.0,0.0,0.0,0.0,0.0,0.0,0.0,0.0,0.0,0.0,0.0,-3.753,-4.6984,-4.8087,-5.1353,-5.4252,-5.3445,-5.0178,-4.6287,0.0,0.0,0.0,-3.4137,-3.3807,-3.3807,-3.3807,-3.3807,-3.4064,-3.488,-3.5752,0.0,0.0,0.0,0.0,0.0,0.0,0.0,0.0,-5.597,-5.7216,-5.795,-5.7351,-5.7252,-5.795,-5.7997,-5.7997,-5.7997,-5.7997,-5.7997,-5.7997,-5.7997,-5.7631,-5.6912,-5.6082,-5.5274,-5.4535,-5.5327,-5.4769,-5.3412,-5.6583,-5.7079,-5.5574,-5.5574,-5.6051,-5.6638,-5.5023,-5.4399,-5.4399,-5.4399,-5.3885,-5.3225,0.0,0.0,0.0,0.0,0.0,0.0,0.0,-2.088,-2.1756,-2.23,-2.3211,-2.3977,-2.4456,-2.4303,-2.419,-2.419,-2.4266,0.0,0.0,0.0,0.0,0.0,0.0,0.0,0.0,0.0,-2.4228,-2.4284,-2.4284,-2.4284,-2.4284,-2.4284,-2.4266,-2.419,-2.419,0.0,0.0,0.0,0.0,0.0,0.0,0.0,0.0,0.0,0.0,0.0,0.0,0.0,0.0,0.0,0.0,0.0,0.0,0.0,0.0,0.0,0.0,0.0,-4.1782,-4.5149,-4.6764,-4.5957,-4.3938,-4.1625,-3.9496,0.0,0.0,0.0,0.0,-3.3807,-3.3807,-3.3807,-3.4431,-3.6376,-3.6927,0.0,0.0,0.0,0.0,0.0,0.0,0.0,0.0,0.0,-5.7726,-5.7997,-5.7774,-5.7774,-5.7997,-5.7997,-5.7997,-5.7997,-5.7997,-5.774,-5.7189,-5.7189,-5.6804,-5.6035,-5.5779,-5.5494,-5.5268,-5.5541,-5.5341,-5.4866,-5.5339,-5.5574,-5.5537,-5.4987,-5.5244,-5.5941,-5.5427,-5.4876,-5.4473,-5.5023,-5.4363,-5.3298,0.0,0.0,0.0,0.0,0.0,0.0,0.0,-2.0502,-2.1279,-2.2065,-2.2839,-2.3603,-2.4318,-2.4284,-2.419,-2.419,-2.419,0.0,0.0,0.0,0.0,0.0,0.0,0.0,0.0,-2.419,-2.419,-2.419,-2.419,-2.419,-2.419,-2.419,-2.419,-2.419,-2.419,0.0,0.0,0.0,0.0,0.0,0.0,0.0,-2.6796,0.0,0.0,0.0,0.0,0.0,0.0,0.0,0.0,0.0,0.0,0.0,0.0,0.0,-2.9016,0.0,0.0,-3.9296,-4.2029,-4.1515,-3.9974,0.0,0.0,0.0,0.0,0.0,0.0,0.0,-3.3807,-3.3807,-3.4394,-3.6266,-3.6817,0.0,0.0,0.0,0.0,0.0,0.0,0.0,0.0,-5.7483,-5.7997,-5.7997,-5.7997,-5.7997,-5.7997,-5.7997,-5.7997,-5.7997,-5.7997,-5.7593,-5.6822,-5.6822,-5.6418,-5.5574,-5.528,-5.5133,-5.5133,-5.5133,-5.4987,-5.4693,-5.4803,-5.5133,0.0,-5.506,-5.55,-5.6455,-5.5831,-5.528,-5.4913,-5.5427,-5.4583,-5.3335,0.0,0.0,0.0,0.0,0.0,0.0,0.0,-2.03,-2.1012,-2.1882,-2.2694,-2.3446,-2.4154,-2.419,-2.419,-2.419,0.0,0.0,0.0,0.0,0.0,0.0,0.0,0.0,0.0,-2.419,-2.419,-2.419,-2.419,-2.419,-2.419,-2.419,-2.419,-2.419,-2.419,0.0,0.0,0.0,0.0,0.0,0.0,0.0,0.0,0.0,0.0,0.0,0.0,0.0,0.0,0.0,0.0,0.0,0.0,0.0,0.0,0.0,0.0,0.0,0.0,0.0,0.0,0.0,0.0,0.0,0.0,0.0,0.0,0.0,0.0,0.0,0.0,-3.388,-3.4211,-3.51,-3.6009,0.0,0.0,0.0,0.0,0.0,0.0,0.0,-5.4509,-5.6602,-5.7997,-5.7997,-5.7997,-5.7997,-5.7997,-5.7997,-5.796,-5.7923,-5.7923,-5.7519,-5.6712,-5.6675,-5.6235,-5.5427,-5.4656,-5.4326,-5.4326,-5.4326,-5.3922,-5.3298,-5.4766,-5.5464,-5.55,-5.5574,-5.6455,-5.7666,-5.6235,-5.5611,-5.55,-5.5574,-5.4583,-5.3335,0.0,0.0,0.0,0.0,0.0,0.0,0.0,0.0,0.0,0.0,-2.2036,-2.2682,-2.4043,-2.419,-2.419,0.0,0.0,0.0,0.0,0.0,0.0,0.0,0.0,0.0,0.0,-2.419,-2.419,-2.419,-2.419,-2.419,-2.419,-2.419,-2.419,-2.419,-2.419,0.0,0.0,0.0,0.0,0.0,0.0,0.0,0.0,0.0,0.0,0.0,-2.8975,-2.8975,0.0,0.0,0.0,0.0,0.0,0.0,0.0,0.0,-2.8998,-2.8453,-2.6021,0.0,-3.1556,-3.1531,-3.1604,0.0,0.0,0.0,0.0,0.0,0.0,0.0,0.0,0.0,0.0,0.0,0.0,0.0,0.0,0.0,0.0,0.0,0.0,-5.6675,-5.5427,-5.6932,-5.7997,-5.7997,-5.7997,-5.7997,-5.7997,-5.7997,-5.7703,-5.7116,-5.7079,-5.6712,-5.5868,-5.528,-5.4546,-5.3775,-5.3592,-5.3482,-5.3482,-5.3482,-5.3408,-5.3225,-5.3592,-5.4106,-5.473,-5.5354,-5.5794,-5.6198,-5.6418,-5.5757,-5.4766,-5.5354,-5.4583,-5.3335,0.0,0.0,0.0,0.0,0.0,0.0,0.0,0.0,0.0,0.0,0.0,0.0,0.0,0.0,0.0,0.0,0.0,0.0,0.0,0.0,0.0,0.0,0.0,0.0,-2.419,-2.419,-2.419,-2.419,-2.419,-2.419,-2.419,-2.419,-2.419,-2.419,-2.419,0.0,0.0,0.0,0.0,0.0,-2.6282,0.0,0.0,0.0,0.0,0.0,-2.8975,-2.8975,0.0,-2.9007,-2.8984,-2.8998,0.0,0.0,0.0,0.0,-2.8984,-2.8631,-2.6858,-2.8041,-2.9752,-2.9719,-2.9953,-3.021,0.0,0.0,0.0,0.0,0.0,0.0,0.0,0.0,0.0,0.0,0.0,0.0,0.0,0.0,0.0,0.0,0.0,-5.6859,0.0,-5.7483,-5.7997,-5.7997,-5.7997,-5.7997,-5.7997,-5.7997,-5.7629,-5.6822,-5.6455,-5.5868,-5.506,-5.462,-5.3995,-5.3225,-5.3225,-5.3225,-5.3225,-5.3225,-5.3225,-5.3225,-5.3225,-5.3665,-5.4436,-5.4987,-5.5354,-5.5611,-5.5794,-5.528,-5.4436,-5.4876,-5.4252,-5.3335,0.0,0.0,0.0,0.0,0.0,0.0,0.0,0.0,0.0,0.0,0.0,0.0,0.0,0.0,0.0,0.0,0.0,0.0,0.0,0.0,0.0,0.0,0.0,-2.419,-2.419,-2.419,-2.419,-2.419,-2.419,-2.419,-2.419,-2.419,-2.419,-2.419,-2.419,-2.419,0.0,0.0,-2.4667,-2.5495,-2.6282,0.0,0.0,0.0,0.0,0.0,0.0,0.0,0.0,-2.8975,-2.8975,-2.8975,-2.8975,0.0,0.0,0.0,0.0,0.0,-2.8998,-2.9672,-3.0406,-3.0551,-3.038,-3.021,0.0,0.0,0.0,0.0,0.0,0.0,0.0,0.0,0.0,0.0,0.0,0.0,0.0,0.0,0.0,0.0,-5.4913,0.0,-5.7519,-5.785,-5.7997,-5.7997,-5.7997,-5.7997,-5.7997,-5.7886,-5.7446,-5.6638,-5.5831,-5.5023,-5.4216,-5.4216,-5.3885,-5.3225,-5.3225,-5.3225,-5.3225,-5.3225,-5.3225,-5.3225,-5.3225,-5.3592,-5.4216,-5.4436,-5.4803,-5.5207,-5.4993,-5.4626,-5.4216,-5.4216,-5.3812,-5.3298,0.0,0.0,0.0,0.0,0.0,0.0,0.0,0.0,0.0,0.0,0.0,0.0,0.0,0.0,0.0,0.0,0.0,0.0,0.0,0.0,0.0,0.0,-2.419,-2.419,-2.419,-2.419,-2.419,-2.419,-2.419,-2.419,-2.419,-2.419,-2.419,-2.419,-2.419,-2.419,-2.419,-2.419,-2.4667,-2.5495,-2.6282,0.0,0.0,0.0,0.0,0.0,0.0,0.0,0.0,-2.8975,-2.8975,-2.8975,-2.8975,0.0,0.0,0.0,0.0,0.0,-2.8998,-2.9125,-2.9445,-3.0368,-3.0391,-3.021,0.0,0.0,0.0,0.0,0.0,0.0,0.0,0.0,0.0,0.0,0.0,0.0,0.0,0.0,0.0,-5.4069,0.0,-5.7189,-5.6088,-5.7189,-5.7997,-5.7997,-5.7997,-5.7997,-5.7997,-5.7336,-5.6638,-5.5794,-5.4987,-5.4216,-5.3408,-5.3408,-5.3335,-5.3225,-5.3225,-5.3225,-5.3225,-5.3225,-5.3225,-5.3225,-5.3225,-5.3298,-5.3408,-5.3433,-5.3469,-5.3702,-5.4963,-5.4632,-5.3408,-5.3408,-5.3335,-5.3225,0.0,0.0,0.0,0.0,0.0,0.0,0.0,0.0,0.0,0.0,0.0,0.0,0.0,0.0,0.0,0.0,0.0,0.0,0.0,0.0,0.0,-2.419,-2.419,-2.419,-2.419,-2.419,-2.419,-2.419,-2.419,-2.419,-2.419,-2.419,-2.419,-2.419,-2.419,-2.419,-2.419,-2.419,-2.4667,-2.5495,0.0,0.0,0.0,0.0,0.0,0.0,0.0,0.0,0.0,0.0,-2.8975,-2.8975,-2.8975,0.0,0.0,0.0,0.0,0.0,-2.8975,-2.9016,-3.0392,-3.6136,-3.4821,-3.2135,0.0,0.0,0.0,0.0,0.0,0.0,0.0,0.0,0.0,0.0,0.0,0.0,0.0,0.0,-5.3004,0.0,0.0,-5.6748,-5.6859,-5.7556,-5.7997,-5.7997,-5.7997,-5.7813,-5.7373,-5.7005,-5.6235,-5.4987,-5.4583,-5.3995,-5.3225,-5.3225,-5.3225,-5.3225,-5.3225,-5.3225,-5.3225,-5.3225,-5.3225,-5.3225,-5.3225,-5.3225,-5.3225,-5.3219,-5.3219,-5.3261,-5.4002,-5.3855,-5.3225,-5.3225,-5.3225,-5.3225,0.0,0.0,0.0,0.0,0.0,0.0,0.0,0.0,0.0,0.0,0.0,0.0,0.0,0.0,0.0,0.0,0.0,0.0,0.0,0.0,-2.419,-2.419,-2.419,-2.419,-2.419,-2.419,-2.419,-2.419,-2.419,-2.417,-2.4075,-2.417,-2.4151,-2.4112,-2.417,-2.419,-2.419,-2.419,-2.4557,-2.5201,0.0,0.0,0.0,0.0,0.0,0.0,0.0,0.0,0.0,0.0,0.0,0.0,0.0,0.0,0.0,-2.8975,-2.8975,-2.8975,-2.8975,-2.8991,-3.0797,-3.824,0.0,0.0,0.0,0.0,0.0,0.0,0.0,0.0,0.0,0.0,0.0,0.0,0.0,0.0,-5.0839,-5.2197,-5.3665,-5.506,-5.5794,-5.6638,-5.7886,-5.7997,-5.7997,-5.7997,-5.7997,-5.7666,-5.6859,-5.6638,-5.5868,-5.4436,-5.4216,-5.3812,-5.3225,-5.3225,-5.3225,-5.3225,-5.3225,-5.3225,-5.3225,-5.3225,-5.3188,-5.323,-5.323,-5.3193,-5.3193,-5.3193,-5.323,-5.323,-5.3188,-5.3225,-5.3225,-5.3225,-5.3225,-5.3225,0.0,0.0,0.0,0.0,0.0,0.0,0.0,0.0,0.0,0.0,0.0,0.0,0.0,0.0,0.0,0.0,0.0,0.0,0.0,0.0,-2.419,-2.419,-2.419,-2.419,-2.419,-2.419,-2.419,-2.419,-2.419,-2.4036,-2.3753,-2.4036,-2.4036,-2.3753,-2.4056,-2.419,-2.419,-2.419,-2.4226,-2.441,-2.5988,0.0,0.0,0.0,0.0,0.0,0.0,0.0,0.0,0.0,0.0,0.0,0.0,0.0,-2.8975,-2.8975,-2.8975,-2.8975,-2.8975,-2.9004,-2.9181,-2.9856,0.0,0.0,0.0,0.0,0.0,0.0,0.0,0.0,0.0,0.0,0.0,0.0,0.0,-5.2601,-5.484,0.0,-5.6785,-5.7629,-5.7776,-5.785,-5.7997,-5.7997,-5.7997,-5.7997,-5.7997,-5.7666,-5.6859,-5.6088,-5.528,-5.4436,-5.3702,-5.3261,-5.3225,-5.3225,-5.3225,-5.3225,-5.3225,-5.3225,-5.3225,-5.3225,-5.3193,-5.3203,-5.3203,-5.3171,-5.3216,-5.3208,-5.3203,-5.3203,-5.323,-5.3225,-5.3225,-5.3225,-5.3225,-5.3225,0.0,0.0,0.0,0.0,0.0,0.0,0.0,0.0,0.0,0.0,0.0,0.0,0.0,0.0,0.0,0.0,0.0,0.0,0.0,0.0,-2.419,-2.419,-2.419,-2.419,-2.419,-2.419,-2.4266,-2.4393,-2.4266,-2.4151,-2.4016,-2.4151,-2.4132,-2.4016,-2.4151,-2.419,-2.419,-2.419,-2.419,-2.4337,-2.5952,-2.6612,0.0,0.0,0.0,0.0,0.0,0.0,0.0,0.0,-2.8975,-2.8975,0.0,-2.8975,-2.8975,-2.8975,-2.8975,-2.8975,-2.8975,-2.9016,-2.8989,-2.8989,0.0,0.0,0.0,0.0,0.0,0.0,0.0,0.0,0.0,0.0,0.0,0.0,0.0,-5.3995,-5.539,-5.6712,-5.7666,-5.796,-5.7997,-5.7997,-5.7997,-5.7997,-5.7997,-5.7997,-5.7556,-5.6895,-5.6088,-5.528,-5.4473,-5.3702,-5.3371,-5.3225,-5.3225,-5.3193,-5.3198,-5.3198,-5.3198,-5.3193,-5.3225,-5.3203,-5.3208,-5.3208,-5.3212,-5.2063,-5.0134,-5.0131,-5.1389,-5.3208,-5.3188,-5.32,-5.3196,-5.3196,-5.3196,-5.3197,0.0,0.0,0.0,0.0,0.0,0.0,0.0,0.0,0.0,0.0,0.0,0.0,0.0,0.0,0.0,0.0,0.0,0.0,0.0,-2.419,-2.419,-2.419,-2.419,-2.4228,-2.4266,-2.4228,-2.4284,-2.441,-2.4284,-2.4298,-2.4438,-2.4518,-2.4664,-2.4803,-2.4627,-2.4557,-2.4557,-2.43,-2.4337,-2.4704,-2.6062,-2.6759,0.0,0.0,0.0,0.0,0.0,0.0,0.0,0.0,-2.8975,0.0,0.0,0.0,0.0,-2.8975,-2.9012,-2.9025,-2.9025,-2.9016,-2.9489,0.0,0.0,0.0,0.0,0.0,0.0,0.0,0.0,0.0,0.0,0.0,0.0,0.0,-5.2307,-5.495,-5.55,-5.6969,-5.7997,-5.7997,-5.7997,-5.7997,-5.7997,-5.7997,-5.7886,-5.7629,-5.7116,-5.6345,-5.528,-5.4693,-5.4032,-5.323,-5.3188,-5.3188,-5.3198,-5.3203,-5.2946,-5.2426,-5.2991,-5.295,-5.2454,-5.2991,-5.3179,-5.3216,-5.3182,-5.1327,-4.8331,-4.8291,-5.0215,-5.3267,-5.3757,-5.3996,-5.3962,-5.4,-5.4,-5.3973,0.0,0.0,0.0,0.0,0.0,0.0,0.0,0.0,0.0,0.0,0.0,0.0,0.0,0.0,0.0,0.0,0.0,0.0,-2.419,-2.419,-2.419,-2.419,-2.419,-2.4266,-2.4476,-2.4284,-2.419,-2.419,-2.419,-2.4454,-2.4924,-2.5241,-2.5643,-2.6067,-2.5628,0.0,0.0,0.0,-2.4667,-2.5495,-2.6282,-2.709,-2.7897,0.0,0.0,0.0,0.0,0.0,0.0,0.0,-2.8975,0.0,0.0,0.0,0.0,0.0,-2.9002,-2.9004,-2.904,-2.9041,0.0,0.0,0.0,0.0,0.0,0.0,0.0,0.0,0.0,0.0,0.0,0.0,0.0,-4.8336,-5.2412,-5.5574,-5.5574,-5.6969,-5.7997,-5.7997,-5.7997,-5.7997,-5.7997,-5.7997,-5.7666,-5.6859,-5.6785,-5.6088,-5.4473,-5.4399,-5.4002,-5.3203,-5.3193,-5.3198,-5.3219,-5.3212,-5.2353,-5.0802,-5.237,-5.2333,-5.0875,-5.2438,-5.3148,-5.3154,-5.3154,-5.1337,-4.8306,-4.8302,-5.0231,-5.3342,-5.5018,-5.5668,-5.5706,-5.5712,-5.5712,-5.5686,0.0,0.0,0.0,0.0,0.0,0.0,0.0,0.0,0.0,0.0,0.0,0.0,0.0,0.0,0.0,0.0,0.0,0.0,-2.4209,-2.419,-2.419,-2.419,-2.419,-2.4228,-2.4303,-2.4228,-2.419,-2.419,-2.419,-2.4261,-2.4401,-2.5087,-2.5491,-2.5628,-2.6057,0.0,0.0,0.0,-2.6025,-2.6319,-2.7126,-2.7603,-2.7897,0.0,0.0,0.0,0.0,0.0,0.0,0.0,0.0,0.0,0.0,0.0,0.0,-2.8991,-2.9016,-2.9491,-3.1777,0.0,0.0,0.0,0.0,0.0,0.0,0.0,0.0,0.0,0.0,0.0,0.0,0.0,0.0,-4.9548,-5.1972,-5.4326,-5.5427,-5.6492,-5.7373,-5.7923,-5.7997,-5.7776,-5.7226,-5.7152,-5.6822,-5.6014,-5.5427,-5.4913,-5.4436,-5.3897,-5.3461,-5.3203,-5.2091,-5.2059,-5.3219,-5.3222,-5.1811,-4.9072,-4.952,-5.0704,-5.2438,-5.0591,-4.9779,-4.974,-4.9781,-4.9191,-4.8269,-4.8274,-4.9529,-5.1499,-5.2009,-5.362,-5.5729,-5.5694,-5.569,-5.5684,0.0,0.0,0.0,0.0,0.0,0.0,0.0,0.0,0.0,0.0,0.0,0.0,0.0,0.0,0.0,0.0,0.0,0.0,0.0,0.0,-2.419,-2.419,-2.419,-2.419,-2.419,-2.419,-2.4373,-2.4667,-2.4373,-2.463,-2.5454,-2.5527,-2.6004,-2.6833,0.0,-2.739,0.0,0.0,-2.6796,-2.7126,-2.7603,-2.797,-2.8338,0.0,0.0,0.0,0.0,0.0,0.0,0.0,0.0,0.0,0.0,0.0,0.0,-3.0527,-3.0931,-3.1323,-3.3276,0.0,0.0,0.0,0.0,0.0,0.0,0.0,0.0,0.0,0.0,0.0,0.0,-4.9748,0.0,-5.13,-5.2353,-5.3659,-5.495,-5.5831,-5.6638,-5.7446,-5.7226,-5.6969,-5.6822,-5.6528,-5.5978,-5.517,-5.4656,-5.4252,-5.3959,-5.3456,-5.2909,-5.2279,-5.1952,-5.1584,-5.1256,-5.1259,-5.026,-4.8302,-4.8304,-4.9336,-5.1182,-4.9189,-4.8304,-4.8302,-4.8273,-4.8308,-4.8336,-4.899,-4.9807,-5.0683,-5.0718,-5.1905,-5.3705,-5.3694,-5.3315,-5.2731,0.0,0.0,0.0,0.0,0.0,0.0,0.0,0.0,0.0,0.0,0.0,0.0,0.0,0.0,0.0,0.0,0.0,0.0,0.0,0.0,-2.419,-2.419,-2.43,-2.43,-2.419,-2.4337,-2.474,-2.5438,-2.463,-2.5234,-2.7229,-2.6307,-2.6893,-2.8792,0.0,-2.8611,0.0,-2.7126,-2.7236,-2.7897,-2.7897,-2.8338,-2.8975,-2.8975,0.0,0.0,0.0,0.0,0.0,0.0,0.0,0.0,0.0,0.0,-2.9564,-3.2514,-3.3562,-3.3795,0.0,0.0,0.0,0.0,0.0,0.0,0.0,0.0,0.0,0.0,0.0,0.0,-5.317,-5.3306,-5.3382,-5.3199,-5.3225,-5.3476,-5.4289,-5.5023,-5.5794,-5.6602,-5.6051,-5.5868,-5.6528,-5.5904,-5.514,-5.4301,-5.4222,-5.3812,-5.3046,-5.313,-5.2467,-5.0839,-5.2069,-5.1335,-4.8345,-4.8307,-4.8307,-4.831,-4.8273,-4.8273,-4.8273,-4.8309,-4.8272,-4.831,-4.8444,-4.854,-4.8636,-5.0101,-5.0694,-5.0703,-5.0696,-5.0708,-5.067,-5.0544,-4.9538,-4.8281,0.0,0.0,0.0,0.0,0.0,0.0,0.0,0.0,0.0,0.0,0.0,0.0,0.0,0.0,0.0,0.0,0.0,0.0,0.0,0.0,-2.419,-2.419,-2.5,-2.5073,-2.4226,-2.5438,-2.5968,-2.5685,-2.4677,-2.486,0.0,0.0,0.0,-2.7163,0.0,-2.8888,0.0,-2.8558,-2.8572,-2.8741,-2.8741,-2.8828,-2.8975,-2.8975,-2.8975,0.0,0.0,0.0,0.0,0.0,0.0,0.0,-3.1955,-3.1028,-2.9125,-2.9844,-3.1836,0.0,0.0,0.0,0.0,0.0,0.0,0.0,0.0,0.0,0.0,0.0,0.0,0.0,-5.2981,-5.4269,-5.4709,-5.3422,-5.32,-5.3487,-5.4295,-5.4546,-5.495,-5.5757,-5.5684,-5.5427,-5.495,-5.4766,-5.4165,-5.3012,-5.2662,-5.225,-5.1751,-5.2675,-5.2444,-5.0848,-4.9861,-4.9002,-4.8336,-4.8295,-4.8302,-4.8309,-4.8302,-4.8295,-4.8302,-4.8282,-4.8278,-4.8371,-4.9649,-5.0185,-5.0203,-5.0569,-5.0696,-5.0699,-5.0721,-5.0701,-5.0542,-4.9281,-4.8593,-4.8301,0.0,0.0,0.0,0.0,0.0,0.0,0.0,0.0,0.0,0.0,0.0,0.0,0.0,0.0,0.0,0.0,0.0,0.0,0.0,0.0,0.0,-2.419,-2.4723,-2.513,-2.5355,-2.5404,-2.558,-2.581,-2.4704,0.0,0.0,0.0,0.0,-2.7793,0.0,-2.8975,0.0,-2.8975,-2.8975,-2.8975,-2.8975,-2.8975,-2.9012,-2.9439,-2.9586,-2.9586,-2.9586,0.0,0.0,0.0,0.0,0.0,0.0,0.0,-2.9305,-3.0833,-3.2474,-3.3797,0.0,0.0,0.0,0.0,0.0,0.0,0.0,0.0,0.0,0.0,0.0,-5.0967,-5.1825,-5.4031,-5.541,-5.4522,-5.41,-5.3829,-5.382,-5.4201,-5.4648,-5.5225,-5.5166,-5.4912,-5.4428,-5.4056,-5.3385,-5.2286,-5.1705,-5.1262,-5.1016,-5.1136,-5.1068,-5.081,-4.9145,-4.7897,-4.7018,-4.8625,-4.9476,-4.9448,-4.9476,-4.8586,-4.7011,-4.7003,-4.7918,-4.9478,-5.0366,-5.0697,-5.0687,-5.0687,-5.0696,-5.0702,-5.0702,-5.0719,-5.061,-4.9778,-4.9455,-4.9451,0.0,0.0,0.0,0.0,0.0,0.0,0.0,0.0,0.0,0.0,0.0,0.0,0.0,0.0,0.0,0.0,0.0,0.0,0.0,0.0,0.0,-2.419,-2.4207,-2.4835,-2.6171,-2.5149,-2.4921,-2.5534,0.0,0.0,0.0,0.0,0.0,-2.8975,0.0,0.0,0.0,-2.8975,-2.8975,-2.8975,-2.8975,-2.9085,-2.9292,-2.9953,-3.0283,-3.0393,-3.0393,-2.9807,-2.9004,-2.9002,0.0,0.0,0.0,0.0,-2.9642,-3.287,-3.3806,-3.3813,0.0,0.0,0.0,0.0,0.0,0.0,0.0,0.0,0.0,0.0,0.0,-5.0692,-5.0675,-5.2984,-5.5038,-5.5592,-5.5113,-5.4339,-5.3344,-5.3733,-5.4242,-5.4427,-5.4217,-5.4037,-5.3968,-5.3396,-5.2598,-5.1639,-5.0907,-5.035,-5.0174,-4.9135,-4.9022,-5.0052,-4.8607,-4.7106,-4.5601,-4.8412,-4.9808,-4.9808,-4.9808,-4.8327,-4.5611,-4.5596,-4.715,-4.9862,-5.0444,-5.0692,-5.0683,-5.0683,-5.0683,-5.0683,-5.0683,-5.0696,-5.0688,-5.0688,-5.071,-5.0703,0.0,0.0,0.0,0.0,0.0,0.0,0.0,0.0,0.0,0.0,0.0,0.0,0.0,0.0,0.0,0.0,0.0,0.0,-2.4209,0.0,0.0,-2.419,-2.4185,-2.4315,-2.4522,-2.5678,-2.5685,-2.4402,0.0,0.0,0.0,0.0,0.0,-2.8975,0.0,0.0,0.0,0.0,0.0,-2.8975,-2.8975,-2.9439,-3.0063,-3.0173,-3.0613,-3.1237,-3.1237,-3.0271,-2.898,-2.9004,-2.9004,0.0,0.0,0.0,-2.9616,-3.2842,-3.3776,0.0,0.0,0.0,0.0,0.0,0.0,0.0,0.0,0.0,0.0,0.0,-4.8243,-5.0726,-5.0699,-5.1062,-5.2296,-5.525,-5.5618,-5.4971,-5.3434,-5.2837,-5.2498,-5.2322,-5.2241,-5.2265,-5.2234,-5.2121,-5.1555,-5.0342,-4.9807,-4.9098,-4.8009,-4.7235,-4.6892,-4.7071,-4.6341,-4.5855,-4.5618,-4.6046,-4.6282,-4.6262,-4.6282,-4.6052,-4.5611,-4.5592,-4.5841,-4.6455,-4.9413,-5.0702,-5.0682,-5.0682,-5.0682,-5.0682,-5.0682,-5.0702,-5.0682,-5.0682,-5.0701,-5.0678,0.0,0.0,0.0,0.0,0.0,0.0,0.0,0.0,0.0,0.0,0.0,0.0,0.0,0.0,0.0,-2.4236,-2.419,-2.4192,-2.419,-2.419,-2.419,-2.419,-2.4188,-2.4205,-2.4185,-2.4904,-2.4913,0.0,0.0,0.0,0.0,-2.8975,-2.8975,0.0,0.0,0.0,0.0,0.0,0.0,0.0,-2.8975,-2.9195,-2.9622,-3.054,-3.1091,-3.1458,-3.1898,-3.1616,-3.0906,-3.0136,-3.0075,-3.0734,-3.3093,0.0,0.0,0.0,-3.3813,0.0,0.0,0.0,0.0,0.0,0.0,0.0,0.0,0.0,0.0,-4.5019,-4.6603,-4.8455,-5.0355,-5.0721,-5.116,-5.2663,-5.3683,-5.3719,-5.202,-5.2144,-5.2196,-5.1754,-5.222,-5.2259,-5.1343,-5.1204,-5.0588,-4.9077,-4.8334,-4.7739,-4.72,-4.6424,-4.6015,-4.6015,-4.576,-4.5591,-4.5609,-4.5591,-4.5607,-4.5589,-4.5607,-4.5607,-4.5607,-4.5586,-4.5607,-4.5686,-4.7183,-4.7855,-4.7837,-4.7837,-4.7837,-4.7837,-4.7837,-4.7837,-4.8068,-4.999,-5.0702,-5.0683,0.0,0.0,0.0,0.0,0.0,0.0,0.0,0.0,0.0,0.0,0.0,0.0,0.0,0.0,0.0,0.0,-2.4174,-2.419,-2.419,-2.419,-2.419,-2.419,-2.419,-2.4207,-2.4202,-2.4983,0.0,0.0,0.0,0.0,-2.8975,-2.9021,-2.8998,0.0,-2.8975,0.0,0.0,0.0,0.0,0.0,0.0,0.0,0.0,-3.0332,-3.1297,-3.2082,-3.2706,-3.2889,-3.2768,-3.1737,-3.143,-3.1686,-3.3276,-3.3802,0.0,0.0,0.0,0.0,0.0,0.0,0.0,0.0,0.0,0.0,0.0,0.0,0.0,0.0,-4.5604,-4.6393,-4.8914,-5.0125,-5.0721,-5.0701,-5.1759,-5.212,-5.087,-5.1437,-5.1792,-5.1353,-5.1787,-5.1625,-5.0394,-5.0125,-4.9433,-4.7932,-4.724,-4.6817,-4.6586,-4.5932,-4.5586,-4.5586,-4.5586,-4.5586,-4.5586,-4.5586,-4.5586,-4.5586,-4.5586,-4.5586,-4.5586,-4.5586,-4.5607,-4.5609,-4.5589,-4.5589,-4.5609,-4.5609,-4.5609,-4.5609,-4.5609,-4.5591,-4.5898,-4.8471,-4.9952,-5.0702,0.0,0.0,0.0,0.0,0.0,0.0,0.0,0.0,0.0,0.0,0.0,0.0,-2.4209,-2.4209,-2.419,-2.4209,-2.4209,-2.419,-2.419,-2.419,-2.419,-2.419,-2.419,0.0,-2.419,-2.7194,0.0,0.0,0.0,0.0,-2.8998,-2.9016,-2.9016,-2.8975,-2.8975,-2.9002,-2.9004,0.0,0.0,0.0,0.0,0.0,0.0,0.0,-3.1018,-3.3697,-3.3733,-3.375,-3.3729,-3.365,-3.2627,-3.1696,-3.3266,-3.3807,-3.3807,0.0,0.0,0.0,0.0,0.0,0.0,0.0,0.0,0.0,0.0,0.0,0.0,-4.5322,-4.5586,-4.5645,-4.5819,-4.8509,-5.0683,-5.0701,-5.0759,-5.0798,-5.0719,-5.0759,-5.0779,-5.0759,-4.9836,-4.9183,-4.9125,-4.8586,-4.7894,-4.7048,-4.6932,-4.6547,-4.5701,-4.5624,-4.5586,-4.5586,-4.5586,-4.5586,-4.5586,-4.5586,-4.5586,-4.5586,-4.5586,-4.5586,-4.5586,-4.5586,-4.5586,-4.5586,-4.5586,-4.5586,-4.5586,-4.5586,-4.5586,-4.5586,-4.5586,-4.5607,-4.5609,-4.5819,-4.7932,-5.0702,0.0,0.0,0.0,0.0,0.0,0.0,0.0,0.0,0.0,0.0,0.0,0.0,0.0,-2.419,-2.419,-2.419,-2.419,-2.419,-2.419,-2.3923,-2.3903,-2.419,-2.4198,-2.4194,-2.4222,-2.5316,0.0,0.0,0.0,-2.7954,-2.5964,-2.8013,-2.8984,-2.8975,-2.8975,-2.9012,-2.9135,-3.1196,0.0,0.0,0.0,0.0,0.0,0.0,0.0,0.0,0.0,0.0,-3.3823,-3.3807,-3.3413,-3.302,-3.3623,-3.3807,-3.3807,-3.3807,-3.4301,-3.475,0.0,0.0,0.0,0.0,0.0,0.0,0.0,0.0,-4.1717,-4.2231,-4.4072,-4.5611,-4.5589,-4.7471,-4.9182,-4.9548,-4.9605,-4.9875,-5.0625,-4.9759,-4.9452,-5.0548,-5.0317,-4.9509,-4.8048,-4.7702,-4.7163,-4.6124,-4.6086,-4.5932,-4.5624,-4.5586,-4.5586,-4.5586,-4.5586,-4.5586,-4.5586,-4.5586,-4.5586,-4.5586,-4.5586,-4.5586,-4.5586,-4.5586,-4.5586,-4.5586,-4.5586,-4.5586,-4.5586,-4.5586,-4.5586,-4.5586,-4.5586,-4.5586,-4.5607,-4.5589,-4.6396,-4.7741,0.0,0.0,0.0,0.0,0.0,0.0,0.0,0.0,0.0,-2.419,0.0,0.0,0.0,0.0,-2.4417,-2.4996,-2.4314,-2.3982,-2.4272,-2.41,-2.3934,-2.3764,-2.4042,-2.4447,-2.4981,-2.4461,0.0,0.0,0.0,0.0,0.0,-2.7976,-2.8984,-2.8975,-2.8975,-2.9012,0.0,0.0,0.0,-2.9089,0.0,0.0,-3.2206,0.0,0.0,0.0,0.0,0.0,0.0,-3.4614,-3.4257,-3.3789,-3.3789,-3.3817,-3.3797,-3.3792,-3.4344,-3.475,-3.4002,0.0,0.0,0.0,0.0,0.0,0.0,0.0,-3.9888,-3.9896,-4.202,-4.4231,-4.5393,-4.6509,-4.7586,-4.8528,-4.8566,-4.8682,-4.9432,-4.824,-4.7683,-4.8836,-4.9008,-4.8374,-4.6894,-4.674,-4.6432,-4.5663,-4.5586,-4.5586,-4.5586,-4.5586,-4.5586,-4.5586,-4.5586,-4.5586,-4.5586,-4.5586,-4.5586,-4.5586,-4.5586,-4.5586,-4.5586,-4.5586,-4.5586,-4.5586,-4.5586,-4.5586,-4.5586,-4.5586,-4.5586,-4.5586,-4.5586,-4.5586,-4.5586,-4.5607,-4.5609,-4.6108,0.0,0.0,0.0,0.0,0.0,0.0,0.0,0.0,-2.419,-2.419,0.0,0.0,0.0,0.0,0.0,-2.6559,-2.461,-2.3649,-2.4378,-2.4782,-2.4417,-2.3035,-2.3779,-2.4941,-2.654,-2.51,0.0,0.0,0.0,0.0,0.0,0.0,-2.9016,-2.8975,-2.8975,-2.9002,-2.9004,0.0,-2.8991,-2.9271,0.0,-3.3795,-3.3802,0.0,0.0,0.0,-3.5717,-3.6334,0.0,-3.6295,-3.5154,-3.3789,-3.3789,-3.3799,-3.3787,-3.3796,-3.3783,-3.3813,0.0,0.0,0.0,0.0,0.0,0.0,0.0,0.0,-3.8704,-3.8743,-3.9679,-4.1558,-4.4949,-4.5603,-4.6124,-4.7778,-4.7606,-4.726,-4.726,-4.6301,-4.5591,-4.5591,-4.5609,-4.5589,-4.5589,-4.5607,-4.5586,-4.5586,-4.5586,-4.5586,-4.5509,-4.5509,-4.5547,-4.5586,-4.5586,-4.5586,-4.5586,-4.5586,-4.5586,-4.5586,-4.5586,-4.5586,-4.5586,-4.5586,-4.5586,-4.5586,-4.5586,-4.5586,-4.5586,-4.5586,-4.5586,-4.5586,-4.5586,-4.5586,-4.5586,-4.5586,-4.5607,-4.605,0.0,0.0,0.0,0.0,0.0,0.0,-2.419,-2.4202,-2.4205,0.0,0.0,0.0,-2.4216,-2.3366,-2.3864,-2.6462,-2.6116,-2.5648,-2.5499,-2.5154,-2.5022,-2.5075,-2.4331,-2.476,-2.6584,-2.7278,-2.7112,0.0,0.0,0.0,0.0,0.0,0.0,0.0,-2.8975,-2.9004,-2.8989,-2.8991,0.0,0.0,-3.2502,-3.3806,0.0,0.0,0.0,0.0,0.0,-3.7026,-3.7792,0.0,-3.4869,-3.3817,-3.3826,-3.378,-3.3797,-3.3802,-3.3813,-3.3797,-3.3802,0.0,0.0,0.0,0.0,0.0,0.0,0.0,-3.8962,-3.9845,-4.0257,-4.1549,-4.497,-4.562,-4.574,-4.6201,-4.6163,-4.6086,-4.6086,-4.5799,-4.5607,-4.5607,-4.5607,-4.5624,-4.5624,-4.5586,-4.5586,-4.5586,-4.5586,-4.5086,-4.3876,-4.3816,-4.4372,-4.5582,-4.562,-4.5603,-4.5586,-4.5586,-4.5586,-4.5586,-4.5586,-4.5586,-4.5586,-4.5586,-4.5586,-4.5586,-4.5586,-4.5586,-4.5586,-4.5586,-4.5586,-4.5586,-4.5586,-4.5586,-4.5586,-4.5586,-4.5607,-4.5742,0.0,0.0,0.0,0.0,0.0,-2.4188,-2.4194,-2.376,-2.3597,0.0,0.0,0.0,-2.518,-2.3488,-2.3492,-2.6437,-2.596,-2.5562,-2.5762,-2.5459,-2.5257,-2.531,-2.4965,-2.5359,-2.6677,-2.7792,-2.816,-2.7832,0.0,0.0,0.0,0.0,0.0,0.0,0.0,0.0,0.0,0.0,0.0,0.0,-3.2488,0.0,0.0,-3.3807,-3.3826,0.0,0.0,0.0,-3.853,-3.7257,-3.6391,0.0,0.0,-3.378,-3.3808,-3.3799,-3.3826,-3.3789,-3.3807,-3.3807,0.0,0.0,0.0,0.0,-3.3797,-3.5266,-3.6875,0.0,-3.9188,-4.1314,-4.4038,-4.5145,-4.5488,-4.5124,-4.5355,-4.5586,-4.5586,-4.5586,-4.5586,-4.5586,-4.5586,-4.5586,-4.5586,-4.5603,-4.5603,-4.5603,-4.562,-4.4872,-4.3184,-4.2398,-4.2475,-4.3415,-4.4872,-4.5582,-4.5603,-4.5603,-4.5603,-4.5586,-4.5586,-4.5586,-4.5586,-4.5603,-4.5603,-4.5586,-4.5603,-4.5603,-4.5586,-4.5586,-4.5586,-4.5586,-4.5586,-4.5586,-4.5586,-4.5586,-4.5624,-4.5607,0.0,0.0,-2.4226,-2.4188,-2.419,-2.419,-2.4188,-2.3249,-2.2919,0.0,-2.4202,-2.4699,-2.6045,-2.4146,-2.377,-2.632,-2.5043,-2.4588,-2.5578,-2.5678,-2.5407,-2.47,-2.5682,-2.6446,-2.6898,-2.7317,-2.8137,-2.9427,0.0,0.0,0.0,0.0,0.0,0.0,0.0,0.0,0.0,0.0,0.0,-2.9295,-3.2511,-3.3806,0.0,0.0,-3.3799,-3.4219,-3.7505,-3.8678,-3.87,-3.8683,-3.8676,0.0,0.0,0.0,0.0,0.0,-3.4109,0.0,-3.3807,-3.3823,-3.3797,-3.3799,-3.4054,0.0,-3.3879,-3.3807,-3.3919,0.0,-3.7521,-4.0784,-4.239,-4.3981,-4.4837,-4.4205,-4.4876,-4.547,-4.5586,-4.5509,-4.5432,-4.5393,-4.5393,-4.5393,-4.5316,-4.5295,-4.5235,-4.5043,-4.5021,-4.4388,-4.2893,-4.1327,-4.0679,-4.1058,-4.3662,-4.5043,-4.5043,-4.5389,-4.5582,-4.5603,-4.5603,-4.5603,-4.5603,-4.5582,-4.5389,-4.5047,-4.5428,-4.562,-4.5603,-4.5586,-4.5586,-4.5586,-4.5586,-4.5586,-4.5586,-4.5586,-4.5586,-4.5586,-2.2988,0.0,-2.4224,-2.419,-2.419,-2.4205,-2.4205,-2.3979,-2.3923,-2.4163,-2.4204,-2.392,-2.3206,-2.4761,-2.5763,-2.5505,-2.5912,-2.6051,-2.594,-2.6286,-2.6253,-2.5741,-2.6582,-2.7243,-2.7685,-2.803,-2.8494,-2.9104,-3.0023,0.0,0.0,0.0,0.0,0.0,0.0,0.0,0.0,0.0,0.0,-2.9255,-3.2485,0.0,-3.3807,-3.3807,-3.3808,-3.4243,-3.7514,-3.8722,-3.8683,-3.8707,-3.8707,-3.8573,0.0,0.0,0.0,-3.7735,0.0,0.0,0.0,-3.3821,-3.3784,-3.3808,-3.5773,0.0,-3.4385,-3.3787,-3.455,0.0,-3.844,-3.9288,-4.0117,-4.095,-4.1819,-4.2775,-4.3826,-4.4778,-4.5509,-4.5009,-4.447,-4.4278,-4.4256,-4.4064,-4.3624,-4.3585,-4.2992,-4.1613,-4.1514,-4.136,-4.1014,-4.0684,-4.1755,-4.4498,-4.2585,-4.1514,-4.1498,-4.4234,-4.5616,-4.5616,-4.5616,-4.5616,-4.5616,-4.5616,-4.4102,-4.1635,-4.441,-4.5582,-4.562,-4.5603,-4.5586,-4.5586,-4.5586,-4.5586,-4.5586,-4.5586,-4.5586,-4.5586,-2.2882,-2.3312,-2.3816,-2.4151,-2.419,-2.4188,-2.4198,-2.4205,-2.4198,-2.4203,-2.4199,-2.4281,-2.4459,-2.5176,-2.5703,-2.5942,-2.6081,-2.6185,-2.635,-2.659,-2.659,-2.6383,-2.6757,-2.7303,-2.7897,-2.8057,-2.8696,-2.9813,-3.0465,0.0,0.0,0.0,0.0,0.0,0.0,0.0,0.0,0.0,-3.1404,-3.1547,-3.3125,0.0,-3.3807,-3.3789,-3.3789,-3.4215,-3.7529,-3.8707,-3.87,-3.8726,-3.8695,0.0,-4.0566,-3.9989,-3.9019,0.0,-3.8773,-3.5883,0.0,0.0,-3.5057,-3.6738,-3.7958,0.0,0.0,-3.667,-3.6269,-3.6247,-3.758,-3.8801,-3.9089,-3.9383,-4.0079,-4.1532,-4.2698,-4.3464,-4.3464,-4.3939,-4.4085,-4.3547,-4.3508,-4.341,-4.3124,-4.2816,-4.2047,-4.063,-4.0476,-4.0492,-4.0492,-4.0492,-4.1277,-4.298,-4.1377,-4.0499,-4.0482,-4.2184,-4.3063,-4.3047,-4.3047,-4.3047,-4.3047,-4.3063,-4.2107,-4.0581,-4.2321,-4.4008,-4.5582,-4.5603,-4.5586,-4.5586,-4.5586,-4.5586,-4.5586,-4.5586,-4.5586,-4.5586,-2.2713,0.0,-2.3571,-2.4089,-2.4207,-2.419,-2.4207,-2.4188,-2.4304,-2.4644,-2.4655,-2.5247,-2.6775,-2.572,-2.5388,-2.6507,-2.6009,-2.588,-2.6522,-2.6522,-2.6455,-2.632,-2.6623,-2.7078,-2.7685,-2.7911,-2.8753,-3.0315,-3.088,-3.1691,0.0,0.0,0.0,0.0,0.0,0.0,0.0,0.0,0.0,-3.3802,0.0,-3.3797,-3.3789,-3.3817,-3.4199,-3.5104,-3.7757,-3.8689,-3.8784,-3.9428,-3.9612,-3.9978,-4.1972,-4.1213,0.0,0.0,0.0,0.0,0.0,0.0,-3.712,-3.9819,-3.9768,-3.9295,0.0,0.0,0.0,-3.564,-3.7007,-3.8689,0.0,0.0,0.0,-4.0108,-4.1461,-4.1952,-4.0807,-4.233,-4.3316,-4.2662,-4.2316,-4.2162,-4.2354,-4.1777,-4.1123,-4.0546,-4.0523,-4.0485,-4.0508,-4.0492,-4.0492,-4.0508,-4.0492,-4.0515,-4.0515,-4.0515,-4.0499,-4.0482,-4.0482,-4.0482,-4.0482,-4.0499,-4.0499,-4.0504,-4.0504,-4.2437,-4.5582,-4.5603,-4.5586,-4.5586,-4.5586,-4.5586,-4.5586,-4.5586,-4.5586,-4.5586,-2.2375,-2.3307,0.0,-2.4179,-2.4218,-2.4207,-2.4202,-2.419,-2.4729,-2.62,-2.6437,-2.6753,-2.7665,0.0,0.0,0.0,-2.5831,-2.5748,-2.6071,-2.5849,-2.5514,-2.5041,-2.6449,-2.7143,-2.6933,-2.787,-2.8601,-2.9191,-2.9953,-3.0785,0.0,0.0,0.0,0.0,-3.3733,0.0,0.0,0.0,-3.3797,0.0,-3.3799,-3.3817,0.0,-3.3814,-3.5601,-3.8191,-3.8573,-3.87,-3.914,-4.1983,-4.2939,-4.2521,0.0,-4.0956,-4.3041,-4.3404,0.0,0.0,0.0,-3.9844,-4.0024,-4.0425,-4.0401,-4.0321,-4.0479,0.0,-4.0176,-3.9815,0.0,-3.87,-3.8707,0.0,0.0,-3.8033,-3.9937,-4.0731,-3.8677,-3.9838,-4.0893,-4.0816,-3.9469,-3.8892,-3.9662,-3.8969,-3.9046,-4.0392,-4.05,-4.05,-4.0523,-4.0508,-4.0508,-4.0508,-4.0508,-4.0508,-4.0508,-4.0508,-4.0508,-4.0508,-4.0508,-4.0508,-4.0508,-4.0515,-4.0499,-4.0499,-4.0488,-4.2458,-4.5582,-4.5603,-4.5586,-4.5586,-4.5586,-4.5586,-4.5586,-4.5586,-4.5586,-4.5586,-2.238,-2.2729,0.0,-2.4076,-2.4198,-2.4198,-2.4194,-2.3567,-2.3955,-2.6388,-2.6708,-2.7163,0.0,0.0,0.0,0.0,0.0,-2.7026,0.0,0.0,-2.6118,-2.5916,-2.6588,-2.7099,-2.7437,-2.7887,-2.8629,-2.9696,-3.0026,-3.087,-3.2118,-3.2449,0.0,0.0,-3.3587,0.0,-3.3183,0.0,-3.4789,0.0,0.0,0.0,0.0,-3.6641,-3.8663,-4.1249,-3.9375,-3.9287,-4.0427,-4.2733,-4.2263,-4.0463,-3.9097,-3.9634,-4.0708,-4.0703,0.0,0.0,-4.0311,-4.1216,-4.1781,-4.076,-4.0521,-4.0751,-4.18,-4.2008,-4.1701,-4.0722,0.0,0.0,0.0,0.0,0.0,0.0,-3.9142,-3.9143,-3.79,-3.8047,-3.8469,-3.8969,-3.843,-3.8123,-3.8507,-3.82,-3.8277,-3.9008,-3.9961,-4.05,-4.05,-4.0485,-4.0508,-4.0508,-4.0508,-4.0508,-4.0508,-4.0508,-4.0508,-4.0508,-4.0508,-4.0508,-4.0508,-4.0515,-4.1569,-4.3481,-4.347,-4.4278,-4.5582,-4.5603,-4.5586,-4.5586,-4.5586,-4.5586,-4.5586,-4.5586,-4.5586,-4.5586,-2.2389,0.0,0.0,0.0,-2.4944,-2.5107,-2.3863,-2.3577,-2.4291,-2.6402,0.0,0.0,-2.9449,-3.0729,0.0,0.0,-2.8157,-2.7868,0.0,0.0,-2.6656,-2.6551,-2.7163,-2.7687,-2.8065,-2.8492,-2.9323,-3.054,-3.054,-3.1237,-3.2596,-3.2596,-3.2742,0.0,0.0,-3.3476,-3.3036,0.0,-3.5588,-3.5845,-3.5038,-3.6303,-3.87,-3.87,-4.0161,-4.1994,-4.0535,-4.0198,-4.0763,-4.282,-4.1948,-3.9856,-3.9,-3.9316,-4.002,-4.0028,0.0,0.0,-4.0551,-4.1732,-4.2468,-4.1261,-4.0931,-4.1261,-4.2755,-4.3195,-4.3069,-4.2087,-4.1901,0.0,0.0,0.0,-3.887,-3.9298,0.0,-3.8331,-3.741,-3.7133,-3.7199,-3.7584,-3.7623,-3.7623,-3.7623,-3.743,-3.7507,-3.7969,-3.8907,-3.9576,-3.9807,-4.0254,-4.0485,-4.0485,-4.0523,-4.0508,-4.0508,-4.0508,-4.0508,-4.0508,-4.0508,-4.0508,-4.0508,-4.0515,-4.2354,-4.561,-4.5599,-4.562,-4.562,-4.5603,-4.5586,-4.5586,-4.5586,-4.5586,-4.5586,-4.5586,-4.5586,-4.5586,-2.2281,-2.2302,0.0,0.0,0.0,0.0,-2.3027,0.0,0.0,0.0,0.0,0.0,0.0,0.0,0.0,0.0,0.0,-2.7523,-2.774,0.0,-2.655,0.0,0.0,-2.9171,-2.85,-3.0017,-3.0975,-3.1347,-3.1347,-3.1788,-3.2596,-3.2596,-3.3036,-3.377,-3.3807,-3.3807,-3.3807,-3.4688,-3.58,-3.7054,-3.6993,-3.7668,-3.8689,-3.8689,-3.8737,-3.925,-4.2284,-4.1397,-3.9249,-4.2423,-4.3443,-4.2794,-3.9674,-4.083,-4.3339,-4.3365,-4.2694,-4.1933,-4.1556,-4.1663,-4.1893,-4.2094,-4.1963,-4.2008,-4.2887,-4.3503,-4.4157,-4.5214,-4.5454,-4.4052,-3.951,-3.8683,-3.8884,-3.9472,-3.9566,0.0,0.0,-3.743,-3.7661,-3.6853,-3.6738,-3.6738,-3.6738,-3.6045,-3.6238,-3.7892,-3.7276,-3.7199,-3.8046,-3.9615,-4.0515,-4.0515,-4.0485,-4.0508,-4.0508,-4.0508,-4.0508,-4.0508,-4.0508,-4.0508,-4.0508,-4.0499,-4.2376,-4.5616,-4.562,-4.5586,-4.5586,-4.5586,-4.5586,-4.5586,-4.5586,-4.5586,-4.5586,-4.5586,-4.5586,-4.5586,0.0,0.0,0.0,0.0,0.0,0.0,0.0,-2.6066,0.0,0.0,0.0,0.0,0.0,-3.335,-3.2859,0.0,0.0,-2.9937,-2.9042,-2.8732,0.0,0.0,0.0,-3.0071,0.0,-3.0595,-3.1074,-3.1384,-3.1384,-3.1912,-3.2845,-3.2698,-3.3103,-3.4068,0.0,-3.3807,0.0,0.0,0.0,0.0,0.0,-3.8596,-3.8689,-3.8689,-3.9381,-4.0583,-4.2723,-4.2811,-4.1705,-4.0653,-4.1739,-4.3306,-4.2216,-4.2647,-4.348,-4.3517,-4.3639,-4.3472,-4.2247,-4.2547,-4.3139,-4.2876,-4.314,-4.3547,-4.3833,-4.4025,-4.4449,-4.5389,-4.5354,-4.3818,-3.95,-3.9506,-4.0086,-3.9835,-3.9418,-3.8728,0.0,-3.7315,-3.7046,-3.6738,-3.6238,-3.593,-3.593,-3.5661,-3.5738,-3.6315,-3.6584,-3.6853,-3.7123,-3.8792,-3.9961,-4.0477,-4.0485,-4.0508,-4.0508,-4.0508,-4.0508,-4.0508,-4.0508,-4.0508,-4.0508,-4.0515,-4.2393,-4.5616,-4.5582,-4.5603,-4.5586,-4.5586,-4.5586,-4.5586,-4.5586,-4.5586,-4.5586,-4.5586,-4.5586,-4.5586,-2.8782,0.0,0.0,0.0,0.0,0.0,0.0,0.0,0.0,0.0,-3.2565,0.0,-3.5323,0.0,-3.4515,0.0,-3.2371,-3.1704,-3.0491,-3.0387,0.0,-3.054,-3.1041,0.0,0.0,-3.1916,-3.2243,-3.2558,-3.2558,-3.291,-3.3612,-3.329,-3.3562,0.0,0.0,-3.3807,-3.3917,0.0,-3.6408,0.0,0.0,-3.9323,-3.95,-3.95,-3.9845,-4.0377,-4.1429,-4.2533,-4.3162,-4.1079,-4.1797,-4.35,-4.3489,-4.3503,-4.3497,-4.3495,-4.3849,-4.396,-4.2693,-4.3013,-4.3542,-4.285,-4.3311,-4.4,-4.4096,-4.4384,-4.4786,-4.5453,-4.5235,-4.4033,-4.1192,-4.068,-4.0645,-4.0513,-3.9435,-3.8366,0.0,-3.7046,-3.6584,-3.6315,-3.6084,-3.593,-3.593,-3.5661,-3.5493,-3.5493,-3.5968,-3.6276,-3.6276,-3.7623,-3.8753,-3.9576,-3.9908,-4.02,-4.0508,-4.0508,-4.0508,-4.0508,-4.0508,-4.0508,-4.0508,-4.0515,-4.1706,-4.3833,-4.5081,-4.5603,-4.5586,-4.5586,-4.5586,-4.5586,-4.5586,-4.5586,-4.5586,-4.5586,-4.5586,-4.5586,0.0,0.0,0.0,0.0,-2.7779,0.0,0.0,0.0,-3.6495,0.0,-4.0866,-3.8891,-3.8781,-3.7253,-3.5843,-3.4942,-3.3805,-3.2778,-3.2017,-3.1948,0.0,0.0,-3.2567,-3.3241,-3.3134,-3.385,-3.436,-3.4713,-3.4693,-3.4693,-3.4713,-3.4315,0.0,0.0,-3.3928,0.0,-3.397,-3.5862,-3.6562,-3.6552,-3.8377,-3.9802,-4.0849,-4.0986,-4.0178,-3.8907,-3.8882,-4.0873,-4.3487,-4.3472,-4.3558,-4.361,-4.3611,-4.3578,-4.3574,-4.3573,-4.3559,-4.345,-4.3013,-4.3137,-4.3202,-4.2322,-4.2737,-4.3441,-4.3748,-4.4484,-4.518,-4.5532,-4.5213,-4.4764,-4.4247,-4.2146,-4.0704,-4.1393,-3.9717,-3.7998,-3.6987,-3.6853,-3.6546,-3.5776,-3.6353,-3.6776,-3.6661,-3.5968,-3.5493,-3.5493,-3.5493,-3.5493,-3.5493,-3.6276,-3.7084,-3.7892,-3.8815,-3.9662,-4.0431,-4.0469,-4.0508,-4.0508,-4.0508,-4.0508,-4.0508,-4.0499,-4.0581,-4.0943,-4.4184,-4.5603,-4.5586,-4.5586,-4.5586,-4.5586,-4.5586,-4.5586,-4.5586,-4.5586,-4.5586,-4.5586,-2.8975,-2.9002,-2.8991,0.0,-2.8685,-2.9233,0.0,0.0,0.0,0.0,-4.2804,-4.1662,-4.0062,-3.8612,-3.7182,-3.5793,-3.5063,0.0,0.0,0.0,0.0,-3.4914,-3.4897,-3.4884,-3.487,-3.4689,-3.4593,-3.4713,-3.4464,-3.4464,-3.4693,-3.4141,0.0,0.0,0.0,0.0,-3.4204,-3.5752,-3.7051,-3.8162,-3.9126,-3.9514,-3.9738,-4.1465,-4.2115,-4.204,-4.1397,-4.2136,-4.3492,-4.3509,-4.4202,-4.5047,-4.5078,-4.5067,-4.4953,-4.4468,-4.4327,-4.4256,-4.3826,-4.4143,-4.4516,-4.4046,-4.4108,-4.4285,-4.4361,-4.4575,-4.4825,-4.518,-4.4919,-4.4537,-4.4053,-4.3392,-4.2541,-4.1521,-4.0062,-3.8958,-3.8685,-3.8623,-3.8546,-3.8354,-3.8507,-3.7892,-3.6007,-3.5622,-3.5493,-3.5493,-3.5493,-3.5493,-3.5493,-3.6276,-3.6815,-3.7046,-3.8507,-3.9392,-3.9623,-4.02,-4.0508,-4.0508,-4.0508,-4.0508,-4.0508,-4.0492,-4.1893,-4.435,-4.5214,-4.5582,-4.5586,-4.5586,-4.5586,-4.5586,-4.5586,-4.5586,-4.5586,-4.5586,-4.5586,-4.5586,-2.9002,0.0,0.0,-3.1099,0.0,0.0,-3.7304,-3.8744,0.0,-4.1846,-4.1693,0.0,-4.0226,-3.9552,-3.8686,-3.747,-3.6955,0.0,-3.5685,0.0,0.0,-3.6454,-3.585,-3.5586,-3.5819,-3.5229,0.0,-3.4889,-3.4695,-3.4823,-3.522,-3.4399,0.0,0.0,0.0,-3.3876,-3.4129,-3.5653,-3.7498,-3.9313,-3.9377,-3.976,0.0,-4.1965,-4.3056,-4.3662,-4.3012,-4.2999,-4.3429,-4.417,-4.4924,-4.5618,-4.5582,-4.5607,-4.5402,-4.443,-4.414,-4.4121,-4.4098,-4.4237,-4.4346,-4.4184,-4.4125,-4.4154,-4.429,-4.4318,-4.4428,-4.4825,-4.4751,-4.4525,-4.4265,-4.387,-4.3095,-4.1569,-4.0781,-4.0123,-3.9392,-3.9585,-3.9546,-3.8815,-3.9084,-3.8584,-3.6776,-3.6584,-3.6276,-3.5584,-3.5853,-3.5892,-3.5545,-3.6276,-3.6892,-3.7276,-3.8931,-3.9815,-3.9815,-4.0662,-4.0893,-4.0508,-4.0508,-4.0508,-4.0508,-4.0492,-4.1546,-4.3448,-4.4944,-4.5582,-4.5586,-4.5586,-4.5586,-4.5586,-4.5586,-4.5586,-4.5586,-4.5586,-4.5586,-4.5586,0.0,0.0,0.0,0.0,0.0,0.0,0.0,-3.8813,0.0,-3.9952,0.0,-3.9548,-4.0157,-4.0377,-4.0095,-3.9192,0.0,-3.8041,-3.6924,-3.6982,-3.6997,-3.7031,-3.6235,-3.5985,-3.6458,-3.5615,-3.5196,0.0,-3.5259,-3.5496,-3.605,-3.4853,0.0,0.0,0.0,0.0,0.0,-3.5735,-3.7741,-3.9941,-3.9364,-4.0185,-4.1788,-4.2432,-4.3349,-4.4282,-4.4055,-4.3696,-4.3555,-4.4912,-4.5481,-4.5562,-4.5515,-4.5456,-4.5194,-4.3882,-4.3531,-4.3652,-4.3999,-4.3858,-4.3529,-4.3532,-4.3497,-4.3563,-4.3881,-4.3943,-4.4028,-4.4428,-4.4508,-4.4546,-4.4599,-4.3932,-4.2995,-4.1795,-4.1816,-4.147,-4.0008,-4.0392,-4.0239,-3.8661,-3.9161,0.0,-3.8277,-3.8084,-3.7353,-3.5776,-3.6315,-3.6353,-3.5532,-3.6276,-3.7046,-3.7815,-3.9469,-4.0392,-4.0508,-4.1239,-4.1316,-4.0662,-4.0546,-4.0508,-4.0508,-4.0476,-4.0499,-4.0696,-4.4141,-4.562,-4.5586,-4.5586,-4.5586,-4.5586,-4.5586,-4.5586,-4.5586,-4.5586,-4.5586,-4.5586,0.0,0.0,0.0,0.0,0.0,-4.0632,-4.4653,-4.3288,-4.1571,-4.1061,-4.1956,-4.247,-4.1956,-4.1541,-4.0673,-3.9228,-3.9013,0.0,0.0,0.0,0.0,-3.867,-3.7694,-3.7186,-3.7279,-3.6051,-3.5758,-3.6411,-3.5969,-3.6151,-3.6864,-3.5491,0.0,0.0,0.0,0.0,-3.5891,-3.6424,-3.7664,-3.9289,-3.9438,-4.029,-4.1514,-4.2598,-4.3551,-4.4359,-4.4725,-4.4767,-4.4532,-4.4293,-4.481,-4.5481,-4.493,-4.4791,-4.4587,-4.3764,-4.3767,-4.4017,-4.3708,-4.373,-4.3849,-4.3563,-4.3497,-4.3532,-4.3563,-4.3597,-4.366,-4.4028,-4.4087,-4.4204,-4.4546,-4.4104,-4.364,-4.3416,-4.3081,-4.2777,-4.247,-4.2547,-4.2277,-4.1239,-4.1277,-4.0777,-3.92,-3.843,-3.7584,-3.6584,-3.6622,-3.6353,-3.5532,-3.6276,-3.6776,-3.693,-3.8623,-3.9815,-4.0469,-4.0662,-4.1008,-4.1546,-4.0854,-4.0508,-4.0508,-4.0508,-4.0515,-4.0696,-4.4119,-4.5599,-4.5586,-4.5586,-4.5586,-4.5586,-4.5586,-4.5586,-4.5586,-4.5586,-4.5586,-4.5586,0.0,0.0,0.0,0.0,0.0,0.0,0.0,-4.4577,-4.4046,-4.2562,-4.2066,-4.1809,-4.1699,-4.2189,-4.1866,-4.03,-4.0154,-3.9707,-3.8579,-3.8887,-3.9238,-3.958,-3.8249,-3.7733,-3.8159,-3.6834,-3.6392,-3.6969,-3.6673,-3.6851,-3.7502,-3.6223,-3.5899,-3.6266,0.0,-3.5828,0.0,-3.7251,-3.8203,-3.9679,-4.0094,-4.0777,-4.1701,-4.3043,-4.3844,-4.4359,-4.4916,-4.5077,-4.4941,-4.444,-4.4697,-4.5176,-4.4849,-4.441,-4.3971,-4.3588,-4.3664,-4.38,-4.3566,-4.3631,-4.3693,-4.3529,-4.3497,-4.3497,-4.3497,-4.3497,-4.3566,-4.3693,-4.3881,-4.4117,-4.4546,-4.4386,-4.4218,-4.4218,-4.4053,-4.3721,-4.3264,-4.3205,-4.2709,-4.1414,-4.1261,-4.0804,-3.9566,-3.922,-3.8613,-3.7454,-3.7777,-3.7469,-3.6199,-3.7353,-3.7853,-3.7392,-3.9469,-4.0585,-4.0508,-4.0931,-4.1162,-4.1123,-4.07,-4.0508,-4.0508,-4.0508,-4.08,-4.1536,-4.435,-4.5599,-4.5586,-4.5586,-4.5586,-4.5586,-4.5586,-4.5586,-4.5586,-4.5586,-4.5586,-4.5586,0.0,-3.7719,0.0,0.0,-4.0654,-4.2046,-4.3276,-4.4431,-4.4762,-4.3664,-4.2029,-4.1148,-4.1552,-4.2543,-4.258,-4.1222,-4.0965,-4.0351,-3.9165,-3.916,-3.9387,-3.9833,-3.8402,-3.795,-3.8623,-3.7353,-3.7007,-3.7661,-3.7433,-3.7694,-3.8215,-3.7082,-3.6838,-3.7292,-3.6666,-3.697,-3.8016,-3.8016,-3.8841,-4.0138,-4.0729,-4.1396,-4.2223,-4.3503,-4.4211,-4.4628,-4.4993,-4.5115,-4.5033,-4.4726,-4.47,-4.4813,-4.4734,-4.4195,-4.3602,-4.3509,-4.3509,-4.3497,-4.3497,-4.3497,-4.3497,-4.3497,-4.3497,-4.3497,-4.3497,-4.3497,-4.3497,-4.3497,-4.3693,-4.4004,-4.4327,-4.4401,-4.4455,-4.4455,-4.4535,-4.4372,-4.3667,-4.3403,-4.2762,-4.1254,-4.0952,-4.05,-3.9693,-3.9882,-3.9623,-3.8546,-3.8992,-3.8623,-3.7046,-3.843,-3.8969,-3.8315,-4.0392,-4.1277,-4.0777,-4.1277,-4.1277,-4.0777,-4.0585,-4.0508,-4.0508,-4.07,-4.1316,-4.2299,-4.435,-4.5389,-4.5586,-4.5586,-4.5586,-4.5586,-4.5586,-4.5586,-4.5586,-4.5586,-4.5586,-4.5586,0.0,0.0,0.0,0.0,0.0,-4.4767,-4.3669,-4.359,-4.3664,-4.3532,-4.3314,-4.3204,-4.3277,-4.2543,-4.1772,-4.1185,-4.0414,-3.9755,-3.9127,-3.9389,-3.9369,-3.8937,-3.829,-3.7993,-3.8084,-3.7161,-3.7507,-3.9084,-3.8477,-3.8614,-3.9421,-3.8035,-3.7165,-3.6782,-3.6708,-3.7293,-3.835,-3.835,-3.9018,-4.0158,-4.0939,-4.1934,-4.3085,-4.3915,-4.4761,-4.5453,-4.5184,-4.5115,-4.5033,-4.4726,-4.4624,-4.4546,-4.4213,-4.4028,-4.3869,-4.3557,-4.3495,-4.3497,-4.3497,-4.3497,-4.3497,-4.3497,-4.3497,-4.3497,-4.3497,-4.3497,-4.3497,-4.3497,-4.3495,-4.3563,-4.3597,-4.3849,-4.4058,-4.4058,-4.4346,-4.4561,-4.4485,-4.3794,-4.2963,-4.207,-4.134,-4.0547,-3.9656,-3.9882,-4.0043,-3.9929,-3.9512,-3.8892,-3.793,-3.8777,-3.9238,-3.9161,-4.0123,-4.0969,-4.1662,-4.0969,-4.0969,-4.1662,-4.0893,-4.0508,-4.0508,-4.1316,-4.1876,-4.2244,-4.353,-4.4662,-4.5586,-4.5586,-4.5586,-4.5586,-4.5586,-4.5586,-4.5586,-4.5586,-4.5586,-4.5586,0.0,0.0,0.0,0.0,-4.3107,-4.4158,-4.3597,-4.3497,-4.3497,-4.3497,-4.3497,-4.3497,-4.3497,-4.3094,-4.2396,-4.1222,-4.0732,-4.0198,-3.9439,-3.9731,-3.989,-3.9823,-3.9154,-3.87,-3.8469,-3.8354,-3.8854,-4.0008,-3.9409,-3.9278,-3.958,-3.8665,-3.8161,-3.8175,-3.8889,-3.9301,-3.9447,-3.9941,-4.0501,-4.1182,-4.2026,-4.2979,-4.3893,-4.4739,-4.5278,-4.5586,-4.5438,-4.54,-4.5361,-4.5011,-4.4587,-4.4204,-4.4058,-4.3849,-4.366,-4.3529,-4.3497,-4.3497,-4.3497,-4.3497,-4.3497,-4.3497,-4.3497,-4.3497,-4.3497,-4.3497,-4.3497,-4.3497,-4.3497,-4.3497,-4.3497,-4.3631,-4.3693,-4.3693,-4.3855,-4.3912,-4.3912,-4.3206,-4.2389,-4.1609,-4.0791,-3.9974,-3.9157,-3.9327,-3.9557,-3.9775,-3.9924,-3.9662,-3.8815,-3.9546,-3.9777,-3.9315,-4.0085,-4.0662,-4.1008,-4.0662,-4.0662,-4.1008,-4.0662,-4.0777,-4.1277,-4.1085,-4.1816,-4.3278,-4.4432,-4.5163,-4.5586,-4.5586,-4.5586,-4.5586,-4.5586,-4.5586,-4.5586,-4.5586,-4.5586,-4.5586,-4.5586,-4.5252,-4.4987,-4.4975,-4.4158,-4.3497,-4.3497,-4.3497,-4.3497,-4.3497,-4.3497,-4.3497,-4.3497,-4.3057,-4.2316,-4.1151,-4.0663,-4.0227,-3.9769,-3.9982,-4.0118,-4.0162,-3.9585,-3.92,-3.8931,-3.9161,-3.97,-4.0508,-4.0213,-4.0094,-4.0094,-3.9832,-3.9862,-4.0165,-4.0745,-4.0874,-4.0653,-4.1189,-4.1586,-4.1893,-4.3008,-4.3778,-4.4393,-4.5278,-4.5586,-4.5586,-4.5586,-4.5586,-4.5568,-4.5341,-4.4834,-4.429,-4.4058,-4.3818,-4.3631,-4.3532,-4.3497,-4.3497,-4.3497,-4.3497,-4.3497,-4.3497,-4.3497,-4.3497,-4.3497,-4.3497,-4.3497,-4.3497,-4.3497,-4.3497,-4.3497,-4.3497,-4.3497,-4.3497,-4.3497,-4.3497,-4.3497,-4.2616,-4.1735,-4.1185,-4.0194,-3.9313,-3.8762,-3.8933,-3.9186,-3.9438,-4.0024,-4.0175,-3.9662,-4.02,-4.0239,-3.9662,-4.0137,-4.0372,-4.0372,-4.0372,-4.0372,-4.0372,-4.0454,-4.0899,-4.166,-4.1397,-4.2183,-4.379,-4.5036,-4.5611,-4.5591,-4.5607,-4.5586,-4.5586,-4.5586,-4.5586,-4.5586,-4.5586,-4.5586,-4.5586,-4.5586,-4.4474,-4.3514,-4.3536,-4.3532,-4.3497,-4.3497,-4.3497,-4.3497,-4.3497,-4.3497,-4.3497,-4.3497,-4.2103,-4.1046,-4.0914,-3.9949,-3.9561,-4.0042,-4.012,-3.985,-3.9354,-3.9315,-3.9277,-3.9277,-3.9277,-3.97,-4.0508,-4.1016,-4.1264,-4.1302,-4.1821,-4.2223,-4.2504,-4.1665,-4.1475,-4.1761,-4.18,-4.1816,-4.197,-4.3624,-4.4278,-4.4393,-4.5278,-4.5586,-4.5586,-4.5586,-4.5586,-4.5586,-4.5586,-4.5381,-4.4966,-4.4233,-4.3998,-4.3943,-4.3597,-4.3497,-4.3497,-4.3497,-4.3497,-4.3497,-4.3497,-4.3497,-4.3497,-4.3497,-4.3497,-4.3497,-4.3497,-4.3497,-4.3497,-4.3497,-4.3497,-4.3497,-4.3497,-4.3497,-4.3497,-4.3497,-4.2139,-4.1111,-4.1111,-3.968,-3.8726,-3.8689,-3.8933,-3.908,-3.9107,-3.9731,-4.0233,-4.0469,-4.0469,-4.0508,-4.0469,-4.0251,-4.0081,-4.0081,-4.0081,-4.0081,-4.012,-4.0372,-4.0778,-4.1338,-4.2683,-4.3278,-4.3366,-4.495,-4.56,-4.5607,-4.5591,-4.5586,-4.5586,-4.5586,-4.5586,-4.5586,-4.5586,-4.5586,-4.5586,-4.5586,-4.524,-4.4624,-4.3652,-4.3497,-4.3497,-4.3497,-4.3497,-4.3497,-4.3497,-4.3497,-4.3497,-4.3497,-4.2066,-4.1046,-4.0904,-4.0188,-3.9819,-4.0062,-4.0286,-4.029,-4.0123,-3.9938,-3.9938,-4.0123,-3.9938,-4.036,-4.1393,-4.1322,-4.1487,-4.1844,-4.2259,-4.2498,-4.2639,-4.3101,-4.3094,-4.2701,-4.2701,-4.3008,-4.3508,-4.3508,-4.4162,-4.5201,-4.547,-4.5586,-4.5586,-4.5586,-4.5586,-4.5586,-4.5586,-4.555,-4.5303,-4.4612,-4.4204,-4.3943,-4.3597,-4.3497,-4.3497,-4.3497,-4.3497,-4.3497,-4.3497,-4.3497,-4.3497,-4.3497,-4.3497,-4.3497,-4.3497,-4.3497,-4.3497,-4.3497,-4.3497,-4.3497,-4.3497,-4.3497,-4.3314,-4.2763,-4.1772,-4.0928,-4.0341,-3.9827,-3.9533,-3.9533,-3.962,-3.9949,-4.0766,-4.0164,-3.9882,-4.0233,-4.0965,-4.1123,-4.0508,-4.0748,-4.0653,-4.012,-3.9861,-3.9861,-4.012,-3.9944,-3.9975,-4.0208,-4.1742,-4.2473,-4.2523,-4.325,-4.4349,-4.56,-4.5587,-4.5592,-4.5586,-4.5586,-4.5586,-4.5586,-4.5586,-4.5586,-4.5586,-4.4905,-4.4811,-4.4523,-4.3664,-4.3943,-4.4117,-4.3563,-4.3497,-4.3497,-4.3497,-4.3497,-4.3497,-4.3497,-4.2839,-4.1845,-4.054,-4.022,-4.0157,-4.0251,-4.0406,-4.0592,-4.0799,-4.0654,-4.0635,-4.0799,-4.0654,-4.0806,-4.1316,-4.1757,-4.2297,-4.2955,-4.3463,-4.3733,-4.3733,-4.4149,-4.4008,-4.3547,-4.3547,-4.3855,-4.4278,-4.4124,-4.4662,-4.5586,-4.5586,-4.5586,-4.5586,-4.5586,-4.5532,-4.5419,-4.5419,-4.5303,-4.512,-4.4561,-4.4204,-4.3943,-4.3597,-4.3497,-4.3497,-4.3497,-4.3497,-4.3497,-4.3497,-4.3497,-4.3497,-4.3497,-4.3497,-4.3497,-4.3497,-4.3497,-4.3497,-4.3497,-4.3497,-4.3497,-4.3497,-4.324,-4.2873,-4.2359,-4.1368,-4.0451,-3.9937,-3.99,-3.99,-3.99,-3.99,-4.0209,-4.0933,-4.0269,-4.0024,-4.0376,-4.0994,-4.12,-4.1008,-4.0901,-4.0615,-4.012,-3.9882,-3.9882,-4.012,-4.0203,-4.0163,-4.0085,-4.1769,-4.2322,-4.1969,-4.305,-4.387,-4.4527,-4.5281,-4.5611,-4.5586,-4.5586,-4.5586,-4.5586,-4.5586,-4.5586,-4.5586,-4.3758,-4.3497,-4.3497,-4.3497,-4.4651,-4.512,-4.3726,-4.3563,-4.3664,-4.3664,-4.3664,-4.3664,-4.3664,-4.427,-4.3391,-4.0291,-4.0405,-4.0646,-4.0662,-4.0662,-4.091,-4.1358,-4.13,-4.13,-4.1396,-4.13,-4.1132,-4.0739,-4.2431,-4.3662,-4.4393,-4.5201,-4.5586,-4.5547,-4.4739,-4.4393,-4.4393,-4.4316,-4.4316,-4.447,-4.5201,-4.5547,-4.5586,-4.5586,-4.5586,-4.5586,-4.5586,-4.54,-4.5115,-4.5115,-4.4872,-4.4546,-4.4117,-4.3998,-4.3943,-4.3597,-4.3497,-4.3497,-4.3497,-4.3497,-4.3497,-4.3497,-4.3497,-4.3497,-4.3497,-4.3497,-4.3497,-4.3497,-4.3497,-4.3497,-4.3497,-4.3497,-4.3461,-4.3424,-4.28,-4.2249,-4.2139,-4.0818,-3.9863,-3.9827,-3.9863,-3.99,-3.99,-3.99,-3.9937,-4.0047,-4.023,-4.0547,-4.1151,-4.0826,-4.103,-4.1854,-4.0825,-4.0234,-4.0196,-4.01,-4.0062,-4.01,-4.0977,-4.1212,-4.0877,-4.2461,-4.2645,-4.1838,-4.4028,-4.4141,-4.2904,-4.4786,-4.5586,-4.5586,-4.5586,-4.5586,-4.5586,-4.5586,-4.5586,-4.5586,-4.3563,-4.3497,-4.3497,-4.3497,-4.4651,-4.512,-4.3726,-4.439,-4.5099,-4.5099,-4.5099,-4.5099,-4.5099,-4.5263,-4.5036,-4.425,-4.291,-4.222,-4.2453,-4.247,-4.2406,-4.2217,-4.1434,-4.1396,-4.2197,-4.1396,-4.1774,-4.3393,-4.447,-4.5086,-4.5278,-4.5509,-4.5586,-4.5586,-4.5355,-4.5278,-4.524,-4.4586,-4.4662,-4.524,-4.4778,-4.5009,-4.5586,-4.5586,-4.5586,-4.5586,-4.5586,-4.54,-4.5115,-4.5115,-4.4872,-4.4546,-4.4117,-4.3998,-4.3943,-4.3597,-4.3497,-4.3497,-4.3497,-4.3497,-4.3497,-4.3497,-4.3497,-4.3497,-4.3497,-4.3497,-4.3497,-4.3497,-4.3497,-4.3497,-4.3497,-4.3497,-4.3277,-4.269,-4.2433,-4.1882,-4.0634,-4.012,-3.968,-3.9056,-3.9533,-3.99,-3.99,-3.99,-4.0414,-4.1625,-4.0859,-4.1295,-4.3617,-4.2645,-4.2278,-4.2777,-4.2297,-4.1703,-4.0997,-4.0144,-3.9731,-3.9731,-4.1487,-4.1787,-4.0925,-4.1906,-4.2574,-4.2937,-4.3466,-4.3961,-4.4391,-4.4874,-4.5266,-4.5586,-4.5586,-4.5586,-4.5586,-4.5586,-4.5586,-4.5586,-4.3631,-4.3497,-4.3497,-4.3497,-4.4117,-4.4612,-4.4508,-4.512,-4.5586,-4.5586,-4.5586,-4.5586,-4.5586,-4.5586,-4.5586,-4.5586,-4.4133,-4.3156,-4.3124,-4.3085,-4.3097,-4.3094,-4.2389,-4.2328,-4.3073,-4.2389,-4.2373,-4.3162,-4.4393,-4.4816,-4.447,-4.524,-4.5586,-4.5586,-4.5586,-4.5586,-4.5547,-4.5086,-4.5163,-4.5547,-4.5086,-4.5163,-4.5586,-4.5586,-4.5494,-4.5381,-4.5381,-4.5033,-4.4612,-4.4612,-4.4373,-4.4065,-4.3818,-4.3791,-4.3758,-4.3529,-4.3497,-4.3497,-4.3497,-4.3497,-4.3497,-4.3497,-4.3497,-4.3497,-4.3497,-4.3497,-4.3497,-4.3497,-4.3497,-4.3497,-4.3497,-4.3497,-4.324,-4.2433,-4.1992,-4.1332,-4.0084,-3.957,-3.9313,-3.9276,-3.9974,-4.0598,-4.0965,-4.1001,-4.1368,-4.2249,-4.1636,-4.2031,-4.3919,-4.3677,-4.3493,-4.3645,-4.3136,-4.2603,-4.2143,-4.1514,-4.1205,-4.1205,-4.2317,-4.243,-4.1721,-4.2688,-4.3276,-4.3582,-4.4135,-4.4683,-4.5227,-4.5227,-4.5361,-4.5586,-4.5586,-4.5586,-4.5586,-4.5586,-4.5586,-4.5586,-4.3791,-4.3497,-4.3497,-4.3497,-4.3697,-4.4233,-4.5419,-4.5586,-4.5586,-4.5586,-4.5586,-4.5586,-4.5586,-4.5586,-4.5586,-4.5586,-4.4701,-4.397,-4.3508,-4.347,-4.3635,-4.3971,-4.3611,-4.3587,-4.3988,-4.3748,-4.3238,-4.2354,-4.3816,-4.4162,-4.3508,-4.4932,-4.5586,-4.5586,-4.5586,-4.5586,-4.5586,-4.5586,-4.5586,-4.5586,-4.5586,-4.5586,-4.5586,-4.5586,-4.54,-4.5115,-4.5115,-4.4638,-4.3998,-4.3998,-4.3791,-4.3497,-4.3497,-4.3497,-4.3497,-4.3497,-4.3497,-4.3497,-4.3497,-4.3497,-4.3497,-4.3497,-4.3497,-4.3497,-4.3497,-4.3497,-4.3497,-4.3497,-4.3497,-4.3497,-4.3497,-4.3529,-4.3306,-4.2433,-4.1691,-4.0882,-4.001,-3.9313,-3.9129,-3.9827,-4.0634,-4.1368,-4.2066,-4.2139,-4.2176,-4.2286,-4.2286,-4.2606,-4.3363,-4.4158,-4.4554,-4.44,-4.3684,-4.3201,-4.3085,-4.3201,-4.3201,-4.3085,-4.3355,-4.3269,-4.289,-4.3998,-4.4382,-4.421,-4.5168,-4.5586,-4.5586,-4.5586,-4.5586,-4.5586,-4.5586,-4.5586,-4.5586,-4.5586,-4.5586,-4.5586,-4.3791,-4.3497,-4.3497,-4.3497,-4.4471,-4.5342,-4.5568,-4.5586,-4.5586,-4.5586,-4.5586,-4.5586,-4.5586,-4.5586,-4.5586,-4.5586,-4.5432,-4.5278,-4.5201,-4.5201,-4.5131,-4.4887,-4.4179,-4.4141,-4.4887,-4.5112,-4.5168,-4.5009,-4.5278,-4.5316,-4.5201,-4.547,-4.5586,-4.5586,-4.5586,-4.5586,-4.5586,-4.5586,-4.5586,-4.5586,-4.5586,-4.5586,-4.5586,-4.5586,-4.54,-4.5115,-4.5115,-4.4638,-4.3998,-4.3998,-4.3791,-4.3497,-4.3497,-4.3497,-4.3497,-4.3497,-4.3497,-4.3497,-4.3497,-4.3497,-4.3497,-4.3497,-4.3497,-4.3497,-4.3497,-4.3497,-4.3497,-4.3497,-4.3497,-4.3497,-4.3497,-4.3726,-4.3558,-4.25,-4.1872,-4.1141,-4.0037,-3.979,-3.9753,-3.99,-4.0634,-4.1148,-4.1295,-4.1295,-4.1589,-4.2249,-4.2286,-4.2775,-4.3834,-4.4325,-4.47,-4.4989,-4.4402,-4.3778,-4.3124,-4.3778,-4.3778,-4.3124,-4.4547,-4.4799,-4.4072,-4.4991,-4.5376,-4.5358,-4.5509,-4.5586,-4.5586,-4.5586,-4.5586,-4.5586,-4.5586,-4.5586,-4.5586,-4.5607,-4.5607,-4.5586,-4.4762,-4.46,-4.46,-4.46,-4.5163,-4.5586,-4.5586,-4.5586,-4.5586,-4.5586,-4.5586,-4.5586,-4.5586,-4.5586,-4.5586,-4.5586,-4.5586,-4.5586,-4.5586,-4.5586,-4.555,-4.5381,-4.484,-4.4717,-4.5077,-4.5419,-4.5355,-4.4893,-4.5355,-4.5355,-4.4893,-4.5355,-4.5586,-4.5586,-4.5419,-4.5438,-4.5586,-4.5419,-4.5303,-4.5361,-4.5532,-4.5475,-4.5303,-4.5303,-4.5099,-4.48,-4.4587,-4.4175,-4.3726,-4.3726,-4.3631,-4.3497,-4.3497,-4.3497,-4.3497,-4.3497,-4.3497,-4.3497,-4.3497,-4.3497,-4.3497,-4.3497,-4.3497,-4.3497,-4.3497,-4.3497,-4.3529,-4.3726,-4.3791,-4.3855,-4.4065,-4.4242,-4.3999,-4.3005,-4.2295,-4.1675,-4.1166,-4.0728,-4.0682,-4.1378,-4.1792,-4.2105,-4.2393,-4.2396,-4.2543,-4.291,-4.2947,-4.3258,-4.3967,-4.4175,-4.4535,-4.5055,-4.5036,-4.4816,-4.4432,-4.4816,-4.4816,-4.447,-4.524,-4.5393,-4.5009,-4.5432,-4.5586,-4.5586,-4.5586,-4.5586,-4.5586,-4.5586,-4.5586,-4.5586,-4.5586,-4.5586,-4.5663,-4.6299,-4.7296,-4.8102,-4.5586,-4.5586,-4.5586,-4.5586,-4.5586,-4.5586,-4.5586,-4.5586,-4.5586,-4.5586,-4.5586,-4.5586,-4.5586,-4.5586,-4.5586,-4.5586,-4.5586,-4.5586,-4.5586,-4.5586,-4.5586,-4.5586,-4.5361,-4.5222,-4.5222,-4.5457,-4.5278,-4.4586,-4.5278,-4.524,-4.4624,-4.5278,-4.5568,-4.5457,-4.5222,-4.5201,-4.5323,-4.5077,-4.4966,-4.4988,-4.5263,-4.5222,-4.4966,-4.4966,-4.4776,-4.4401,-4.4117,-4.3754,-4.3497,-4.3497,-4.3497,-4.3497,-4.3497,-4.3497,-4.3497,-4.3497,-4.3497,-4.3497,-4.3497,-4.3497,-4.3497,-4.3497,-4.3497,-4.3532,-4.3597,-4.3631,-4.3726,-4.4058,-4.4146,-4.4233,-4.4535,-4.4676,-4.4474,-4.3718,-4.2975,-4.247,-4.2384,-4.1855,-4.1807,-4.2819,-4.3128,-4.3357,-4.3717,-4.3758,-4.3693,-4.3631,-4.3631,-4.3693,-4.3881,-4.3974,-4.4346,-4.5094,-4.5419,-4.5586,-4.5586,-4.5586,-4.5586,-4.5586,-4.5586,-4.5586,-4.5586,-4.5586,-4.5586,-4.5586,-4.5586,-4.5586,-4.5586,-4.5586,-4.5586,-4.5586,-4.5586,-4.5586,-4.574,-4.6894,-4.8585,-4.9969,-4.5586,-4.5586,-4.5586,-4.5586,-4.5586,-4.5586,-4.5586,-4.5586,-4.5586,-4.5586,-4.5586,-4.5586,-4.5586,-4.5586,-4.5586,-4.5586,-4.5586,-4.5586,-4.5586,-4.5586,-4.5586,-4.5586,-4.5568,-4.5568,-4.5568,-4.5586,-4.5547,-4.5509,-4.5547,-4.5547,-4.5509,-4.5547,-4.5438,-4.5137,-4.5115,-4.4943,-4.4676,-4.465,-4.465,-4.465,-4.4676,-4.4676,-4.465,-4.465,-4.4373,-4.4028,-4.3998,-4.3754,-4.3497,-4.3497,-4.3497,-4.3497,-4.3497,-4.3497,-4.3497,-4.3497,-4.3497,-4.3497,-4.3497,-4.3497,-4.3497,-4.3497,-4.3497,-4.3563,-4.3912,-4.3937,-4.4058,-4.4455,-4.4572,-4.4572,-4.4599,-4.4849,-4.4966,-4.46,-4.4098,-4.3618,-4.3277,-4.3152,-4.3152,-4.324,-4.3969,-4.4497,-4.4546,-4.4519,-4.4346,-4.3967,-4.3937,-4.3818,-4.3529,-4.3818,-4.4346,-4.5094,-4.5419,-4.5586,-4.5586,-4.5586,-4.5586,-4.5586,-4.5586,-4.5586,-4.5586,-4.5586,-4.5586,-4.5586,-4.5586,-4.5586,-4.5586,-4.5586,-4.5586,-4.5586,-4.5586,-4.5586,-4.574,-4.6876,-4.8066,-4.9258,-4.5665,-4.5586,-4.5586,-4.5586,-4.5586,-4.5586,-4.5586,-4.5586,-4.5586,-4.5586,-4.5586,-4.5586,-4.5586,-4.5586,-4.5586,-4.5586,-4.5586,-4.5586,-4.5586,-4.5586,-4.5586,-4.5586,-4.5586,-4.5586,-4.5586,-4.5586,-4.5586,-4.5586,-4.5586,-4.5475,-4.5283,-4.5475,-4.5303,-4.48,-4.48,-4.4726,-4.4599,-4.4318,-4.4233,-4.4233,-4.4482,-4.4428,-4.4233,-4.4233,-4.4117,-4.3967,-4.3791,-4.3597,-4.3497,-4.3497,-4.3497,-4.3497,-4.3497,-4.3497,-4.3497,-4.3497,-4.3497,-4.3497,-4.3497,-4.3497,-4.3497,-4.3497,-4.3664,-4.3849,-4.3967,-4.4175,-4.4455,-4.4849,-4.4919,-4.4966,-4.5201,-4.5303,-4.5381,-4.5243,-4.4633,-4.4288,-4.4669,-4.4266,-4.4052,-4.4372,-4.4729,-4.4825,-4.4624,-4.4599,-4.4546,-4.4373,-4.4373,-4.429,-4.4184,-4.4508,-4.4787,-4.5115,-4.5419,-4.5586,-4.5586,-4.5586,-4.5586,-4.5586,-4.5586,-4.5586,-4.5586,-4.5586,-4.5586,-4.5586,-4.5586,-4.5586,-4.5586,-4.5586,-4.5624,-4.5719,-4.5719,-4.5757,-4.595,-4.7412,-4.8182,-4.8759,-4.589,-4.5801,-4.5801,-4.5801,-4.5801,-4.5801,-4.5801,-4.5801,-4.5764,-4.5637,-4.5586,-4.5586,-4.5586,-4.5586,-4.5586,-4.5586,-4.5586,-4.5586,-4.5586,-4.5586,-4.5586,-4.5586,-4.5586,-4.5586,-4.5586,-4.5586,-4.5586,-4.5586,-4.5586,-4.5475,-4.5263,-4.5475,-4.5243,-4.4599,-4.4599,-4.4546,-4.4373,-4.4004,-4.3912,-4.3998,-4.4213,-4.4095,-4.3849,-4.3849,-4.3849,-4.3786,-4.3563,-4.3497,-4.3534,-4.3791,-4.3718,-4.3534,-4.3791,-4.3681,-4.3608,-4.4085,-4.4048,-4.3938,-4.4158,-4.4232,-4.4156,-4.3741,-4.4098,-4.4607,-4.4721,-4.4938,-4.5328,-4.5927,-4.6046,-4.6107,-4.6337,-4.6163,-4.6009,-4.6009,-4.5278,-4.4932,-4.5509,-4.5086,-4.4841,-4.5186,-4.5243,-4.518,-4.4943,-4.4919,-4.4872,-4.4776,-4.4776,-4.4726,-4.4624,-4.4919,-4.5115,-4.5115,-4.5419,-4.5586,-4.5586,-4.5586,-4.5586,-4.5586,-4.5586,-4.5586,-4.5586,-4.5586,-4.5586,-4.5586,-4.5586,-4.5624,-4.5663,-4.5663,-4.5719,-4.5851,-4.5827,-4.6027,-4.6467,-4.7859,-4.8536,-4.8971,-4.6289,-4.6289,-4.6289,-4.6289,-4.6289,-4.6289,-4.6289,-4.6289,-4.6132,-4.568,-4.5603,-4.5586,-4.5586,-4.5586,-4.5586,-4.5586,-4.5586,-4.5586,-4.5586,-4.5586,-4.5586,-4.5586,-4.5586,-4.5586,-4.5586,-4.5586,-4.5586,-4.5586,-4.5586,-4.5586,-4.5586,-4.5586,-4.5243,-4.4599,-4.4624,-4.4373,-4.3967,-4.3664,-4.3693,-4.3967,-4.3664,-4.3497,-4.3497,-4.3497,-4.3497,-4.3497,-4.3497,-4.3497,-4.3608,-4.4452,-4.4158,-4.3644,-4.4452,-4.4158,-4.3828,-4.5406,-4.5333,-4.4892,-4.5663,-4.592,-4.5587,-4.4321,-4.489,-4.5911,-4.6252,-4.632,-4.6653,-4.7838,-4.8086,-4.8086,-4.8086,-4.7471,-4.6932,-4.6932,-4.6163,-4.5624,-4.5586,-4.5586,-4.5586,-4.5586,-4.5586,-4.5586,-4.5586,-4.5624,-4.5495,-4.5137,-4.5115,-4.4943,-4.465,-4.4919,-4.5115,-4.5115,-4.5419,-4.5586,-4.5586,-4.5586,-4.5586,-4.5586,-4.5586,-4.5586,-4.5586,-4.5586,-4.5586,-4.5586,-4.5586,-4.568,-4.5796,-4.5796,-4.5834,-4.5907,-4.5897,-4.6433,-4.7298,-4.8193,-4.9059,-4.9912,-4.6289,-4.6289,-4.6289,-4.6289,-4.6289,-4.6289,-4.6289,-4.6289,-4.6246,-4.6119,-4.5789,-4.5624,-4.5719,-4.5663,-4.5586,-4.5586,-4.5586,-4.5586,-4.5586,-4.5586,-4.5586,-4.5586,-4.5586,-4.5586,-4.5586,-4.5586,-4.5586,-4.5586,-4.5586,-4.5457,-4.5243,-4.5475,-4.5243,-4.4624,-4.4849,-4.4738,-4.4401,-4.429,-4.4184,-4.3967,-4.3912,-4.3693,-4.3497,-4.3497,-4.3497,-4.3497,-4.3497,-4.3864,-4.4378,-4.4635,-4.4929,-4.5112,-4.4819,-4.4562,-4.4452,-4.4929,-4.5296,-4.559,-4.5847,-4.6706,-4.7304,-4.6035,-4.6194,-4.6743,-4.7129,-4.7388,-4.7645,-4.8029,-4.8086,-4.8086,-4.8086,-4.7894,-4.774,-4.774,-4.7509,-4.7163,-4.6586,-4.6509,-4.6278,-4.5663,-4.6124,-4.6509,-4.6509,-4.7009,-4.7088,-4.6398,-4.5784,-4.5419,-4.5303,-4.54,-4.5438,-4.5438,-4.555,-4.5586,-4.5586,-4.5586,-4.5586,-4.5586,-4.5586,-4.5586,-4.5586,-4.5586,-4.5586,-4.5586,-4.5586,-4.568,-4.5796,-4.5796,-4.5911,-4.6044,-4.6059,-4.662,-4.7564,-4.8345,-4.9198,-5.0067,-4.6289,-4.6289,-4.6289,-4.6289,-4.6289,-4.6289,-4.6289,-4.6289,-4.6289,-4.6289,-4.6008,-4.5789,-4.5791,-4.5719,-4.5663,-4.5586,-4.5586,-4.5586,-4.5586,-4.5586,-4.5586,-4.5586,-4.5586,-4.5586,-4.5586,-4.5586,-4.5586,-4.5586,-4.5586,-4.5514,-4.5283,-4.5532,-4.5303,-4.4825,-4.4988,-4.4988,-4.48,-4.4676,-4.4455,-4.4204,-4.4058,-4.3786,-4.3497,-4.3497,-4.3497,-4.3497,-4.3497,-4.4011,-4.4745,-4.5076,-4.57,-4.625,-4.5443,-4.5291,-4.554,-4.6168,-4.6601,-4.6888,-4.705,-4.789,-4.8607,-4.7883,-4.7851,-4.8005,-4.8247,-4.849,-4.8702,-4.9048,-4.9125,-4.9125,-4.9125,-4.8856,-4.8625,-4.8625,-4.8317,-4.7932,-4.7432,-4.7086,-4.6701,-4.6163,-4.6586,-4.6778,-4.6432,-4.7124,-4.7432,-4.6932,-4.6701,-4.6586,-4.6586,-4.6586,-4.6432,-4.6124,-4.6432,-4.6278,-4.5586,-4.5932,-4.5932,-4.5586,-4.5586,-4.5586,-4.5586,-4.5586,-4.5778,-4.6086,-4.574,-4.5873,-4.6236,-4.5912,-4.5873,-4.606,-4.6457,-4.7216,-4.8124,-4.8989,-4.978,-5.0532,-4.6289,-4.6289,-4.6289,-4.6289,-4.6289,-4.6289,-4.6289,-4.6289,-4.6289,-4.6289,-4.6172,-4.6015,-4.5866,-4.5808,-4.5753,-4.5603,-4.5586,-4.5586,-4.5586,-4.5586,-4.5586,-4.5586,-4.5586,-4.5586,-4.5586,-4.5586,-4.5586,-4.5586,-4.5586,-4.5586,-4.5586,-4.5586,-4.5438,-4.5159,-4.5159,-4.5159,-4.5137,-4.4825,-4.4676,-4.4624,-4.4204,-4.3849,-4.3597,-4.3563,-4.3529,-4.3529,-4.3563,-4.4078,-4.489,-4.5697,-4.647,-4.6948,-4.6212,-4.6305,-4.693,-4.8422,-4.8633,-4.8465,-4.8856,-4.9265,-4.9561,-4.9561,-4.9525,-4.951,-4.951,-4.951,-4.974,-5.0548,-5.0702,-5.0702,-5.0702,-5.0048,-4.951,-4.951,-4.8856,-4.8317,-4.824,-4.7586,-4.7086,-4.7009,-4.7086,-4.6817,-4.6009,-4.6663,-4.7124,-4.7124,-4.774,-4.8086,-4.8086,-4.8086,-4.7778,-4.7048,-4.774,-4.7355,-4.5817,-4.6624,-4.6547,-4.5586,-4.5586,-4.5586,-4.5586,-4.5586,-4.6086,-4.6855,-4.6047,-4.6257,-4.708,-4.6331,-4.608,-4.6221,-4.7155,-4.8043,-4.8895,-4.9819,-5.0624,-5.1198,-4.6289,-4.6289,-4.6289,-4.6289,-4.6289,-4.6289,-4.6289,-4.6289,-4.6289,-4.6289,-4.6094,-4.5961,-4.6027,-4.5958,-4.5815,-4.562,-4.5586,-4.5586,-4.5586,-4.5586,-4.5586,-4.5586,-4.5586,-4.5586,-4.5586,-4.5586,-4.5586,-4.5586,-4.5586,-4.5586,-4.5586,-4.5586,-4.5568,-4.5475,-4.5475,-4.5475,-4.5475,-4.5419,-4.5243,-4.4966,-4.4587,-4.4438,-4.4355,-4.4035,-4.3912,-4.3943,-4.427,-4.4707,-4.5281,-4.6375,-4.6877,-4.6982,-4.6794,-4.7296,-4.7984,-4.8323,-4.8805,-4.9248,-4.9348,-4.9645,-4.9974,-4.9974,-5.0183,-5.0433,-5.0433,-5.0433,-5.0471,-5.0664,-5.0702,-5.0702,-5.0702,-5.0548,-5.0433,-5.0433,-5.024,-4.9894,-4.9202,-4.8971,-4.8586,-4.7932,-4.8432,-4.8779,-4.8586,-4.874,-4.8856,-4.8856,-4.8394,-4.8086,-4.8086,-4.8086,-4.8009,-4.7855,-4.8009,-4.7932,-4.7548,-4.774,-4.7086,-4.5586,-4.5586,-4.5586,-4.5586,-4.5586,-4.6086,-4.6894,-4.6701,-4.7142,-4.8007,-4.7846,-4.7841,-4.7973,-4.8183,-4.881,-4.959,-4.9787,-5.0414,-5.1127,-4.6289,-4.6289,-4.6289,-4.6289,-4.6289,-4.6289,-4.6289,-4.6289,-4.6289,-4.6289,-4.6172,-4.613,-4.621,-4.6123,-4.5944,-4.5616,-4.5586,-4.5586,-4.5586,-4.5586,-4.5586,-4.5586,-4.5586,-4.5586,-4.5586,-4.5586,-4.5586,-4.5586,-4.5586,-4.5586,-4.5586,-4.5586,-4.5586,-4.5586,-4.5586,-4.5586,-4.5586,-4.5586,-4.5419,-4.5055,-4.4919,-4.4751,-4.4599,-4.4346,-4.429,-4.4318,-4.4508,-4.4955,-4.564,-4.6666,-4.725,-4.7579,-4.7617,-4.8321,-4.9136,-4.9136,-4.9607,-5.0024,-4.9846,-5.0087,-5.0336,-5.0159,-5.038,-5.0702,-5.0702,-5.0702,-5.0702,-5.0702,-5.0702,-5.0702,-5.0702,-5.0702,-5.0702,-5.0702,-5.0702,-5.0548,-5.0087,-4.9663,-4.924,-4.8779,-4.9125,-4.9394,-4.9394,-4.9394,-4.9394,-4.9394,-4.9356,-4.9356,-4.9356,-4.9356,-4.9163,-4.874,-4.9125,-4.8933,-4.8125,-4.8509,-4.8086,-4.6778,-4.6778,-4.6586,-4.624,-4.6624,-4.7278,-4.8086,-4.7663,-4.7971,-4.8797,-4.8374,-4.8259,-4.8355,-4.8836,-4.9285,-4.978,-5.0231,-5.0671,-5.099,-4.6289,-4.582,-4.5625,-4.6211,-4.6289,-4.6289,-4.6289,-4.6289,-4.6289,-4.6289,-4.6289,-4.6289,-4.6289,-4.6289,-4.6123,-4.5632,-4.5586,-4.5586,-4.5586,-4.5586,-4.5586,-4.5586,-4.5586,-4.5586,-4.5586,-4.5586,-4.5586,-4.5586,-4.5586,-4.5586,-4.5586,-4.5586,-4.5586,-4.5586,-4.5586,-4.5586,-4.5586,-4.5586,-4.5438,-4.518,-4.5137,-4.4966,-4.4776,-4.4726,-4.4701,-4.4701,-4.4927,-4.5533,-4.6266,-4.6796,-4.7591,-4.8386,-4.8477,-4.9264,-5.0206,-5.0206,-5.0462,-5.0624,-5.0313,-5.0462,-5.0624,-5.0291,-5.0462,-5.0741,-5.0856,-5.0894,-5.0894,-5.0894,-5.0894,-5.0856,-5.0741,-5.0702,-5.0702,-5.0702,-5.0702,-5.0702,-5.0702,-5.0087,-4.9625,-4.9625,-4.9625,-4.9625,-4.9625,-4.9625,-4.9625,-4.9625,-5.0279,-5.0702,-5.0702,-5.0702,-5.0356,-4.9663,-5.0317,-5.001,-4.8548,-4.924,-4.9163,-4.8317,-4.8471,-4.8048,-4.7124,-4.7817,-4.8586,-4.9356,-4.8625,-4.8817,-4.9586,-4.8856,-4.8548,-4.8625,-4.9452,-4.9798,-4.9875,-5.076,-5.0991,-5.0914,-4.6289,-4.3906,-4.2812,-4.5781,-4.6289,-4.6289,-4.6289,-4.6289,-4.6289,-4.6289,-4.6289,-4.6289,-4.6289,-4.6289,-4.6123,-4.5632,-4.5586,-4.5586,-4.5586,-4.5586,-4.5586,-4.5586,-4.5586,-4.5586,-4.5586,-4.5586,-4.5586,-4.5586,-4.5586,-4.5586,-4.5586,-4.5586,-4.5586,-4.5586,-4.5586,-4.5586,-4.5586,-4.5586,-4.5568,-4.5532,-4.5222,-4.5243,-4.5438,-4.5159,-4.5011,-4.517,-4.6204,-4.7088,-4.7702,-4.7088,-4.7933,-4.9258,-4.9258,-4.9892,-5.0624,-5.0624,-5.0644,-5.0702,-5.0624,-5.0644,-5.0702,-5.0624,-5.0644,-5.0894,-5.1587,-5.1741,-5.1741,-5.1741,-5.1741,-5.1548,-5.0818,-5.0702,-5.0702,-5.0702,-5.0702,-5.0702,-5.0702,-5.0587,-5.051,-5.051,-5.051,-5.051,-5.051,-5.051,-5.051,-5.051,-5.0625,-5.0702,-5.0702,-5.0702,-5.0625,-5.051,-5.0625,-5.0587,-5.0356,-5.0471,-5.0087,-4.924,-4.9971,-4.951,-4.7932,-4.8048,-4.8586,-4.9394,-4.9279,-4.9702,-5.051,-5.0394,-5.0356,-5.0356,-5.051,-5.0548,-5.0587,-5.0837,-5.0914,-5.0914,-4.6289,-4.3555,-4.2266,-4.5703,-4.6289,-4.6289,-4.6289,-4.6289,-4.6289,-4.6289,-4.6289,-4.6289,-4.6289,-4.6289,-4.6202,-4.6013,-4.5905,-4.5834,-4.5757,-4.5719,-4.5719,-4.5719,-4.5624,-4.5586,-4.5586,-4.5586,-4.5586,-4.5586,-4.5586,-4.5586,-4.5586,-4.5586,-4.5586,-4.5586,-4.5586,-4.5586,-4.5586,-4.5586,-4.5586,-4.5586,-4.5438,-4.5457,-4.5586,-4.5438,-4.5381,-4.5515,-4.655,-4.7432,-4.8125,-4.824,-4.8779,-4.9471,-4.9971,-5.0394,-5.0702,-5.0702,-5.0702,-5.0702,-5.0702,-5.0702,-5.0818,-5.1279,-5.1356,-5.1741,-5.3049,-5.3356,-5.3203,-5.2741,-5.2626,-5.251,-5.2164,-5.2087,-5.2087,-5.2087,-5.1702,-5.1548,-5.201,-5.1279,-5.0702,-5.0702,-5.0702,-5.0702,-5.0702,-5.0702,-5.0702,-5.0702,-5.0702,-5.0702,-5.0702,-5.0702,-5.0702,-5.0702,-5.0702,-5.0702,-5.0702,-5.0702,-5.051,-5.0125,-5.051,-5.0048,-4.8856,-4.9317,-4.974,-5.0125,-5.0125,-5.0394,-5.0837,-5.0741,-5.0741,-5.0837,-5.0837,-5.0875,-5.0952,-5.0991,-5.1001,-5.1073]}]]